<?xml version="1.0" encoding="UTF-8" standalone="no" ?>
<gpx xmlns="http://www.topografix.com/GPX/1/1" xmlns:xsi="http://www.w3.org/2001/XMLSchema-instance" xsi:schemaLocation="http://www.topografix.com/GPX/1/1 http://www.topografix.com/GPX/1/1/gpx.xsd" version="1.1" creator="VisuGPX - https://www.visugpx.com">
  <metadata>
    <name>Balade du premier avril</name>
    <desc><![CDATA[Belle balade de 40km au départ du port du canal]]></desc>
  </metadata>
  <trk>
    <name><![CDATA[Balade avec tintin]]></name>
    <trkseg>
      <trkpt lat="47.29033" lon="5.06742">
        <ele>234</ele>
        <time>2012-04-01T07:53:45Z</time>
      </trkpt>
      <trkpt lat="47.29048" lon="5.06738">
        <ele>236</ele>
        <time>2012-04-01T07:53:55Z</time>
      </trkpt>
      <trkpt lat="47.2905" lon="5.06738">
        <ele>238</ele>
        <time>2012-04-01T07:53:57Z</time>
      </trkpt>
      <trkpt lat="47.29068" lon="5.06742">
        <ele>241</ele>
        <time>2012-04-01T07:54:03Z</time>
      </trkpt>
      <trkpt lat="47.29053" lon="5.06737">
        <ele>246</ele>
        <time>2012-04-01T07:54:20Z</time>
      </trkpt>
      <trkpt lat="47.29078" lon="5.06733">
        <ele>249</ele>
        <time>2012-04-01T07:54:32Z</time>
      </trkpt>
      <trkpt lat="47.29093" lon="5.06732">
        <ele>255</ele>
        <time>2012-04-01T07:54:34Z</time>
      </trkpt>
      <trkpt lat="47.29078" lon="5.06732">
        <ele>253</ele>
        <time>2012-04-01T07:54:47Z</time>
      </trkpt>
      <trkpt lat="47.29053" lon="5.06735">
        <ele>243</ele>
        <time>2012-04-01T07:54:53Z</time>
      </trkpt>
      <trkpt lat="47.29038" lon="5.0674">
        <ele>237</ele>
        <time>2012-04-01T07:54:59Z</time>
      </trkpt>
      <trkpt lat="47.29023" lon="5.06737">
        <ele>237</ele>
        <time>2012-04-01T07:55:07Z</time>
      </trkpt>
      <trkpt lat="47.29005" lon="5.06722">
        <ele>228</ele>
        <time>2012-04-01T07:55:25Z</time>
      </trkpt>
      <trkpt lat="47.28993" lon="5.06705">
        <ele>227</ele>
        <time>2012-04-01T07:55:29Z</time>
      </trkpt>
      <trkpt lat="47.28978" lon="5.06692">
        <ele>227</ele>
        <time>2012-04-01T07:55:33Z</time>
      </trkpt>
      <trkpt lat="47.28962" lon="5.06675">
        <ele>229</ele>
        <time>2012-04-01T07:55:39Z</time>
      </trkpt>
      <trkpt lat="47.28942" lon="5.06655">
        <ele>232</ele>
        <time>2012-04-01T07:55:44Z</time>
      </trkpt>
      <trkpt lat="47.28928" lon="5.06642">
        <ele>234</ele>
        <time>2012-04-01T07:55:48Z</time>
      </trkpt>
      <trkpt lat="47.289" lon="5.06612">
        <ele>233</ele>
        <time>2012-04-01T07:55:56Z</time>
      </trkpt>
      <trkpt lat="47.289" lon="5.0659">
        <ele>232</ele>
        <time>2012-04-01T07:56:00Z</time>
      </trkpt>
      <trkpt lat="47.28907" lon="5.0657">
        <ele>231</ele>
        <time>2012-04-01T07:56:04Z</time>
      </trkpt>
      <trkpt lat="47.28905" lon="5.06548">
        <ele>236</ele>
        <time>2012-04-01T07:56:10Z</time>
      </trkpt>
      <trkpt lat="47.28893" lon="5.06537">
        <ele>237</ele>
        <time>2012-04-01T07:56:27Z</time>
      </trkpt>
      <trkpt lat="47.28855" lon="5.06507">
        <ele>245</ele>
        <time>2012-04-01T07:56:37Z</time>
      </trkpt>
      <trkpt lat="47.28842" lon="5.06493">
        <ele>243</ele>
        <time>2012-04-01T07:56:41Z</time>
      </trkpt>
      <trkpt lat="47.28793" lon="5.06442">
        <ele>238</ele>
        <time>2012-04-01T07:56:52Z</time>
      </trkpt>
      <trkpt lat="47.2876" lon="5.06403">
        <ele>235</ele>
        <time>2012-04-01T07:57:00Z</time>
      </trkpt>
      <trkpt lat="47.28733" lon="5.06377">
        <ele>235</ele>
        <time>2012-04-01T07:57:06Z</time>
      </trkpt>
      <trkpt lat="47.287" lon="5.06342">
        <ele>236</ele>
        <time>2012-04-01T07:57:14Z</time>
      </trkpt>
      <trkpt lat="47.2869" lon="5.06318">
        <ele>237</ele>
        <time>2012-04-01T07:57:18Z</time>
      </trkpt>
      <trkpt lat="47.28673" lon="5.06323">
        <ele>238</ele>
        <time>2012-04-01T07:57:22Z</time>
      </trkpt>
      <trkpt lat="47.28657" lon="5.0634">
        <ele>239</ele>
        <time>2012-04-01T07:57:26Z</time>
      </trkpt>
      <trkpt lat="47.28638" lon="5.0634">
        <ele>236</ele>
        <time>2012-04-01T07:57:30Z</time>
      </trkpt>
      <trkpt lat="47.28618" lon="5.06337">
        <ele>235</ele>
        <time>2012-04-01T07:57:34Z</time>
      </trkpt>
      <trkpt lat="47.28598" lon="5.0633">
        <ele>236</ele>
        <time>2012-04-01T07:57:39Z</time>
      </trkpt>
      <trkpt lat="47.2858" lon="5.06325">
        <ele>238</ele>
        <time>2012-04-01T07:57:42Z</time>
      </trkpt>
      <trkpt lat="47.28578" lon="5.06295">
        <ele>235</ele>
        <time>2012-04-01T07:57:48Z</time>
      </trkpt>
      <trkpt lat="47.28578" lon="5.0627">
        <ele>235</ele>
        <time>2012-04-01T07:57:52Z</time>
      </trkpt>
      <trkpt lat="47.28567" lon="5.06258">
        <ele>235</ele>
        <time>2012-04-01T07:57:56Z</time>
      </trkpt>
      <trkpt lat="47.28562" lon="5.06233">
        <ele>233</ele>
        <time>2012-04-01T07:58:00Z</time>
      </trkpt>
      <trkpt lat="47.28575" lon="5.06207">
        <ele>233</ele>
        <time>2012-04-01T07:58:04Z</time>
      </trkpt>
      <trkpt lat="47.28607" lon="5.06143">
        <ele>234</ele>
        <time>2012-04-01T07:58:14Z</time>
      </trkpt>
      <trkpt lat="47.2862" lon="5.0612">
        <ele>234</ele>
        <time>2012-04-01T07:58:18Z</time>
      </trkpt>
      <trkpt lat="47.28642" lon="5.06077">
        <ele>236</ele>
        <time>2012-04-01T07:58:26Z</time>
      </trkpt>
      <trkpt lat="47.28657" lon="5.06042">
        <ele>236</ele>
        <time>2012-04-01T07:58:32Z</time>
      </trkpt>
      <trkpt lat="47.28665" lon="5.06013">
        <ele>237</ele>
        <time>2012-04-01T07:58:35Z</time>
      </trkpt>
      <trkpt lat="47.28678" lon="5.05978">
        <ele>237</ele>
        <time>2012-04-01T07:58:41Z</time>
      </trkpt>
      <trkpt lat="47.2869" lon="5.05958">
        <ele>236</ele>
        <time>2012-04-01T07:58:45Z</time>
      </trkpt>
      <trkpt lat="47.28702" lon="5.05937">
        <ele>236</ele>
        <time>2012-04-01T07:58:49Z</time>
      </trkpt>
      <trkpt lat="47.2873" lon="5.05882">
        <ele>234</ele>
        <time>2012-04-01T07:58:59Z</time>
      </trkpt>
      <trkpt lat="47.28757" lon="5.05827">
        <ele>231</ele>
        <time>2012-04-01T07:59:09Z</time>
      </trkpt>
      <trkpt lat="47.28773" lon="5.05793">
        <ele>230</ele>
        <time>2012-04-01T07:59:15Z</time>
      </trkpt>
      <trkpt lat="47.28788" lon="5.0576">
        <ele>230</ele>
        <time>2012-04-01T07:59:21Z</time>
      </trkpt>
      <trkpt lat="47.28798" lon="5.05738">
        <ele>230</ele>
        <time>2012-04-01T07:59:25Z</time>
      </trkpt>
      <trkpt lat="47.28818" lon="5.05698">
        <ele>230</ele>
        <time>2012-04-01T07:59:33Z</time>
      </trkpt>
      <trkpt lat="47.28828" lon="5.05673">
        <ele>230</ele>
        <time>2012-04-01T07:59:37Z</time>
      </trkpt>
      <trkpt lat="47.2884" lon="5.05642">
        <ele>228</ele>
        <time>2012-04-01T07:59:41Z</time>
      </trkpt>
      <trkpt lat="47.2885" lon="5.05618">
        <ele>229</ele>
        <time>2012-04-01T07:59:45Z</time>
      </trkpt>
      <trkpt lat="47.28862" lon="5.05595">
        <ele>230</ele>
        <time>2012-04-01T07:59:50Z</time>
      </trkpt>
      <trkpt lat="47.2888" lon="5.05563">
        <ele>232</ele>
        <time>2012-04-01T07:59:55Z</time>
      </trkpt>
      <trkpt lat="47.28893" lon="5.05543">
        <ele>231</ele>
        <time>2012-04-01T08:00:00Z</time>
      </trkpt>
      <trkpt lat="47.28905" lon="5.05525">
        <ele>233</ele>
        <time>2012-04-01T08:00:04Z</time>
      </trkpt>
      <trkpt lat="47.28897" lon="5.05508">
        <ele>233</ele>
        <time>2012-04-01T08:00:08Z</time>
      </trkpt>
      <trkpt lat="47.28882" lon="5.05488">
        <ele>232</ele>
        <time>2012-04-01T08:00:12Z</time>
      </trkpt>
      <trkpt lat="47.28892" lon="5.0547">
        <ele>233</ele>
        <time>2012-04-01T08:00:16Z</time>
      </trkpt>
      <trkpt lat="47.28908" lon="5.05445">
        <ele>233</ele>
        <time>2012-04-01T08:00:22Z</time>
      </trkpt>
      <trkpt lat="47.2893" lon="5.05407">
        <ele>235</ele>
        <time>2012-04-01T08:00:28Z</time>
      </trkpt>
      <trkpt lat="47.28942" lon="5.05385">
        <ele>236</ele>
        <time>2012-04-01T08:00:32Z</time>
      </trkpt>
      <trkpt lat="47.28983" lon="5.05315">
        <ele>234</ele>
        <time>2012-04-01T08:00:44Z</time>
      </trkpt>
      <trkpt lat="47.28995" lon="5.05292">
        <ele>232</ele>
        <time>2012-04-01T08:00:48Z</time>
      </trkpt>
      <trkpt lat="47.2898" lon="5.05288">
        <ele>233</ele>
        <time>2012-04-01T08:00:54Z</time>
      </trkpt>
      <trkpt lat="47.28965" lon="5.05277">
        <ele>233</ele>
        <time>2012-04-01T08:01:01Z</time>
      </trkpt>
      <trkpt lat="47.28977" lon="5.05253">
        <ele>232</ele>
        <time>2012-04-01T08:01:07Z</time>
      </trkpt>
      <trkpt lat="47.28992" lon="5.05242">
        <ele>233</ele>
        <time>2012-04-01T08:01:11Z</time>
      </trkpt>
      <trkpt lat="47.29008" lon="5.05222">
        <ele>234</ele>
        <time>2012-04-01T08:01:15Z</time>
      </trkpt>
      <trkpt lat="47.29018" lon="5.05207">
        <ele>234</ele>
        <time>2012-04-01T08:01:19Z</time>
      </trkpt>
      <trkpt lat="47.29033" lon="5.05177">
        <ele>235</ele>
        <time>2012-04-01T08:01:23Z</time>
      </trkpt>
      <trkpt lat="47.29053" lon="5.0514">
        <ele>237</ele>
        <time>2012-04-01T08:01:29Z</time>
      </trkpt>
      <trkpt lat="47.2908" lon="5.05093">
        <ele>235</ele>
        <time>2012-04-01T08:01:38Z</time>
      </trkpt>
      <trkpt lat="47.29093" lon="5.0507">
        <ele>234</ele>
        <time>2012-04-01T08:01:42Z</time>
      </trkpt>
      <trkpt lat="47.29105" lon="5.05047">
        <ele>233</ele>
        <time>2012-04-01T08:01:46Z</time>
      </trkpt>
      <trkpt lat="47.29113" lon="5.0503">
        <ele>233</ele>
        <time>2012-04-01T08:01:48Z</time>
      </trkpt>
      <trkpt lat="47.2913" lon="5.04993">
        <ele>232</ele>
        <time>2012-04-01T08:01:54Z</time>
      </trkpt>
      <trkpt lat="47.29147" lon="5.04953">
        <ele>233</ele>
        <time>2012-04-01T08:02:00Z</time>
      </trkpt>
      <trkpt lat="47.29155" lon="5.04927">
        <ele>233</ele>
        <time>2012-04-01T08:02:04Z</time>
      </trkpt>
      <trkpt lat="47.29162" lon="5.049">
        <ele>233</ele>
        <time>2012-04-01T08:02:08Z</time>
      </trkpt>
      <trkpt lat="47.29165" lon="5.04873">
        <ele>232</ele>
        <time>2012-04-01T08:02:13Z</time>
      </trkpt>
      <trkpt lat="47.29168" lon="5.04845">
        <ele>232</ele>
        <time>2012-04-01T08:02:17Z</time>
      </trkpt>
      <trkpt lat="47.29172" lon="5.04808">
        <ele>233</ele>
        <time>2012-04-01T08:02:21Z</time>
      </trkpt>
      <trkpt lat="47.29173" lon="5.04777">
        <ele>233</ele>
        <time>2012-04-01T08:02:25Z</time>
      </trkpt>
      <trkpt lat="47.29182" lon="5.04653">
        <ele>237</ele>
        <time>2012-04-01T08:02:42Z</time>
      </trkpt>
      <trkpt lat="47.29185" lon="5.04623">
        <ele>239</ele>
        <time>2012-04-01T08:02:46Z</time>
      </trkpt>
      <trkpt lat="47.2919" lon="5.04578">
        <ele>238</ele>
        <time>2012-04-01T08:02:52Z</time>
      </trkpt>
      <trkpt lat="47.29197" lon="5.04533">
        <ele>236</ele>
        <time>2012-04-01T08:02:59Z</time>
      </trkpt>
      <trkpt lat="47.29208" lon="5.04508">
        <ele>235</ele>
        <time>2012-04-01T08:03:03Z</time>
      </trkpt>
      <trkpt lat="47.29223" lon="5.04487">
        <ele>235</ele>
        <time>2012-04-01T08:03:07Z</time>
      </trkpt>
      <trkpt lat="47.29227" lon="5.0446">
        <ele>235</ele>
        <time>2012-04-01T08:03:11Z</time>
      </trkpt>
      <trkpt lat="47.29227" lon="5.04425">
        <ele>233</ele>
        <time>2012-04-01T08:03:15Z</time>
      </trkpt>
      <trkpt lat="47.29232" lon="5.0438">
        <ele>233</ele>
        <time>2012-04-01T08:03:19Z</time>
      </trkpt>
      <trkpt lat="47.29238" lon="5.04293">
        <ele>233</ele>
        <time>2012-04-01T08:03:31Z</time>
      </trkpt>
      <trkpt lat="47.29242" lon="5.04272">
        <ele>235</ele>
        <time>2012-04-01T08:03:35Z</time>
      </trkpt>
      <trkpt lat="47.29255" lon="5.04253">
        <ele>236</ele>
        <time>2012-04-01T08:03:39Z</time>
      </trkpt>
      <trkpt lat="47.29273" lon="5.04232">
        <ele>239</ele>
        <time>2012-04-01T08:03:45Z</time>
      </trkpt>
      <trkpt lat="47.29353" lon="5.04127">
        <ele>241</ele>
        <time>2012-04-01T08:04:07Z</time>
      </trkpt>
      <trkpt lat="47.29383" lon="5.04087">
        <ele>239</ele>
        <time>2012-04-01T08:04:15Z</time>
      </trkpt>
      <trkpt lat="47.29398" lon="5.04068">
        <ele>238</ele>
        <time>2012-04-01T08:04:20Z</time>
      </trkpt>
      <trkpt lat="47.29408" lon="5.04052">
        <ele>237</ele>
        <time>2012-04-01T08:04:24Z</time>
      </trkpt>
      <trkpt lat="47.29422" lon="5.04038">
        <ele>239</ele>
        <time>2012-04-01T08:04:28Z</time>
      </trkpt>
      <trkpt lat="47.29435" lon="5.04023">
        <ele>242</ele>
        <time>2012-04-01T08:04:32Z</time>
      </trkpt>
      <trkpt lat="47.29447" lon="5.0401">
        <ele>243</ele>
        <time>2012-04-01T08:04:36Z</time>
      </trkpt>
      <trkpt lat="47.29465" lon="5.03987">
        <ele>242</ele>
        <time>2012-04-01T08:04:42Z</time>
      </trkpt>
      <trkpt lat="47.29487" lon="5.0396">
        <ele>240</ele>
        <time>2012-04-01T08:04:48Z</time>
      </trkpt>
      <trkpt lat="47.29507" lon="5.03938">
        <ele>242</ele>
        <time>2012-04-01T08:04:54Z</time>
      </trkpt>
      <trkpt lat="47.29527" lon="5.03915">
        <ele>242</ele>
        <time>2012-04-01T08:05:01Z</time>
      </trkpt>
      <trkpt lat="47.29552" lon="5.03878">
        <ele>242</ele>
        <time>2012-04-01T08:05:09Z</time>
      </trkpt>
      <trkpt lat="47.29567" lon="5.03862">
        <ele>242</ele>
        <time>2012-04-01T08:05:13Z</time>
      </trkpt>
      <trkpt lat="47.29583" lon="5.0384">
        <ele>243</ele>
        <time>2012-04-01T08:05:17Z</time>
      </trkpt>
      <trkpt lat="47.2963" lon="5.03782">
        <ele>240</ele>
        <time>2012-04-01T08:05:29Z</time>
      </trkpt>
      <trkpt lat="47.2965" lon="5.03753">
        <ele>240</ele>
        <time>2012-04-01T08:05:36Z</time>
      </trkpt>
      <trkpt lat="47.29662" lon="5.03742">
        <ele>240</ele>
        <time>2012-04-01T08:05:38Z</time>
      </trkpt>
      <trkpt lat="47.29675" lon="5.03723">
        <ele>240</ele>
        <time>2012-04-01T08:05:42Z</time>
      </trkpt>
      <trkpt lat="47.2969" lon="5.03705">
        <ele>241</ele>
        <time>2012-04-01T08:05:46Z</time>
      </trkpt>
      <trkpt lat="47.29775" lon="5.03602">
        <ele>241</ele>
        <time>2012-04-01T08:06:08Z</time>
      </trkpt>
      <trkpt lat="47.29792" lon="5.03585">
        <ele>241</ele>
        <time>2012-04-01T08:06:12Z</time>
      </trkpt>
      <trkpt lat="47.2981" lon="5.03572">
        <ele>242</ele>
        <time>2012-04-01T08:06:17Z</time>
      </trkpt>
      <trkpt lat="47.29838" lon="5.03553">
        <ele>243</ele>
        <time>2012-04-01T08:06:23Z</time>
      </trkpt>
      <trkpt lat="47.29862" lon="5.03542">
        <ele>244</ele>
        <time>2012-04-01T08:06:26Z</time>
      </trkpt>
      <trkpt lat="47.29883" lon="5.03528">
        <ele>245</ele>
        <time>2012-04-01T08:06:30Z</time>
      </trkpt>
      <trkpt lat="47.30068" lon="5.03422">
        <ele>245</ele>
        <time>2012-04-01T08:07:08Z</time>
      </trkpt>
      <trkpt lat="47.30105" lon="5.03402">
        <ele>245</ele>
        <time>2012-04-01T08:07:15Z</time>
      </trkpt>
      <trkpt lat="47.30123" lon="5.0339">
        <ele>246</ele>
        <time>2012-04-01T08:07:20Z</time>
      </trkpt>
      <trkpt lat="47.30165" lon="5.0336">
        <ele>249</ele>
        <time>2012-04-01T08:07:29Z</time>
      </trkpt>
      <trkpt lat="47.30185" lon="5.03347">
        <ele>249</ele>
        <time>2012-04-01T08:07:33Z</time>
      </trkpt>
      <trkpt lat="47.30227" lon="5.03325">
        <ele>248</ele>
        <time>2012-04-01T08:07:43Z</time>
      </trkpt>
      <trkpt lat="47.30258" lon="5.03308">
        <ele>247</ele>
        <time>2012-04-01T08:07:49Z</time>
      </trkpt>
      <trkpt lat="47.30293" lon="5.03285">
        <ele>246</ele>
        <time>2012-04-01T08:07:57Z</time>
      </trkpt>
      <trkpt lat="47.30307" lon="5.03278">
        <ele>244</ele>
        <time>2012-04-01T08:08:01Z</time>
      </trkpt>
      <trkpt lat="47.30328" lon="5.03268">
        <ele>243</ele>
        <time>2012-04-01T08:08:05Z</time>
      </trkpt>
      <trkpt lat="47.30342" lon="5.03262">
        <ele>242</ele>
        <time>2012-04-01T08:08:09Z</time>
      </trkpt>
      <trkpt lat="47.3039" lon="5.03233">
        <ele>243</ele>
        <time>2012-04-01T08:08:19Z</time>
      </trkpt>
      <trkpt lat="47.30477" lon="5.03182">
        <ele>241</ele>
        <time>2012-04-01T08:08:39Z</time>
      </trkpt>
      <trkpt lat="47.30495" lon="5.03172">
        <ele>242</ele>
        <time>2012-04-01T08:08:43Z</time>
      </trkpt>
      <trkpt lat="47.3053" lon="5.03152">
        <ele>242</ele>
        <time>2012-04-01T08:08:51Z</time>
      </trkpt>
      <trkpt lat="47.30548" lon="5.03142">
        <ele>242</ele>
        <time>2012-04-01T08:08:55Z</time>
      </trkpt>
      <trkpt lat="47.30565" lon="5.03132">
        <ele>243</ele>
        <time>2012-04-01T08:08:59Z</time>
      </trkpt>
      <trkpt lat="47.30602" lon="5.03107">
        <ele>241</ele>
        <time>2012-04-01T08:09:07Z</time>
      </trkpt>
      <trkpt lat="47.30618" lon="5.0309">
        <ele>242</ele>
        <time>2012-04-01T08:09:11Z</time>
      </trkpt>
      <trkpt lat="47.30685" lon="5.03063">
        <ele>252</ele>
        <time>2012-04-01T08:09:21Z</time>
      </trkpt>
      <trkpt lat="47.30707" lon="5.03045">
        <ele>243</ele>
        <time>2012-04-01T08:09:27Z</time>
      </trkpt>
      <trkpt lat="47.30723" lon="5.03035">
        <ele>241</ele>
        <time>2012-04-01T08:09:31Z</time>
      </trkpt>
      <trkpt lat="47.30738" lon="5.03022">
        <ele>237</ele>
        <time>2012-04-01T08:09:33Z</time>
      </trkpt>
      <trkpt lat="47.3076" lon="5.03012">
        <ele>238</ele>
        <time>2012-04-01T08:09:37Z</time>
      </trkpt>
      <trkpt lat="47.30787" lon="5.03">
        <ele>240</ele>
        <time>2012-04-01T08:09:43Z</time>
      </trkpt>
      <trkpt lat="47.30802" lon="5.0299">
        <ele>241</ele>
        <time>2012-04-01T08:09:45Z</time>
      </trkpt>
      <trkpt lat="47.3083" lon="5.0297">
        <ele>246</ele>
        <time>2012-04-01T08:09:51Z</time>
      </trkpt>
      <trkpt lat="47.30853" lon="5.02953">
        <ele>247</ele>
        <time>2012-04-01T08:09:57Z</time>
      </trkpt>
      <trkpt lat="47.30875" lon="5.02943">
        <ele>246</ele>
        <time>2012-04-01T08:10:01Z</time>
      </trkpt>
      <trkpt lat="47.30895" lon="5.02932">
        <ele>245</ele>
        <time>2012-04-01T08:10:05Z</time>
      </trkpt>
      <trkpt lat="47.30955" lon="5.029">
        <ele>241</ele>
        <time>2012-04-01T08:10:16Z</time>
      </trkpt>
      <trkpt lat="47.31063" lon="5.02842">
        <ele>239</ele>
        <time>2012-04-01T08:10:36Z</time>
      </trkpt>
      <trkpt lat="47.31177" lon="5.02775">
        <ele>245</ele>
        <time>2012-04-01T08:10:59Z</time>
      </trkpt>
      <trkpt lat="47.31205" lon="5.0276">
        <ele>245</ele>
        <time>2012-04-01T08:11:05Z</time>
      </trkpt>
      <trkpt lat="47.31222" lon="5.02753">
        <ele>245</ele>
        <time>2012-04-01T08:11:09Z</time>
      </trkpt>
      <trkpt lat="47.31212" lon="5.0274">
        <ele>242</ele>
        <time>2012-04-01T08:11:29Z</time>
      </trkpt>
      <trkpt lat="47.31212" lon="5.0272">
        <ele>243</ele>
        <time>2012-04-01T08:11:37Z</time>
      </trkpt>
      <trkpt lat="47.31228" lon="5.02708">
        <ele>242</ele>
        <time>2012-04-01T08:18:12Z</time>
      </trkpt>
      <trkpt lat="47.31242" lon="5.02703">
        <ele>241</ele>
        <time>2012-04-01T08:18:18Z</time>
      </trkpt>
      <trkpt lat="47.31257" lon="5.02697">
        <ele>242</ele>
        <time>2012-04-01T08:18:22Z</time>
      </trkpt>
      <trkpt lat="47.31273" lon="5.02687">
        <ele>242</ele>
        <time>2012-04-01T08:18:26Z</time>
      </trkpt>
      <trkpt lat="47.31298" lon="5.02672">
        <ele>242</ele>
        <time>2012-04-01T08:18:32Z</time>
      </trkpt>
      <trkpt lat="47.3143" lon="5.0259">
        <ele>245</ele>
        <time>2012-04-01T08:19:03Z</time>
      </trkpt>
      <trkpt lat="47.31433" lon="5.02568">
        <ele>248</ele>
        <time>2012-04-01T08:19:06Z</time>
      </trkpt>
      <trkpt lat="47.31433" lon="5.02547">
        <ele>254</ele>
        <time>2012-04-01T08:19:12Z</time>
      </trkpt>
      <trkpt lat="47.3142" lon="5.0253">
        <ele>260</ele>
        <time>2012-04-01T08:19:18Z</time>
      </trkpt>
      <trkpt lat="47.31418" lon="5.02505">
        <ele>261</ele>
        <time>2012-04-01T08:19:22Z</time>
      </trkpt>
      <trkpt lat="47.31422" lon="5.02478">
        <ele>259</ele>
        <time>2012-04-01T08:19:26Z</time>
      </trkpt>
      <trkpt lat="47.3142" lon="5.02453">
        <ele>259</ele>
        <time>2012-04-01T08:19:30Z</time>
      </trkpt>
      <trkpt lat="47.31412" lon="5.02425">
        <ele>257</ele>
        <time>2012-04-01T08:19:34Z</time>
      </trkpt>
      <trkpt lat="47.314" lon="5.0241">
        <ele>255</ele>
        <time>2012-04-01T08:19:38Z</time>
      </trkpt>
      <trkpt lat="47.31388" lon="5.02388">
        <ele>256</ele>
        <time>2012-04-01T08:19:41Z</time>
      </trkpt>
      <trkpt lat="47.31377" lon="5.02367">
        <ele>256</ele>
        <time>2012-04-01T08:19:45Z</time>
      </trkpt>
      <trkpt lat="47.31365" lon="5.02333">
        <ele>258</ele>
        <time>2012-04-01T08:19:51Z</time>
      </trkpt>
      <trkpt lat="47.31363" lon="5.02308">
        <ele>254</ele>
        <time>2012-04-01T08:19:55Z</time>
      </trkpt>
      <trkpt lat="47.31355" lon="5.02292">
        <ele>254</ele>
        <time>2012-04-01T08:19:59Z</time>
      </trkpt>
      <trkpt lat="47.3132" lon="5.02217">
        <ele>246</ele>
        <time>2012-04-01T08:20:10Z</time>
      </trkpt>
      <trkpt lat="47.31307" lon="5.02192">
        <ele>245</ele>
        <time>2012-04-01T08:20:14Z</time>
      </trkpt>
      <trkpt lat="47.31287" lon="5.02157">
        <ele>244</ele>
        <time>2012-04-01T08:20:20Z</time>
      </trkpt>
      <trkpt lat="47.31267" lon="5.02122">
        <ele>245</ele>
        <time>2012-04-01T08:20:26Z</time>
      </trkpt>
      <trkpt lat="47.3119" lon="5.01983">
        <ele>246</ele>
        <time>2012-04-01T08:20:51Z</time>
      </trkpt>
      <trkpt lat="47.31173" lon="5.01985">
        <ele>243</ele>
        <time>2012-04-01T08:20:57Z</time>
      </trkpt>
      <trkpt lat="47.31157" lon="5.01987">
        <ele>243</ele>
        <time>2012-04-01T08:21:01Z</time>
      </trkpt>
      <trkpt lat="47.31147" lon="5.01972">
        <ele>243</ele>
        <time>2012-04-01T08:21:05Z</time>
      </trkpt>
      <trkpt lat="47.3108" lon="5.01872">
        <ele>248</ele>
        <time>2012-04-01T08:21:23Z</time>
      </trkpt>
      <trkpt lat="47.31067" lon="5.01848">
        <ele>248</ele>
        <time>2012-04-01T08:21:27Z</time>
      </trkpt>
      <trkpt lat="47.31038" lon="5.018">
        <ele>250</ele>
        <time>2012-04-01T08:21:36Z</time>
      </trkpt>
      <trkpt lat="47.31015" lon="5.01758">
        <ele>251</ele>
        <time>2012-04-01T08:21:44Z</time>
      </trkpt>
      <trkpt lat="47.31002" lon="5.01738">
        <ele>254</ele>
        <time>2012-04-01T08:21:48Z</time>
      </trkpt>
      <trkpt lat="47.3099" lon="5.01718">
        <ele>254</ele>
        <time>2012-04-01T08:21:52Z</time>
      </trkpt>
      <trkpt lat="47.30967" lon="5.01675">
        <ele>254</ele>
        <time>2012-04-01T08:22:01Z</time>
      </trkpt>
      <trkpt lat="47.3096" lon="5.01657">
        <ele>254</ele>
        <time>2012-04-01T08:22:04Z</time>
      </trkpt>
      <trkpt lat="47.3095" lon="5.01635">
        <ele>254</ele>
        <time>2012-04-01T08:22:10Z</time>
      </trkpt>
      <trkpt lat="47.30938" lon="5.01617">
        <ele>254</ele>
        <time>2012-04-01T08:22:14Z</time>
      </trkpt>
      <trkpt lat="47.3093" lon="5.016">
        <ele>254</ele>
        <time>2012-04-01T08:22:18Z</time>
      </trkpt>
      <trkpt lat="47.30902" lon="5.01543">
        <ele>255</ele>
        <time>2012-04-01T08:22:28Z</time>
      </trkpt>
      <trkpt lat="47.30883" lon="5.01512">
        <ele>259</ele>
        <time>2012-04-01T08:22:34Z</time>
      </trkpt>
      <trkpt lat="47.30867" lon="5.01478">
        <ele>260</ele>
        <time>2012-04-01T08:22:39Z</time>
      </trkpt>
      <trkpt lat="47.30868" lon="5.01453">
        <ele>258</ele>
        <time>2012-04-01T08:22:44Z</time>
      </trkpt>
      <trkpt lat="47.30885" lon="5.01425">
        <ele>257</ele>
        <time>2012-04-01T08:22:48Z</time>
      </trkpt>
      <trkpt lat="47.30895" lon="5.0141">
        <ele>255</ele>
        <time>2012-04-01T08:22:52Z</time>
      </trkpt>
      <trkpt lat="47.30913" lon="5.01387">
        <ele>255</ele>
        <time>2012-04-01T08:22:56Z</time>
      </trkpt>
      <trkpt lat="47.30945" lon="5.01343">
        <ele>257</ele>
        <time>2012-04-01T08:23:06Z</time>
      </trkpt>
      <trkpt lat="47.30945" lon="5.01323">
        <ele>257</ele>
        <time>2012-04-01T08:23:10Z</time>
      </trkpt>
      <trkpt lat="47.30932" lon="5.01305">
        <ele>258</ele>
        <time>2012-04-01T08:23:14Z</time>
      </trkpt>
      <trkpt lat="47.3091" lon="5.01273">
        <ele>258</ele>
        <time>2012-04-01T08:23:20Z</time>
      </trkpt>
      <trkpt lat="47.30892" lon="5.01242">
        <ele>259</ele>
        <time>2012-04-01T08:23:27Z</time>
      </trkpt>
      <trkpt lat="47.30872" lon="5.01212">
        <ele>261</ele>
        <time>2012-04-01T08:23:33Z</time>
      </trkpt>
      <trkpt lat="47.30858" lon="5.01185">
        <ele>263</ele>
        <time>2012-04-01T08:23:37Z</time>
      </trkpt>
      <trkpt lat="47.30848" lon="5.01163">
        <ele>262</ele>
        <time>2012-04-01T08:23:41Z</time>
      </trkpt>
      <trkpt lat="47.30832" lon="5.0115">
        <ele>261</ele>
        <time>2012-04-01T08:23:45Z</time>
      </trkpt>
      <trkpt lat="47.30817" lon="5.01128">
        <ele>261</ele>
        <time>2012-04-01T08:23:49Z</time>
      </trkpt>
      <trkpt lat="47.30787" lon="5.01088">
        <ele>260</ele>
        <time>2012-04-01T08:23:56Z</time>
      </trkpt>
      <trkpt lat="47.30755" lon="5.01043">
        <ele>258</ele>
        <time>2012-04-01T08:24:05Z</time>
      </trkpt>
      <trkpt lat="47.30742" lon="5.01018">
        <ele>258</ele>
        <time>2012-04-01T08:24:09Z</time>
      </trkpt>
      <trkpt lat="47.30725" lon="5.00988">
        <ele>258</ele>
        <time>2012-04-01T08:24:13Z</time>
      </trkpt>
      <trkpt lat="47.30698" lon="5.0094">
        <ele>258</ele>
        <time>2012-04-01T08:24:23Z</time>
      </trkpt>
      <trkpt lat="47.30688" lon="5.00927">
        <ele>257</ele>
        <time>2012-04-01T08:24:25Z</time>
      </trkpt>
      <trkpt lat="47.30668" lon="5.00925">
        <ele>257</ele>
        <time>2012-04-01T08:24:29Z</time>
      </trkpt>
      <trkpt lat="47.3065" lon="5.00927">
        <ele>257</ele>
        <time>2012-04-01T08:24:33Z</time>
      </trkpt>
      <trkpt lat="47.30617" lon="5.00927">
        <ele>257</ele>
        <time>2012-04-01T08:24:41Z</time>
      </trkpt>
      <trkpt lat="47.30615" lon="5.00907">
        <ele>257</ele>
        <time>2012-04-01T08:24:45Z</time>
      </trkpt>
      <trkpt lat="47.30602" lon="5.00893">
        <ele>258</ele>
        <time>2012-04-01T08:24:49Z</time>
      </trkpt>
      <trkpt lat="47.30587" lon="5.00885">
        <ele>258</ele>
        <time>2012-04-01T08:24:53Z</time>
      </trkpt>
      <trkpt lat="47.30572" lon="5.00875">
        <ele>259</ele>
        <time>2012-04-01T08:24:57Z</time>
      </trkpt>
      <trkpt lat="47.30548" lon="5.0086">
        <ele>260</ele>
        <time>2012-04-01T08:25:03Z</time>
      </trkpt>
      <trkpt lat="47.30533" lon="5.00847">
        <ele>260</ele>
        <time>2012-04-01T08:25:07Z</time>
      </trkpt>
      <trkpt lat="47.3051" lon="5.00825">
        <ele>260</ele>
        <time>2012-04-01T08:25:13Z</time>
      </trkpt>
      <trkpt lat="47.30488" lon="5.00803">
        <ele>262</ele>
        <time>2012-04-01T08:25:19Z</time>
      </trkpt>
      <trkpt lat="47.30475" lon="5.00788">
        <ele>262</ele>
        <time>2012-04-01T08:25:23Z</time>
      </trkpt>
      <trkpt lat="47.30465" lon="5.00775">
        <ele>264</ele>
        <time>2012-04-01T08:25:27Z</time>
      </trkpt>
      <trkpt lat="47.30452" lon="5.00762">
        <ele>267</ele>
        <time>2012-04-01T08:25:31Z</time>
      </trkpt>
      <trkpt lat="47.30435" lon="5.00745">
        <ele>270</ele>
        <time>2012-04-01T08:25:37Z</time>
      </trkpt>
      <trkpt lat="47.30435" lon="5.0072">
        <ele>271</ele>
        <time>2012-04-01T08:25:44Z</time>
      </trkpt>
      <trkpt lat="47.30438" lon="5.007">
        <ele>270</ele>
        <time>2012-04-01T08:25:47Z</time>
      </trkpt>
      <trkpt lat="47.3044" lon="5.0068">
        <ele>269</ele>
        <time>2012-04-01T08:25:52Z</time>
      </trkpt>
      <trkpt lat="47.30447" lon="5.00657">
        <ele>269</ele>
        <time>2012-04-01T08:25:58Z</time>
      </trkpt>
      <trkpt lat="47.3046" lon="5.0064">
        <ele>268</ele>
        <time>2012-04-01T08:26:02Z</time>
      </trkpt>
      <trkpt lat="47.30475" lon="5.0062">
        <ele>268</ele>
        <time>2012-04-01T08:26:08Z</time>
      </trkpt>
      <trkpt lat="47.30478" lon="5.00598">
        <ele>269</ele>
        <time>2012-04-01T08:26:14Z</time>
      </trkpt>
      <trkpt lat="47.30477" lon="5.00572">
        <ele>269</ele>
        <time>2012-04-01T08:26:20Z</time>
      </trkpt>
      <trkpt lat="47.30477" lon="5.00547">
        <ele>270</ele>
        <time>2012-04-01T08:26:26Z</time>
      </trkpt>
      <trkpt lat="47.30475" lon="5.00505">
        <ele>273</ele>
        <time>2012-04-01T08:26:38Z</time>
      </trkpt>
      <trkpt lat="47.30465" lon="5.00485">
        <ele>275</ele>
        <time>2012-04-01T08:26:46Z</time>
      </trkpt>
      <trkpt lat="47.30447" lon="5.00485">
        <ele>275</ele>
        <time>2012-04-01T08:26:52Z</time>
      </trkpt>
      <trkpt lat="47.30428" lon="5.00483">
        <ele>275</ele>
        <time>2012-04-01T08:26:58Z</time>
      </trkpt>
      <trkpt lat="47.30402" lon="5.0048">
        <ele>275</ele>
        <time>2012-04-01T08:27:06Z</time>
      </trkpt>
      <trkpt lat="47.30388" lon="5.00488">
        <ele>274</ele>
        <time>2012-04-01T08:27:10Z</time>
      </trkpt>
      <trkpt lat="47.30373" lon="5.00488">
        <ele>274</ele>
        <time>2012-04-01T08:27:14Z</time>
      </trkpt>
      <trkpt lat="47.3036" lon="5.00483">
        <ele>275</ele>
        <time>2012-04-01T08:27:18Z</time>
      </trkpt>
      <trkpt lat="47.30342" lon="5.00477">
        <ele>276</ele>
        <time>2012-04-01T08:27:24Z</time>
      </trkpt>
      <trkpt lat="47.30323" lon="5.0047">
        <ele>277</ele>
        <time>2012-04-01T08:27:31Z</time>
      </trkpt>
      <trkpt lat="47.3031" lon="5.00462">
        <ele>278</ele>
        <time>2012-04-01T08:27:35Z</time>
      </trkpt>
      <trkpt lat="47.30295" lon="5.00447">
        <ele>279</ele>
        <time>2012-04-01T08:27:43Z</time>
      </trkpt>
      <trkpt lat="47.30293" lon="5.00425">
        <ele>282</ele>
        <time>2012-04-01T08:27:49Z</time>
      </trkpt>
      <trkpt lat="47.3029" lon="5.00398">
        <ele>286</ele>
        <time>2012-04-01T08:27:59Z</time>
      </trkpt>
      <trkpt lat="47.3028" lon="5.00385">
        <ele>288</ele>
        <time>2012-04-01T08:28:05Z</time>
      </trkpt>
      <trkpt lat="47.30267" lon="5.00378">
        <ele>289</ele>
        <time>2012-04-01T08:28:09Z</time>
      </trkpt>
      <trkpt lat="47.30207" lon="5.00342">
        <ele>287</ele>
        <time>2012-04-01T08:28:28Z</time>
      </trkpt>
      <trkpt lat="47.30185" lon="5.0033">
        <ele>286</ele>
        <time>2012-04-01T08:28:32Z</time>
      </trkpt>
      <trkpt lat="47.3017" lon="5.00322">
        <ele>286</ele>
        <time>2012-04-01T08:28:36Z</time>
      </trkpt>
      <trkpt lat="47.3016" lon="5.00308">
        <ele>287</ele>
        <time>2012-04-01T08:28:40Z</time>
      </trkpt>
      <trkpt lat="47.30143" lon="5.00293">
        <ele>289</ele>
        <time>2012-04-01T08:28:46Z</time>
      </trkpt>
      <trkpt lat="47.3013" lon="5.00283">
        <ele>289</ele>
        <time>2012-04-01T08:28:50Z</time>
      </trkpt>
      <trkpt lat="47.30115" lon="5.00275">
        <ele>289</ele>
        <time>2012-04-01T08:28:54Z</time>
      </trkpt>
      <trkpt lat="47.3009" lon="5.00262">
        <ele>289</ele>
        <time>2012-04-01T08:29:00Z</time>
      </trkpt>
      <trkpt lat="47.30075" lon="5.00247">
        <ele>287</ele>
        <time>2012-04-01T08:29:04Z</time>
      </trkpt>
      <trkpt lat="47.30058" lon="5.0023">
        <ele>287</ele>
        <time>2012-04-01T08:29:09Z</time>
      </trkpt>
      <trkpt lat="47.30018" lon="5.00193">
        <ele>290</ele>
        <time>2012-04-01T08:29:19Z</time>
      </trkpt>
      <trkpt lat="47.3001" lon="5.00175">
        <ele>291</ele>
        <time>2012-04-01T08:29:23Z</time>
      </trkpt>
      <trkpt lat="47.30012" lon="5.00155">
        <ele>293</ele>
        <time>2012-04-01T08:29:27Z</time>
      </trkpt>
      <trkpt lat="47.30013" lon="5.00127">
        <ele>294</ele>
        <time>2012-04-01T08:29:33Z</time>
      </trkpt>
      <trkpt lat="47.3" lon="5.00122">
        <ele>294</ele>
        <time>2012-04-01T08:29:37Z</time>
      </trkpt>
      <trkpt lat="47.29983" lon="5.00122">
        <ele>294</ele>
        <time>2012-04-01T08:29:41Z</time>
      </trkpt>
      <trkpt lat="47.29942" lon="5.0012">
        <ele>294</ele>
        <time>2012-04-01T08:29:51Z</time>
      </trkpt>
      <trkpt lat="47.29927" lon="5.00122">
        <ele>294</ele>
        <time>2012-04-01T08:29:55Z</time>
      </trkpt>
      <trkpt lat="47.29902" lon="5.00123">
        <ele>293</ele>
        <time>2012-04-01T08:30:02Z</time>
      </trkpt>
      <trkpt lat="47.29878" lon="5.00127">
        <ele>291</ele>
        <time>2012-04-01T08:30:06Z</time>
      </trkpt>
      <trkpt lat="47.29858" lon="5.00122">
        <ele>289</ele>
        <time>2012-04-01T08:30:08Z</time>
      </trkpt>
      <trkpt lat="47.29833" lon="5.00112">
        <ele>287</ele>
        <time>2012-04-01T08:30:12Z</time>
      </trkpt>
      <trkpt lat="47.2982" lon="5.00108">
        <ele>286</ele>
        <time>2012-04-01T08:30:14Z</time>
      </trkpt>
      <trkpt lat="47.29797" lon="5.00105">
        <ele>285</ele>
        <time>2012-04-01T08:30:18Z</time>
      </trkpt>
      <trkpt lat="47.29773" lon="5.00098">
        <ele>284</ele>
        <time>2012-04-01T08:30:23Z</time>
      </trkpt>
      <trkpt lat="47.2974" lon="5.00088">
        <ele>283</ele>
        <time>2012-04-01T08:30:29Z</time>
      </trkpt>
      <trkpt lat="47.2972" lon="5.00085">
        <ele>282</ele>
        <time>2012-04-01T08:30:31Z</time>
      </trkpt>
      <trkpt lat="47.29695" lon="5.00077">
        <ele>281</ele>
        <time>2012-04-01T08:30:35Z</time>
      </trkpt>
      <trkpt lat="47.29617" lon="5.00048">
        <ele>281</ele>
        <time>2012-04-01T08:30:52Z</time>
      </trkpt>
      <trkpt lat="47.29623" lon="5.00023">
        <ele>284</ele>
        <time>2012-04-01T08:30:58Z</time>
      </trkpt>
      <trkpt lat="47.29628" lon="4.99998">
        <ele>285</ele>
        <time>2012-04-01T08:31:04Z</time>
      </trkpt>
      <trkpt lat="47.29632" lon="4.99978">
        <ele>287</ele>
        <time>2012-04-01T08:31:10Z</time>
      </trkpt>
      <trkpt lat="47.29623" lon="4.99955">
        <ele>289</ele>
        <time>2012-04-01T08:31:18Z</time>
      </trkpt>
      <trkpt lat="47.29612" lon="4.99938">
        <ele>291</ele>
        <time>2012-04-01T08:31:27Z</time>
      </trkpt>
      <trkpt lat="47.29602" lon="4.99925">
        <ele>295</ele>
        <time>2012-04-01T08:31:33Z</time>
      </trkpt>
      <trkpt lat="47.29588" lon="4.99908">
        <ele>297</ele>
        <time>2012-04-01T08:31:41Z</time>
      </trkpt>
      <trkpt lat="47.2957" lon="4.99895">
        <ele>299</ele>
        <time>2012-04-01T08:31:49Z</time>
      </trkpt>
      <trkpt lat="47.29553" lon="4.99888">
        <ele>300</ele>
        <time>2012-04-01T08:31:55Z</time>
      </trkpt>
      <trkpt lat="47.29537" lon="4.99877">
        <ele>299</ele>
        <time>2012-04-01T08:32:01Z</time>
      </trkpt>
      <trkpt lat="47.29522" lon="4.99867">
        <ele>299</ele>
        <time>2012-04-01T08:32:07Z</time>
      </trkpt>
      <trkpt lat="47.29498" lon="4.99853">
        <ele>302</ele>
        <time>2012-04-01T08:32:16Z</time>
      </trkpt>
      <trkpt lat="47.29493" lon="4.99833">
        <ele>304</ele>
        <time>2012-04-01T08:32:24Z</time>
      </trkpt>
      <trkpt lat="47.29493" lon="4.99813">
        <ele>311</ele>
        <time>2012-04-01T08:32:31Z</time>
      </trkpt>
      <trkpt lat="47.29483" lon="4.99795">
        <ele>315</ele>
        <time>2012-04-01T08:32:42Z</time>
      </trkpt>
      <trkpt lat="47.29485" lon="4.99775">
        <ele>315</ele>
        <time>2012-04-01T08:32:54Z</time>
      </trkpt>
      <trkpt lat="47.29482" lon="4.99753">
        <ele>322</ele>
        <time>2012-04-01T08:33:18Z</time>
      </trkpt>
      <trkpt lat="47.29493" lon="4.99738">
        <ele>322</ele>
        <time>2012-04-01T08:33:31Z</time>
      </trkpt>
      <trkpt lat="47.29483" lon="4.99722">
        <ele>326</ele>
        <time>2012-04-01T08:33:41Z</time>
      </trkpt>
      <trkpt lat="47.29472" lon="4.99712">
        <ele>332</ele>
        <time>2012-04-01T08:33:49Z</time>
      </trkpt>
      <trkpt lat="47.2946" lon="4.99697">
        <ele>336</ele>
        <time>2012-04-01T08:33:59Z</time>
      </trkpt>
      <trkpt lat="47.2945" lon="4.99683">
        <ele>333</ele>
        <time>2012-04-01T08:34:05Z</time>
      </trkpt>
      <trkpt lat="47.2944" lon="4.99668">
        <ele>332</ele>
        <time>2012-04-01T08:34:11Z</time>
      </trkpt>
      <trkpt lat="47.29432" lon="4.99652">
        <ele>332</ele>
        <time>2012-04-01T08:34:17Z</time>
      </trkpt>
      <trkpt lat="47.29418" lon="4.99632">
        <ele>334</ele>
        <time>2012-04-01T08:34:27Z</time>
      </trkpt>
      <trkpt lat="47.29418" lon="4.99612">
        <ele>334</ele>
        <time>2012-04-01T08:34:35Z</time>
      </trkpt>
      <trkpt lat="47.29415" lon="4.99588">
        <ele>333</ele>
        <time>2012-04-01T08:34:43Z</time>
      </trkpt>
      <trkpt lat="47.29407" lon="4.99568">
        <ele>335</ele>
        <time>2012-04-01T08:34:53Z</time>
      </trkpt>
      <trkpt lat="47.29403" lon="4.99547">
        <ele>336</ele>
        <time>2012-04-01T08:35:01Z</time>
      </trkpt>
      <trkpt lat="47.29403" lon="4.99525">
        <ele>337</ele>
        <time>2012-04-01T08:35:09Z</time>
      </trkpt>
      <trkpt lat="47.29403" lon="4.99503">
        <ele>336</ele>
        <time>2012-04-01T08:35:17Z</time>
      </trkpt>
      <trkpt lat="47.29395" lon="4.99483">
        <ele>339</ele>
        <time>2012-04-01T08:35:27Z</time>
      </trkpt>
      <trkpt lat="47.29402" lon="4.99462">
        <ele>340</ele>
        <time>2012-04-01T08:35:37Z</time>
      </trkpt>
      <trkpt lat="47.2941" lon="4.99442">
        <ele>340</ele>
        <time>2012-04-01T08:35:47Z</time>
      </trkpt>
      <trkpt lat="47.29417" lon="4.99422">
        <ele>342</ele>
        <time>2012-04-01T08:35:57Z</time>
      </trkpt>
      <trkpt lat="47.29422" lon="4.99398">
        <ele>343</ele>
        <time>2012-04-01T08:36:07Z</time>
      </trkpt>
      <trkpt lat="47.29428" lon="4.99378">
        <ele>344</ele>
        <time>2012-04-01T08:36:15Z</time>
      </trkpt>
      <trkpt lat="47.29428" lon="4.99355">
        <ele>344</ele>
        <time>2012-04-01T08:36:25Z</time>
      </trkpt>
      <trkpt lat="47.29415" lon="4.99337">
        <ele>346</ele>
        <time>2012-04-01T08:36:33Z</time>
      </trkpt>
      <trkpt lat="47.29403" lon="4.9932">
        <ele>347</ele>
        <time>2012-04-01T08:36:40Z</time>
      </trkpt>
      <trkpt lat="47.29388" lon="4.993">
        <ele>347</ele>
        <time>2012-04-01T08:36:46Z</time>
      </trkpt>
      <trkpt lat="47.29378" lon="4.99283">
        <ele>349</ele>
        <time>2012-04-01T08:36:52Z</time>
      </trkpt>
      <trkpt lat="47.2937" lon="4.99263">
        <ele>350</ele>
        <time>2012-04-01T08:36:58Z</time>
      </trkpt>
      <trkpt lat="47.29363" lon="4.99243">
        <ele>351</ele>
        <time>2012-04-01T08:37:04Z</time>
      </trkpt>
      <trkpt lat="47.29353" lon="4.99227">
        <ele>353</ele>
        <time>2012-04-01T08:37:10Z</time>
      </trkpt>
      <trkpt lat="47.29348" lon="4.99207">
        <ele>353</ele>
        <time>2012-04-01T08:37:17Z</time>
      </trkpt>
      <trkpt lat="47.29345" lon="4.99185">
        <ele>352</ele>
        <time>2012-04-01T08:37:22Z</time>
      </trkpt>
      <trkpt lat="47.2934" lon="4.99162">
        <ele>353</ele>
        <time>2012-04-01T08:37:31Z</time>
      </trkpt>
      <trkpt lat="47.2933" lon="4.99137">
        <ele>353</ele>
        <time>2012-04-01T08:37:37Z</time>
      </trkpt>
      <trkpt lat="47.2932" lon="4.99122">
        <ele>354</ele>
        <time>2012-04-01T08:37:43Z</time>
      </trkpt>
      <trkpt lat="47.293" lon="4.99095">
        <ele>360</ele>
        <time>2012-04-01T08:37:53Z</time>
      </trkpt>
      <trkpt lat="47.29297" lon="4.99068">
        <ele>360</ele>
        <time>2012-04-01T08:37:59Z</time>
      </trkpt>
      <trkpt lat="47.29293" lon="4.99047">
        <ele>361</ele>
        <time>2012-04-01T08:38:07Z</time>
      </trkpt>
      <trkpt lat="47.29288" lon="4.99023">
        <ele>362</ele>
        <time>2012-04-01T08:38:15Z</time>
      </trkpt>
      <trkpt lat="47.29288" lon="4.99003">
        <ele>360</ele>
        <time>2012-04-01T08:38:21Z</time>
      </trkpt>
      <trkpt lat="47.29292" lon="4.98978">
        <ele>360</ele>
        <time>2012-04-01T08:38:31Z</time>
      </trkpt>
      <trkpt lat="47.29293" lon="4.98958">
        <ele>361</ele>
        <time>2012-04-01T08:38:39Z</time>
      </trkpt>
      <trkpt lat="47.29293" lon="4.98938">
        <ele>363</ele>
        <time>2012-04-01T08:38:48Z</time>
      </trkpt>
      <trkpt lat="47.29293" lon="4.9891">
        <ele>364</ele>
        <time>2012-04-01T08:38:58Z</time>
      </trkpt>
      <trkpt lat="47.2929" lon="4.98888">
        <ele>365</ele>
        <time>2012-04-01T08:39:04Z</time>
      </trkpt>
      <trkpt lat="47.29282" lon="4.98868">
        <ele>366</ele>
        <time>2012-04-01T08:39:12Z</time>
      </trkpt>
      <trkpt lat="47.29272" lon="4.98848">
        <ele>368</ele>
        <time>2012-04-01T08:39:19Z</time>
      </trkpt>
      <trkpt lat="47.29262" lon="4.98835">
        <ele>369</ele>
        <time>2012-04-01T08:39:25Z</time>
      </trkpt>
      <trkpt lat="47.29253" lon="4.98817">
        <ele>372</ele>
        <time>2012-04-01T08:39:31Z</time>
      </trkpt>
      <trkpt lat="47.29242" lon="4.98797">
        <ele>373</ele>
        <time>2012-04-01T08:39:39Z</time>
      </trkpt>
      <trkpt lat="47.29232" lon="4.9878">
        <ele>373</ele>
        <time>2012-04-01T08:39:47Z</time>
      </trkpt>
      <trkpt lat="47.29218" lon="4.98763">
        <ele>375</ele>
        <time>2012-04-01T08:39:55Z</time>
      </trkpt>
      <trkpt lat="47.2921" lon="4.98745">
        <ele>377</ele>
        <time>2012-04-01T08:40:02Z</time>
      </trkpt>
      <trkpt lat="47.29215" lon="4.98725">
        <ele>375</ele>
        <time>2012-04-01T08:40:09Z</time>
      </trkpt>
      <trkpt lat="47.29225" lon="4.98702">
        <ele>375</ele>
        <time>2012-04-01T08:40:17Z</time>
      </trkpt>
      <trkpt lat="47.29235" lon="4.98685">
        <ele>376</ele>
        <time>2012-04-01T08:40:23Z</time>
      </trkpt>
      <trkpt lat="47.29228" lon="4.98667">
        <ele>378</ele>
        <time>2012-04-01T08:40:33Z</time>
      </trkpt>
      <trkpt lat="47.29213" lon="4.98662">
        <ele>377</ele>
        <time>2012-04-01T08:40:40Z</time>
      </trkpt>
      <trkpt lat="47.29193" lon="4.98658">
        <ele>377</ele>
        <time>2012-04-01T08:40:46Z</time>
      </trkpt>
      <trkpt lat="47.29175" lon="4.98652">
        <ele>377</ele>
        <time>2012-04-01T08:40:52Z</time>
      </trkpt>
      <trkpt lat="47.29157" lon="4.98645">
        <ele>376</ele>
        <time>2012-04-01T08:40:57Z</time>
      </trkpt>
      <trkpt lat="47.29117" lon="4.98632">
        <ele>378</ele>
        <time>2012-04-01T08:41:10Z</time>
      </trkpt>
      <trkpt lat="47.29097" lon="4.98625">
        <ele>379</ele>
        <time>2012-04-01T08:41:16Z</time>
      </trkpt>
      <trkpt lat="47.29078" lon="4.98618">
        <ele>378</ele>
        <time>2012-04-01T08:41:22Z</time>
      </trkpt>
      <trkpt lat="47.29065" lon="4.98615">
        <ele>378</ele>
        <time>2012-04-01T08:41:27Z</time>
      </trkpt>
      <trkpt lat="47.2905" lon="4.98615">
        <ele>378</ele>
        <time>2012-04-01T08:41:30Z</time>
      </trkpt>
      <trkpt lat="47.29028" lon="4.98617">
        <ele>378</ele>
        <time>2012-04-01T08:41:36Z</time>
      </trkpt>
      <trkpt lat="47.29013" lon="4.98623">
        <ele>377</ele>
        <time>2012-04-01T08:41:40Z</time>
      </trkpt>
      <trkpt lat="47.28995" lon="4.9863">
        <ele>376</ele>
        <time>2012-04-01T08:41:45Z</time>
      </trkpt>
      <trkpt lat="47.28977" lon="4.98628">
        <ele>375</ele>
        <time>2012-04-01T08:41:49Z</time>
      </trkpt>
      <trkpt lat="47.28952" lon="4.98613">
        <ele>375</ele>
        <time>2012-04-01T08:41:53Z</time>
      </trkpt>
      <trkpt lat="47.28938" lon="4.98593">
        <ele>376</ele>
        <time>2012-04-01T08:41:57Z</time>
      </trkpt>
      <trkpt lat="47.28932" lon="4.98568">
        <ele>375</ele>
        <time>2012-04-01T08:42:01Z</time>
      </trkpt>
      <trkpt lat="47.28925" lon="4.98545">
        <ele>375</ele>
        <time>2012-04-01T08:42:05Z</time>
      </trkpt>
      <trkpt lat="47.28922" lon="4.98525">
        <ele>375</ele>
        <time>2012-04-01T08:42:09Z</time>
      </trkpt>
      <trkpt lat="47.28922" lon="4.98502">
        <ele>375</ele>
        <time>2012-04-01T08:42:13Z</time>
      </trkpt>
      <trkpt lat="47.28922" lon="4.98448">
        <ele>375</ele>
        <time>2012-04-01T08:42:24Z</time>
      </trkpt>
      <trkpt lat="47.28918" lon="4.98427">
        <ele>376</ele>
        <time>2012-04-01T08:42:28Z</time>
      </trkpt>
      <trkpt lat="47.28915" lon="4.98407">
        <ele>376</ele>
        <time>2012-04-01T08:42:31Z</time>
      </trkpt>
      <trkpt lat="47.28913" lon="4.98375">
        <ele>377</ele>
        <time>2012-04-01T08:42:38Z</time>
      </trkpt>
      <trkpt lat="47.28922" lon="4.98355">
        <ele>379</ele>
        <time>2012-04-01T08:42:44Z</time>
      </trkpt>
      <trkpt lat="47.2893" lon="4.98337">
        <ele>381</ele>
        <time>2012-04-01T08:42:49Z</time>
      </trkpt>
      <trkpt lat="47.28933" lon="4.98312">
        <ele>383</ele>
        <time>2012-04-01T08:42:58Z</time>
      </trkpt>
      <trkpt lat="47.28947" lon="4.98295">
        <ele>382</ele>
        <time>2012-04-01T08:43:04Z</time>
      </trkpt>
      <trkpt lat="47.28957" lon="4.98275">
        <ele>383</ele>
        <time>2012-04-01T08:43:09Z</time>
      </trkpt>
      <trkpt lat="47.28968" lon="4.98248">
        <ele>384</ele>
        <time>2012-04-01T08:43:15Z</time>
      </trkpt>
      <trkpt lat="47.28978" lon="4.9823">
        <ele>385</ele>
        <time>2012-04-01T08:43:21Z</time>
      </trkpt>
      <trkpt lat="47.28992" lon="4.98207">
        <ele>385</ele>
        <time>2012-04-01T08:43:27Z</time>
      </trkpt>
      <trkpt lat="47.29" lon="4.9819">
        <ele>385</ele>
        <time>2012-04-01T08:43:31Z</time>
      </trkpt>
      <trkpt lat="47.29008" lon="4.98173">
        <ele>387</ele>
        <time>2012-04-01T08:43:35Z</time>
      </trkpt>
      <trkpt lat="47.2903" lon="4.98177">
        <ele>388</ele>
        <time>2012-04-01T08:43:39Z</time>
      </trkpt>
      <trkpt lat="47.2905" lon="4.98192">
        <ele>386</ele>
        <time>2012-04-01T08:43:43Z</time>
      </trkpt>
      <trkpt lat="47.29063" lon="4.98212">
        <ele>385</ele>
        <time>2012-04-01T08:43:47Z</time>
      </trkpt>
      <trkpt lat="47.29073" lon="4.98225">
        <ele>386</ele>
        <time>2012-04-01T08:43:51Z</time>
      </trkpt>
      <trkpt lat="47.2909" lon="4.98237">
        <ele>384</ele>
        <time>2012-04-01T08:43:55Z</time>
      </trkpt>
      <trkpt lat="47.2911" lon="4.9825">
        <ele>381</ele>
        <time>2012-04-01T08:44:03Z</time>
      </trkpt>
      <trkpt lat="47.29123" lon="4.98258">
        <ele>382</ele>
        <time>2012-04-01T08:44:38Z</time>
      </trkpt>
      <trkpt lat="47.2914" lon="4.98258">
        <ele>384</ele>
        <time>2012-04-01T08:44:44Z</time>
      </trkpt>
      <trkpt lat="47.2916" lon="4.9826">
        <ele>387</ele>
        <time>2012-04-01T08:44:50Z</time>
      </trkpt>
      <trkpt lat="47.29173" lon="4.98265">
        <ele>387</ele>
        <time>2012-04-01T08:44:54Z</time>
      </trkpt>
      <trkpt lat="47.2919" lon="4.98265">
        <ele>386</ele>
        <time>2012-04-01T08:45:00Z</time>
      </trkpt>
      <trkpt lat="47.29217" lon="4.98252">
        <ele>384</ele>
        <time>2012-04-01T08:45:04Z</time>
      </trkpt>
      <trkpt lat="47.2924" lon="4.9825">
        <ele>381</ele>
        <time>2012-04-01T08:45:08Z</time>
      </trkpt>
      <trkpt lat="47.29272" lon="4.98252">
        <ele>379</ele>
        <time>2012-04-01T08:45:14Z</time>
      </trkpt>
      <trkpt lat="47.29285" lon="4.98257">
        <ele>379</ele>
        <time>2012-04-01T08:45:18Z</time>
      </trkpt>
      <trkpt lat="47.293" lon="4.98262">
        <ele>382</ele>
        <time>2012-04-01T08:45:22Z</time>
      </trkpt>
      <trkpt lat="47.29322" lon="4.9827">
        <ele>384</ele>
        <time>2012-04-01T08:45:28Z</time>
      </trkpt>
      <trkpt lat="47.29333" lon="4.9828">
        <ele>385</ele>
        <time>2012-04-01T08:45:32Z</time>
      </trkpt>
      <trkpt lat="47.29347" lon="4.98287">
        <ele>385</ele>
        <time>2012-04-01T08:45:36Z</time>
      </trkpt>
      <trkpt lat="47.29367" lon="4.983">
        <ele>385</ele>
        <time>2012-04-01T08:45:42Z</time>
      </trkpt>
      <trkpt lat="47.29383" lon="4.98313">
        <ele>386</ele>
        <time>2012-04-01T08:45:48Z</time>
      </trkpt>
      <trkpt lat="47.29398" lon="4.98328">
        <ele>386</ele>
        <time>2012-04-01T08:45:54Z</time>
      </trkpt>
      <trkpt lat="47.29415" lon="4.98338">
        <ele>386</ele>
        <time>2012-04-01T08:46:00Z</time>
      </trkpt>
      <trkpt lat="47.29435" lon="4.98355">
        <ele>387</ele>
        <time>2012-04-01T08:46:08Z</time>
      </trkpt>
      <trkpt lat="47.29457" lon="4.98372">
        <ele>387</ele>
        <time>2012-04-01T08:46:16Z</time>
      </trkpt>
      <trkpt lat="47.2947" lon="4.98387">
        <ele>388</ele>
        <time>2012-04-01T08:46:22Z</time>
      </trkpt>
      <trkpt lat="47.29485" lon="4.98392">
        <ele>389</ele>
        <time>2012-04-01T08:46:30Z</time>
      </trkpt>
      <trkpt lat="47.295" lon="4.98405">
        <ele>389</ele>
        <time>2012-04-01T08:46:36Z</time>
      </trkpt>
      <trkpt lat="47.29517" lon="4.98412">
        <ele>390</ele>
        <time>2012-04-01T08:46:42Z</time>
      </trkpt>
      <trkpt lat="47.29532" lon="4.98423">
        <ele>389</ele>
        <time>2012-04-01T08:46:48Z</time>
      </trkpt>
      <trkpt lat="47.29547" lon="4.98438">
        <ele>389</ele>
        <time>2012-04-01T08:46:54Z</time>
      </trkpt>
      <trkpt lat="47.29565" lon="4.98458">
        <ele>388</ele>
        <time>2012-04-01T08:47:02Z</time>
      </trkpt>
      <trkpt lat="47.29575" lon="4.98472">
        <ele>388</ele>
        <time>2012-04-01T08:47:08Z</time>
      </trkpt>
      <trkpt lat="47.2959" lon="4.9847">
        <ele>389</ele>
        <time>2012-04-01T08:47:16Z</time>
      </trkpt>
      <trkpt lat="47.29602" lon="4.98455">
        <ele>390</ele>
        <time>2012-04-01T08:47:20Z</time>
      </trkpt>
      <trkpt lat="47.29587" lon="4.98433">
        <ele>390</ele>
        <time>2012-04-01T08:47:28Z</time>
      </trkpt>
      <trkpt lat="47.29573" lon="4.98422">
        <ele>390</ele>
        <time>2012-04-01T08:47:32Z</time>
      </trkpt>
      <trkpt lat="47.2956" lon="4.98413">
        <ele>391</ele>
        <time>2012-04-01T08:47:36Z</time>
      </trkpt>
      <trkpt lat="47.29547" lon="4.984">
        <ele>390</ele>
        <time>2012-04-01T08:47:40Z</time>
      </trkpt>
      <trkpt lat="47.29543" lon="4.98378">
        <ele>389</ele>
        <time>2012-04-01T08:47:44Z</time>
      </trkpt>
      <trkpt lat="47.29533" lon="4.9836">
        <ele>388</ele>
        <time>2012-04-01T08:47:48Z</time>
      </trkpt>
      <trkpt lat="47.29513" lon="4.98348">
        <ele>387</ele>
        <time>2012-04-01T08:47:52Z</time>
      </trkpt>
      <trkpt lat="47.29483" lon="4.98328">
        <ele>386</ele>
        <time>2012-04-01T08:48:00Z</time>
      </trkpt>
      <trkpt lat="47.29462" lon="4.98313">
        <ele>385</ele>
        <time>2012-04-01T08:48:04Z</time>
      </trkpt>
      <trkpt lat="47.29447" lon="4.98293">
        <ele>384</ele>
        <time>2012-04-01T08:48:08Z</time>
      </trkpt>
      <trkpt lat="47.29427" lon="4.98282">
        <ele>384</ele>
        <time>2012-04-01T08:48:12Z</time>
      </trkpt>
      <trkpt lat="47.29415" lon="4.98268">
        <ele>385</ele>
        <time>2012-04-01T08:48:18Z</time>
      </trkpt>
      <trkpt lat="47.29407" lon="4.98245">
        <ele>389</ele>
        <time>2012-04-01T08:48:24Z</time>
      </trkpt>
      <trkpt lat="47.29397" lon="4.9823">
        <ele>389</ele>
        <time>2012-04-01T08:48:28Z</time>
      </trkpt>
      <trkpt lat="47.29383" lon="4.98215">
        <ele>388</ele>
        <time>2012-04-01T08:48:32Z</time>
      </trkpt>
      <trkpt lat="47.2937" lon="4.98197">
        <ele>388</ele>
        <time>2012-04-01T08:48:37Z</time>
      </trkpt>
      <trkpt lat="47.29365" lon="4.98173">
        <ele>388</ele>
        <time>2012-04-01T08:48:41Z</time>
      </trkpt>
      <trkpt lat="47.2935" lon="4.98153">
        <ele>388</ele>
        <time>2012-04-01T08:48:47Z</time>
      </trkpt>
      <trkpt lat="47.29338" lon="4.98142">
        <ele>388</ele>
        <time>2012-04-01T08:48:49Z</time>
      </trkpt>
      <trkpt lat="47.29325" lon="4.98122">
        <ele>387</ele>
        <time>2012-04-01T08:48:53Z</time>
      </trkpt>
      <trkpt lat="47.29312" lon="4.98098">
        <ele>386</ele>
        <time>2012-04-01T08:48:57Z</time>
      </trkpt>
      <trkpt lat="47.293" lon="4.98075">
        <ele>385</ele>
        <time>2012-04-01T08:49:01Z</time>
      </trkpt>
      <trkpt lat="47.29293" lon="4.98055">
        <ele>386</ele>
        <time>2012-04-01T08:49:06Z</time>
      </trkpt>
      <trkpt lat="47.29283" lon="4.9803">
        <ele>386</ele>
        <time>2012-04-01T08:49:12Z</time>
      </trkpt>
      <trkpt lat="47.29273" lon="4.98013">
        <ele>387</ele>
        <time>2012-04-01T08:49:16Z</time>
      </trkpt>
      <trkpt lat="47.2926" lon="4.97983">
        <ele>388</ele>
        <time>2012-04-01T08:49:22Z</time>
      </trkpt>
      <trkpt lat="47.29243" lon="4.97952">
        <ele>387</ele>
        <time>2012-04-01T08:49:28Z</time>
      </trkpt>
      <trkpt lat="47.29238" lon="4.97932">
        <ele>388</ele>
        <time>2012-04-01T08:49:32Z</time>
      </trkpt>
      <trkpt lat="47.29243" lon="4.97907">
        <ele>388</ele>
        <time>2012-04-01T08:49:38Z</time>
      </trkpt>
      <trkpt lat="47.29253" lon="4.97893">
        <ele>388</ele>
        <time>2012-04-01T08:49:43Z</time>
      </trkpt>
      <trkpt lat="47.29265" lon="4.97882">
        <ele>387</ele>
        <time>2012-04-01T08:49:47Z</time>
      </trkpt>
      <trkpt lat="47.29293" lon="4.97862">
        <ele>389</ele>
        <time>2012-04-01T08:49:53Z</time>
      </trkpt>
      <trkpt lat="47.29315" lon="4.97862">
        <ele>388</ele>
        <time>2012-04-01T08:49:59Z</time>
      </trkpt>
      <trkpt lat="47.2934" lon="4.97862">
        <ele>389</ele>
        <time>2012-04-01T08:50:05Z</time>
      </trkpt>
      <trkpt lat="47.29355" lon="4.9786">
        <ele>389</ele>
        <time>2012-04-01T08:50:09Z</time>
      </trkpt>
      <trkpt lat="47.29363" lon="4.9784">
        <ele>387</ele>
        <time>2012-04-01T08:50:15Z</time>
      </trkpt>
      <trkpt lat="47.29368" lon="4.97813">
        <ele>386</ele>
        <time>2012-04-01T08:50:20Z</time>
      </trkpt>
      <trkpt lat="47.29365" lon="4.97792">
        <ele>387</ele>
        <time>2012-04-01T08:50:28Z</time>
      </trkpt>
      <trkpt lat="47.2935" lon="4.97797">
        <ele>385</ele>
        <time>2012-04-01T08:50:38Z</time>
      </trkpt>
      <trkpt lat="47.29343" lon="4.97817">
        <ele>379</ele>
        <time>2012-04-01T08:50:47Z</time>
      </trkpt>
      <trkpt lat="47.2933" lon="4.97808">
        <ele>377</ele>
        <time>2012-04-01T08:50:51Z</time>
      </trkpt>
      <trkpt lat="47.2931" lon="4.97803">
        <ele>372</ele>
        <time>2012-04-01T08:50:57Z</time>
      </trkpt>
      <trkpt lat="47.29295" lon="4.97802">
        <ele>368</ele>
        <time>2012-04-01T08:51:04Z</time>
      </trkpt>
      <trkpt lat="47.29278" lon="4.97788">
        <ele>364</ele>
        <time>2012-04-01T08:51:10Z</time>
      </trkpt>
      <trkpt lat="47.29263" lon="4.9778">
        <ele>362</ele>
        <time>2012-04-01T08:51:14Z</time>
      </trkpt>
      <trkpt lat="47.2925" lon="4.97768">
        <ele>359</ele>
        <time>2012-04-01T08:51:20Z</time>
      </trkpt>
      <trkpt lat="47.29232" lon="4.97755">
        <ele>358</ele>
        <time>2012-04-01T08:51:26Z</time>
      </trkpt>
      <trkpt lat="47.29205" lon="4.97735">
        <ele>357</ele>
        <time>2012-04-01T08:51:34Z</time>
      </trkpt>
      <trkpt lat="47.29185" lon="4.97718">
        <ele>355</ele>
        <time>2012-04-01T08:51:40Z</time>
      </trkpt>
      <trkpt lat="47.29173" lon="4.97708">
        <ele>354</ele>
        <time>2012-04-01T08:51:44Z</time>
      </trkpt>
      <trkpt lat="47.29167" lon="4.97687">
        <ele>350</ele>
        <time>2012-04-01T08:51:52Z</time>
      </trkpt>
      <trkpt lat="47.29152" lon="4.97647">
        <ele>346</ele>
        <time>2012-04-01T08:52:00Z</time>
      </trkpt>
      <trkpt lat="47.29138" lon="4.97625">
        <ele>344</ele>
        <time>2012-04-01T08:52:05Z</time>
      </trkpt>
      <trkpt lat="47.29122" lon="4.97605">
        <ele>343</ele>
        <time>2012-04-01T08:52:09Z</time>
      </trkpt>
      <trkpt lat="47.29108" lon="4.97597">
        <ele>340</ele>
        <time>2012-04-01T08:52:13Z</time>
      </trkpt>
      <trkpt lat="47.29092" lon="4.97588">
        <ele>335</ele>
        <time>2012-04-01T08:52:19Z</time>
      </trkpt>
      <trkpt lat="47.2908" lon="4.97578">
        <ele>330</ele>
        <time>2012-04-01T08:52:23Z</time>
      </trkpt>
      <trkpt lat="47.2906" lon="4.97572">
        <ele>328</ele>
        <time>2012-04-01T08:52:27Z</time>
      </trkpt>
      <trkpt lat="47.29042" lon="4.97565">
        <ele>327</ele>
        <time>2012-04-01T08:52:33Z</time>
      </trkpt>
      <trkpt lat="47.29038" lon="4.97543">
        <ele>332</ele>
        <time>2012-04-01T08:52:50Z</time>
      </trkpt>
      <trkpt lat="47.29045" lon="4.97522">
        <ele>331</ele>
        <time>2012-04-01T08:52:57Z</time>
      </trkpt>
      <trkpt lat="47.29053" lon="4.97502">
        <ele>334</ele>
        <time>2012-04-01T08:53:01Z</time>
      </trkpt>
      <trkpt lat="47.2906" lon="4.9748">
        <ele>334</ele>
        <time>2012-04-01T08:53:07Z</time>
      </trkpt>
      <trkpt lat="47.2907" lon="4.97455">
        <ele>335</ele>
        <time>2012-04-01T08:53:13Z</time>
      </trkpt>
      <trkpt lat="47.2908" lon="4.97432">
        <ele>339</ele>
        <time>2012-04-01T08:53:20Z</time>
      </trkpt>
      <trkpt lat="47.2909" lon="4.97413">
        <ele>337</ele>
        <time>2012-04-01T08:53:26Z</time>
      </trkpt>
      <trkpt lat="47.29097" lon="4.97395">
        <ele>337</ele>
        <time>2012-04-01T08:53:30Z</time>
      </trkpt>
      <trkpt lat="47.2911" lon="4.9738">
        <ele>337</ele>
        <time>2012-04-01T08:53:36Z</time>
      </trkpt>
      <trkpt lat="47.29123" lon="4.97363">
        <ele>338</ele>
        <time>2012-04-01T08:53:42Z</time>
      </trkpt>
      <trkpt lat="47.29137" lon="4.97337">
        <ele>339</ele>
        <time>2012-04-01T08:53:51Z</time>
      </trkpt>
      <trkpt lat="47.29148" lon="4.97318">
        <ele>342</ele>
        <time>2012-04-01T08:53:57Z</time>
      </trkpt>
      <trkpt lat="47.29162" lon="4.97297">
        <ele>345</ele>
        <time>2012-04-01T08:54:03Z</time>
      </trkpt>
      <trkpt lat="47.29173" lon="4.97277">
        <ele>345</ele>
        <time>2012-04-01T08:54:09Z</time>
      </trkpt>
      <trkpt lat="47.29185" lon="4.97255">
        <ele>348</ele>
        <time>2012-04-01T08:54:18Z</time>
      </trkpt>
      <trkpt lat="47.29198" lon="4.97242">
        <ele>350</ele>
        <time>2012-04-01T08:54:23Z</time>
      </trkpt>
      <trkpt lat="47.29213" lon="4.9723">
        <ele>351</ele>
        <time>2012-04-01T08:54:29Z</time>
      </trkpt>
      <trkpt lat="47.29233" lon="4.97218">
        <ele>353</ele>
        <time>2012-04-01T08:54:35Z</time>
      </trkpt>
      <trkpt lat="47.29247" lon="4.97205">
        <ele>355</ele>
        <time>2012-04-01T08:54:41Z</time>
      </trkpt>
      <trkpt lat="47.2926" lon="4.97188">
        <ele>354</ele>
        <time>2012-04-01T08:54:47Z</time>
      </trkpt>
      <trkpt lat="47.2925" lon="4.97172">
        <ele>353</ele>
        <time>2012-04-01T08:55:09Z</time>
      </trkpt>
      <trkpt lat="47.29227" lon="4.97175">
        <ele>358</ele>
        <time>2012-04-01T08:55:26Z</time>
      </trkpt>
      <trkpt lat="47.29213" lon="4.97183">
        <ele>360</ele>
        <time>2012-04-01T08:55:32Z</time>
      </trkpt>
      <trkpt lat="47.29193" lon="4.97193">
        <ele>361</ele>
        <time>2012-04-01T08:55:42Z</time>
      </trkpt>
      <trkpt lat="47.2918" lon="4.97203">
        <ele>364</ele>
        <time>2012-04-01T08:55:48Z</time>
      </trkpt>
      <trkpt lat="47.2917" lon="4.97218">
        <ele>370</ele>
        <time>2012-04-01T08:55:55Z</time>
      </trkpt>
      <trkpt lat="47.29158" lon="4.97233">
        <ele>370</ele>
        <time>2012-04-01T08:56:00Z</time>
      </trkpt>
      <trkpt lat="47.29143" lon="4.97248">
        <ele>370</ele>
        <time>2012-04-01T08:56:06Z</time>
      </trkpt>
      <trkpt lat="47.29132" lon="4.97262">
        <ele>368</ele>
        <time>2012-04-01T08:56:10Z</time>
      </trkpt>
      <trkpt lat="47.29123" lon="4.97282">
        <ele>368</ele>
        <time>2012-04-01T08:56:15Z</time>
      </trkpt>
      <trkpt lat="47.29108" lon="4.97303">
        <ele>363</ele>
        <time>2012-04-01T08:56:19Z</time>
      </trkpt>
      <trkpt lat="47.29085" lon="4.97318">
        <ele>361</ele>
        <time>2012-04-01T08:56:23Z</time>
      </trkpt>
      <trkpt lat="47.29062" lon="4.97335">
        <ele>360</ele>
        <time>2012-04-01T08:56:27Z</time>
      </trkpt>
      <trkpt lat="47.2905" lon="4.97353">
        <ele>363</ele>
        <time>2012-04-01T08:56:31Z</time>
      </trkpt>
      <trkpt lat="47.29038" lon="4.97378">
        <ele>366</ele>
        <time>2012-04-01T08:56:37Z</time>
      </trkpt>
      <trkpt lat="47.29025" lon="4.97403">
        <ele>365</ele>
        <time>2012-04-01T08:56:41Z</time>
      </trkpt>
      <trkpt lat="47.29015" lon="4.97417">
        <ele>365</ele>
        <time>2012-04-01T08:56:43Z</time>
      </trkpt>
      <trkpt lat="47.29" lon="4.97443">
        <ele>365</ele>
        <time>2012-04-01T08:56:46Z</time>
      </trkpt>
      <trkpt lat="47.28978" lon="4.97478">
        <ele>367</ele>
        <time>2012-04-01T08:56:52Z</time>
      </trkpt>
      <trkpt lat="47.28955" lon="4.97505">
        <ele>364</ele>
        <time>2012-04-01T08:56:56Z</time>
      </trkpt>
      <trkpt lat="47.28943" lon="4.97518">
        <ele>360</ele>
        <time>2012-04-01T08:56:58Z</time>
      </trkpt>
      <trkpt lat="47.28918" lon="4.9755">
        <ele>355</ele>
        <time>2012-04-01T08:57:04Z</time>
      </trkpt>
      <trkpt lat="47.28893" lon="4.97577">
        <ele>356</ele>
        <time>2012-04-01T08:57:08Z</time>
      </trkpt>
      <trkpt lat="47.2888" lon="4.97597">
        <ele>357</ele>
        <time>2012-04-01T08:57:12Z</time>
      </trkpt>
      <trkpt lat="47.2886" lon="4.97618">
        <ele>355</ele>
        <time>2012-04-01T08:57:18Z</time>
      </trkpt>
      <trkpt lat="47.28847" lon="4.97632">
        <ele>356</ele>
        <time>2012-04-01T08:57:22Z</time>
      </trkpt>
      <trkpt lat="47.28833" lon="4.9765">
        <ele>358</ele>
        <time>2012-04-01T08:57:26Z</time>
      </trkpt>
      <trkpt lat="47.28818" lon="4.97668">
        <ele>361</ele>
        <time>2012-04-01T08:57:30Z</time>
      </trkpt>
      <trkpt lat="47.288" lon="4.97687">
        <ele>361</ele>
        <time>2012-04-01T08:57:34Z</time>
      </trkpt>
      <trkpt lat="47.28763" lon="4.97732">
        <ele>357</ele>
        <time>2012-04-01T08:57:42Z</time>
      </trkpt>
      <trkpt lat="47.28743" lon="4.97757">
        <ele>355</ele>
        <time>2012-04-01T08:57:46Z</time>
      </trkpt>
      <trkpt lat="47.28732" lon="4.97787">
        <ele>355</ele>
        <time>2012-04-01T08:57:50Z</time>
      </trkpt>
      <trkpt lat="47.28717" lon="4.97808">
        <ele>351</ele>
        <time>2012-04-01T08:57:52Z</time>
      </trkpt>
      <trkpt lat="47.28702" lon="4.97825">
        <ele>349</ele>
        <time>2012-04-01T08:57:56Z</time>
      </trkpt>
      <trkpt lat="47.2868" lon="4.97845">
        <ele>348</ele>
        <time>2012-04-01T08:58:00Z</time>
      </trkpt>
      <trkpt lat="47.28668" lon="4.97855">
        <ele>349</ele>
        <time>2012-04-01T08:58:02Z</time>
      </trkpt>
      <trkpt lat="47.28648" lon="4.97867">
        <ele>345</ele>
        <time>2012-04-01T08:58:06Z</time>
      </trkpt>
      <trkpt lat="47.28628" lon="4.97885">
        <ele>344</ele>
        <time>2012-04-01T08:58:10Z</time>
      </trkpt>
      <trkpt lat="47.28612" lon="4.979">
        <ele>343</ele>
        <time>2012-04-01T08:58:14Z</time>
      </trkpt>
      <trkpt lat="47.2859" lon="4.97915">
        <ele>341</ele>
        <time>2012-04-01T08:58:18Z</time>
      </trkpt>
      <trkpt lat="47.28578" lon="4.97927">
        <ele>342</ele>
        <time>2012-04-01T08:58:20Z</time>
      </trkpt>
      <trkpt lat="47.28557" lon="4.97953">
        <ele>344</ele>
        <time>2012-04-01T08:58:23Z</time>
      </trkpt>
      <trkpt lat="47.28533" lon="4.97978">
        <ele>343</ele>
        <time>2012-04-01T08:58:28Z</time>
      </trkpt>
      <trkpt lat="47.28517" lon="4.9799">
        <ele>341</ele>
        <time>2012-04-01T08:58:32Z</time>
      </trkpt>
      <trkpt lat="47.28495" lon="4.97993">
        <ele>336</ele>
        <time>2012-04-01T08:58:38Z</time>
      </trkpt>
      <trkpt lat="47.28478" lon="4.98003">
        <ele>336</ele>
        <time>2012-04-01T08:58:42Z</time>
      </trkpt>
      <trkpt lat="47.2846" lon="4.9802">
        <ele>334</ele>
        <time>2012-04-01T08:58:46Z</time>
      </trkpt>
      <trkpt lat="47.28445" lon="4.98032">
        <ele>331</ele>
        <time>2012-04-01T08:58:52Z</time>
      </trkpt>
      <trkpt lat="47.28427" lon="4.98038">
        <ele>329</ele>
        <time>2012-04-01T08:58:58Z</time>
      </trkpt>
      <trkpt lat="47.28412" lon="4.98038">
        <ele>328</ele>
        <time>2012-04-01T08:59:04Z</time>
      </trkpt>
      <trkpt lat="47.28398" lon="4.98032">
        <ele>329</ele>
        <time>2012-04-01T08:59:10Z</time>
      </trkpt>
      <trkpt lat="47.28388" lon="4.98017">
        <ele>329</ele>
        <time>2012-04-01T08:59:18Z</time>
      </trkpt>
      <trkpt lat="47.28392" lon="4.97995">
        <ele>329</ele>
        <time>2012-04-01T08:59:26Z</time>
      </trkpt>
      <trkpt lat="47.28377" lon="4.98002">
        <ele>329</ele>
        <time>2012-04-01T08:59:34Z</time>
      </trkpt>
      <trkpt lat="47.28358" lon="4.98003">
        <ele>327</ele>
        <time>2012-04-01T08:59:40Z</time>
      </trkpt>
      <trkpt lat="47.28343" lon="4.97988">
        <ele>325</ele>
        <time>2012-04-01T08:59:44Z</time>
      </trkpt>
      <trkpt lat="47.28232" lon="4.97883">
        <ele>314</ele>
        <time>2012-04-01T09:00:04Z</time>
      </trkpt>
      <trkpt lat="47.28217" lon="4.97875">
        <ele>313</ele>
        <time>2012-04-01T09:00:06Z</time>
      </trkpt>
      <trkpt lat="47.28202" lon="4.9787">
        <ele>312</ele>
        <time>2012-04-01T09:00:08Z</time>
      </trkpt>
      <trkpt lat="47.28168" lon="4.9787">
        <ele>309</ele>
        <time>2012-04-01T09:00:13Z</time>
      </trkpt>
      <trkpt lat="47.28147" lon="4.97858">
        <ele>307</ele>
        <time>2012-04-01T09:00:17Z</time>
      </trkpt>
      <trkpt lat="47.28135" lon="4.97832">
        <ele>306</ele>
        <time>2012-04-01T09:00:21Z</time>
      </trkpt>
      <trkpt lat="47.28123" lon="4.97813">
        <ele>306</ele>
        <time>2012-04-01T09:00:25Z</time>
      </trkpt>
      <trkpt lat="47.28108" lon="4.97795">
        <ele>306</ele>
        <time>2012-04-01T09:00:29Z</time>
      </trkpt>
      <trkpt lat="47.2808" lon="4.9776">
        <ele>309</ele>
        <time>2012-04-01T09:00:39Z</time>
      </trkpt>
      <trkpt lat="47.28057" lon="4.97732">
        <ele>311</ele>
        <time>2012-04-01T09:00:49Z</time>
      </trkpt>
      <trkpt lat="47.28033" lon="4.97702">
        <ele>313</ele>
        <time>2012-04-01T09:01:01Z</time>
      </trkpt>
      <trkpt lat="47.28023" lon="4.97682">
        <ele>316</ele>
        <time>2012-04-01T09:01:09Z</time>
      </trkpt>
      <trkpt lat="47.2802" lon="4.9766">
        <ele>320</ele>
        <time>2012-04-01T09:01:17Z</time>
      </trkpt>
      <trkpt lat="47.28022" lon="4.97635">
        <ele>323</ele>
        <time>2012-04-01T09:01:25Z</time>
      </trkpt>
      <trkpt lat="47.28027" lon="4.97613">
        <ele>328</ele>
        <time>2012-04-01T09:01:34Z</time>
      </trkpt>
      <trkpt lat="47.28033" lon="4.97588">
        <ele>328</ele>
        <time>2012-04-01T09:01:42Z</time>
      </trkpt>
      <trkpt lat="47.28038" lon="4.97562">
        <ele>328</ele>
        <time>2012-04-01T09:01:50Z</time>
      </trkpt>
      <trkpt lat="47.28043" lon="4.97533">
        <ele>332</ele>
        <time>2012-04-01T09:01:58Z</time>
      </trkpt>
      <trkpt lat="47.28047" lon="4.9751">
        <ele>334</ele>
        <time>2012-04-01T09:02:06Z</time>
      </trkpt>
      <trkpt lat="47.28048" lon="4.97483">
        <ele>337</ele>
        <time>2012-04-01T09:02:14Z</time>
      </trkpt>
      <trkpt lat="47.28052" lon="4.97463">
        <ele>337</ele>
        <time>2012-04-01T09:02:20Z</time>
      </trkpt>
      <trkpt lat="47.28055" lon="4.97433">
        <ele>337</ele>
        <time>2012-04-01T09:02:30Z</time>
      </trkpt>
      <trkpt lat="47.28058" lon="4.97413">
        <ele>338</ele>
        <time>2012-04-01T09:02:37Z</time>
      </trkpt>
      <trkpt lat="47.2806" lon="4.97393">
        <ele>340</ele>
        <time>2012-04-01T09:02:43Z</time>
      </trkpt>
      <trkpt lat="47.28063" lon="4.97373">
        <ele>340</ele>
        <time>2012-04-01T09:02:49Z</time>
      </trkpt>
      <trkpt lat="47.28067" lon="4.97348">
        <ele>342</ele>
        <time>2012-04-01T09:02:58Z</time>
      </trkpt>
      <trkpt lat="47.28068" lon="4.97328">
        <ele>343</ele>
        <time>2012-04-01T09:03:04Z</time>
      </trkpt>
      <trkpt lat="47.28072" lon="4.97297">
        <ele>345</ele>
        <time>2012-04-01T09:03:14Z</time>
      </trkpt>
      <trkpt lat="47.28077" lon="4.97268">
        <ele>348</ele>
        <time>2012-04-01T09:03:22Z</time>
      </trkpt>
      <trkpt lat="47.2808" lon="4.97243">
        <ele>349</ele>
        <time>2012-04-01T09:03:30Z</time>
      </trkpt>
      <trkpt lat="47.28083" lon="4.97213">
        <ele>350</ele>
        <time>2012-04-01T09:03:40Z</time>
      </trkpt>
      <trkpt lat="47.2809" lon="4.97187">
        <ele>348</ele>
        <time>2012-04-01T09:03:49Z</time>
      </trkpt>
      <trkpt lat="47.28092" lon="4.97165">
        <ele>348</ele>
        <time>2012-04-01T09:03:55Z</time>
      </trkpt>
      <trkpt lat="47.28093" lon="4.97143">
        <ele>348</ele>
        <time>2012-04-01T09:04:01Z</time>
      </trkpt>
      <trkpt lat="47.28097" lon="4.97118">
        <ele>351</ele>
        <time>2012-04-01T09:04:10Z</time>
      </trkpt>
      <trkpt lat="47.28103" lon="4.97062">
        <ele>354</ele>
        <time>2012-04-01T09:04:28Z</time>
      </trkpt>
      <trkpt lat="47.28102" lon="4.97038">
        <ele>355</ele>
        <time>2012-04-01T09:04:37Z</time>
      </trkpt>
      <trkpt lat="47.28103" lon="4.97013">
        <ele>358</ele>
        <time>2012-04-01T09:04:45Z</time>
      </trkpt>
      <trkpt lat="47.28115" lon="4.96997">
        <ele>362</ele>
        <time>2012-04-01T09:04:53Z</time>
      </trkpt>
      <trkpt lat="47.28125" lon="4.96973">
        <ele>364</ele>
        <time>2012-04-01T09:05:01Z</time>
      </trkpt>
      <trkpt lat="47.2813" lon="4.96948">
        <ele>364</ele>
        <time>2012-04-01T09:05:09Z</time>
      </trkpt>
      <trkpt lat="47.28135" lon="4.96927">
        <ele>364</ele>
        <time>2012-04-01T09:05:17Z</time>
      </trkpt>
      <trkpt lat="47.28142" lon="4.96888">
        <ele>367</ele>
        <time>2012-04-01T09:05:29Z</time>
      </trkpt>
      <trkpt lat="47.28147" lon="4.96868">
        <ele>368</ele>
        <time>2012-04-01T09:05:37Z</time>
      </trkpt>
      <trkpt lat="47.2815" lon="4.96843">
        <ele>368</ele>
        <time>2012-04-01T09:05:45Z</time>
      </trkpt>
      <trkpt lat="47.28155" lon="4.96813">
        <ele>367</ele>
        <time>2012-04-01T09:05:53Z</time>
      </trkpt>
      <trkpt lat="47.28158" lon="4.96793">
        <ele>369</ele>
        <time>2012-04-01T09:05:59Z</time>
      </trkpt>
      <trkpt lat="47.28163" lon="4.96768">
        <ele>370</ele>
        <time>2012-04-01T09:06:08Z</time>
      </trkpt>
      <trkpt lat="47.2817" lon="4.96743">
        <ele>370</ele>
        <time>2012-04-01T09:06:15Z</time>
      </trkpt>
      <trkpt lat="47.28177" lon="4.96718">
        <ele>371</ele>
        <time>2012-04-01T09:06:23Z</time>
      </trkpt>
      <trkpt lat="47.28177" lon="4.96698">
        <ele>372</ele>
        <time>2012-04-01T09:06:29Z</time>
      </trkpt>
      <trkpt lat="47.28163" lon="4.96695">
        <ele>376</ele>
        <time>2012-04-01T09:06:39Z</time>
      </trkpt>
      <trkpt lat="47.28155" lon="4.96717">
        <ele>384</ele>
        <time>2012-04-01T09:06:47Z</time>
      </trkpt>
      <trkpt lat="47.28148" lon="4.96748">
        <ele>393</ele>
        <time>2012-04-01T09:06:57Z</time>
      </trkpt>
      <trkpt lat="47.28137" lon="4.96768">
        <ele>394</ele>
        <time>2012-04-01T09:07:05Z</time>
      </trkpt>
      <trkpt lat="47.28128" lon="4.96788">
        <ele>395</ele>
        <time>2012-04-01T09:07:13Z</time>
      </trkpt>
      <trkpt lat="47.2812" lon="4.9681">
        <ele>396</ele>
        <time>2012-04-01T09:07:20Z</time>
      </trkpt>
      <trkpt lat="47.28105" lon="4.96838">
        <ele>394</ele>
        <time>2012-04-01T09:07:31Z</time>
      </trkpt>
      <trkpt lat="47.28093" lon="4.96858">
        <ele>392</ele>
        <time>2012-04-01T09:07:41Z</time>
      </trkpt>
      <trkpt lat="47.28087" lon="4.9688">
        <ele>394</ele>
        <time>2012-04-01T09:07:49Z</time>
      </trkpt>
      <trkpt lat="47.28077" lon="4.969">
        <ele>395</ele>
        <time>2012-04-01T09:07:57Z</time>
      </trkpt>
      <trkpt lat="47.28065" lon="4.96913">
        <ele>393</ele>
        <time>2012-04-01T09:08:03Z</time>
      </trkpt>
      <trkpt lat="47.28053" lon="4.96923">
        <ele>392</ele>
        <time>2012-04-01T09:08:07Z</time>
      </trkpt>
      <trkpt lat="47.2804" lon="4.96928">
        <ele>391</ele>
        <time>2012-04-01T09:08:15Z</time>
      </trkpt>
      <trkpt lat="47.28027" lon="4.96933">
        <ele>392</ele>
        <time>2012-04-01T09:08:20Z</time>
      </trkpt>
      <trkpt lat="47.28013" lon="4.96943">
        <ele>400</ele>
        <time>2012-04-01T09:08:33Z</time>
      </trkpt>
      <trkpt lat="47.28003" lon="4.9696">
        <ele>405</ele>
        <time>2012-04-01T09:08:41Z</time>
      </trkpt>
      <trkpt lat="47.27998" lon="4.96983">
        <ele>408</ele>
        <time>2012-04-01T09:08:49Z</time>
      </trkpt>
      <trkpt lat="47.27993" lon="4.97007">
        <ele>411</ele>
        <time>2012-04-01T09:08:57Z</time>
      </trkpt>
      <trkpt lat="47.27988" lon="4.97027">
        <ele>410</ele>
        <time>2012-04-01T09:09:03Z</time>
      </trkpt>
      <trkpt lat="47.27985" lon="4.97047">
        <ele>408</ele>
        <time>2012-04-01T09:09:09Z</time>
      </trkpt>
      <trkpt lat="47.27978" lon="4.97067">
        <ele>408</ele>
        <time>2012-04-01T09:09:17Z</time>
      </trkpt>
      <trkpt lat="47.2797" lon="4.97087">
        <ele>408</ele>
        <time>2012-04-01T09:09:25Z</time>
      </trkpt>
      <trkpt lat="47.27963" lon="4.97105">
        <ele>409</ele>
        <time>2012-04-01T09:09:31Z</time>
      </trkpt>
      <trkpt lat="47.27955" lon="4.97128">
        <ele>410</ele>
        <time>2012-04-01T09:09:39Z</time>
      </trkpt>
      <trkpt lat="47.27945" lon="4.97148">
        <ele>409</ele>
        <time>2012-04-01T09:09:47Z</time>
      </trkpt>
      <trkpt lat="47.27933" lon="4.97173">
        <ele>407</ele>
        <time>2012-04-01T09:09:57Z</time>
      </trkpt>
      <trkpt lat="47.27923" lon="4.9719">
        <ele>404</ele>
        <time>2012-04-01T09:10:05Z</time>
      </trkpt>
      <trkpt lat="47.27912" lon="4.97205">
        <ele>404</ele>
        <time>2012-04-01T09:10:14Z</time>
      </trkpt>
      <trkpt lat="47.27895" lon="4.97222">
        <ele>405</ele>
        <time>2012-04-01T09:10:22Z</time>
      </trkpt>
      <trkpt lat="47.27882" lon="4.9723">
        <ele>406</ele>
        <time>2012-04-01T09:10:28Z</time>
      </trkpt>
      <trkpt lat="47.27868" lon="4.97243">
        <ele>409</ele>
        <time>2012-04-01T09:10:36Z</time>
      </trkpt>
      <trkpt lat="47.27848" lon="4.97257">
        <ele>410</ele>
        <time>2012-04-01T09:10:46Z</time>
      </trkpt>
      <trkpt lat="47.27833" lon="4.97267">
        <ele>412</ele>
        <time>2012-04-01T09:10:55Z</time>
      </trkpt>
      <trkpt lat="47.27818" lon="4.97273">
        <ele>412</ele>
        <time>2012-04-01T09:11:03Z</time>
      </trkpt>
      <trkpt lat="47.27805" lon="4.97277">
        <ele>412</ele>
        <time>2012-04-01T09:11:09Z</time>
      </trkpt>
      <trkpt lat="47.27788" lon="4.97273">
        <ele>412</ele>
        <time>2012-04-01T09:11:17Z</time>
      </trkpt>
      <trkpt lat="47.27773" lon="4.97265">
        <ele>411</ele>
        <time>2012-04-01T09:11:25Z</time>
      </trkpt>
      <trkpt lat="47.27758" lon="4.97252">
        <ele>412</ele>
        <time>2012-04-01T09:11:33Z</time>
      </trkpt>
      <trkpt lat="47.27748" lon="4.97238">
        <ele>412</ele>
        <time>2012-04-01T09:11:41Z</time>
      </trkpt>
      <trkpt lat="47.27738" lon="4.97222">
        <ele>413</ele>
        <time>2012-04-01T09:11:49Z</time>
      </trkpt>
      <trkpt lat="47.2773" lon="4.97203">
        <ele>415</ele>
        <time>2012-04-01T09:11:57Z</time>
      </trkpt>
      <trkpt lat="47.27728" lon="4.97182">
        <ele>416</ele>
        <time>2012-04-01T09:12:05Z</time>
      </trkpt>
      <trkpt lat="47.27735" lon="4.97163">
        <ele>418</ele>
        <time>2012-04-01T09:12:13Z</time>
      </trkpt>
      <trkpt lat="47.27745" lon="4.9715">
        <ele>419</ele>
        <time>2012-04-01T09:12:21Z</time>
      </trkpt>
      <trkpt lat="47.27757" lon="4.97133">
        <ele>421</ele>
        <time>2012-04-01T09:12:29Z</time>
      </trkpt>
      <trkpt lat="47.27772" lon="4.97118">
        <ele>423</ele>
        <time>2012-04-01T09:12:37Z</time>
      </trkpt>
      <trkpt lat="47.27782" lon="4.97103">
        <ele>426</ele>
        <time>2012-04-01T09:12:45Z</time>
      </trkpt>
      <trkpt lat="47.2779" lon="4.97085">
        <ele>426</ele>
        <time>2012-04-01T09:12:50Z</time>
      </trkpt>
      <trkpt lat="47.278" lon="4.97062">
        <ele>427</ele>
        <time>2012-04-01T09:12:59Z</time>
      </trkpt>
      <trkpt lat="47.27807" lon="4.97035">
        <ele>427</ele>
        <time>2012-04-01T09:13:07Z</time>
      </trkpt>
      <trkpt lat="47.27813" lon="4.97012">
        <ele>427</ele>
        <time>2012-04-01T09:13:15Z</time>
      </trkpt>
      <trkpt lat="47.27817" lon="4.96988">
        <ele>427</ele>
        <time>2012-04-01T09:13:23Z</time>
      </trkpt>
      <trkpt lat="47.27823" lon="4.96967">
        <ele>428</ele>
        <time>2012-04-01T09:13:31Z</time>
      </trkpt>
      <trkpt lat="47.27827" lon="4.96945">
        <ele>429</ele>
        <time>2012-04-01T09:13:39Z</time>
      </trkpt>
      <trkpt lat="47.27832" lon="4.96923">
        <ele>430</ele>
        <time>2012-04-01T09:13:48Z</time>
      </trkpt>
      <trkpt lat="47.27837" lon="4.96903">
        <ele>431</ele>
        <time>2012-04-01T09:13:54Z</time>
      </trkpt>
      <trkpt lat="47.27842" lon="4.9688">
        <ele>431</ele>
        <time>2012-04-01T09:14:03Z</time>
      </trkpt>
      <trkpt lat="47.27847" lon="4.96853">
        <ele>433</ele>
        <time>2012-04-01T09:14:13Z</time>
      </trkpt>
      <trkpt lat="47.27847" lon="4.96832">
        <ele>435</ele>
        <time>2012-04-01T09:14:21Z</time>
      </trkpt>
      <trkpt lat="47.2784" lon="4.96813">
        <ele>437</ele>
        <time>2012-04-01T09:14:29Z</time>
      </trkpt>
      <trkpt lat="47.27827" lon="4.96803">
        <ele>439</ele>
        <time>2012-04-01T09:14:38Z</time>
      </trkpt>
      <trkpt lat="47.27813" lon="4.9679">
        <ele>443</ele>
        <time>2012-04-01T09:14:48Z</time>
      </trkpt>
      <trkpt lat="47.278" lon="4.96782">
        <ele>445</ele>
        <time>2012-04-01T09:14:56Z</time>
      </trkpt>
      <trkpt lat="47.27775" lon="4.96768">
        <ele>444</ele>
        <time>2012-04-01T09:15:08Z</time>
      </trkpt>
      <trkpt lat="47.27757" lon="4.96758">
        <ele>445</ele>
        <time>2012-04-01T09:15:18Z</time>
      </trkpt>
      <trkpt lat="47.27732" lon="4.96745">
        <ele>447</ele>
        <time>2012-04-01T09:15:30Z</time>
      </trkpt>
      <trkpt lat="47.2771" lon="4.96733">
        <ele>448</ele>
        <time>2012-04-01T09:15:41Z</time>
      </trkpt>
      <trkpt lat="47.27693" lon="4.9672">
        <ele>450</ele>
        <time>2012-04-01T09:15:49Z</time>
      </trkpt>
      <trkpt lat="47.27678" lon="4.96708">
        <ele>452</ele>
        <time>2012-04-01T09:15:55Z</time>
      </trkpt>
      <trkpt lat="47.27667" lon="4.96692">
        <ele>452</ele>
        <time>2012-04-01T09:16:03Z</time>
      </trkpt>
      <trkpt lat="47.27658" lon="4.96673">
        <ele>452</ele>
        <time>2012-04-01T09:16:09Z</time>
      </trkpt>
      <trkpt lat="47.27648" lon="4.96653">
        <ele>452</ele>
        <time>2012-04-01T09:16:15Z</time>
      </trkpt>
      <trkpt lat="47.27642" lon="4.96628">
        <ele>452</ele>
        <time>2012-04-01T09:16:23Z</time>
      </trkpt>
      <trkpt lat="47.27633" lon="4.96602">
        <ele>454</ele>
        <time>2012-04-01T09:16:32Z</time>
      </trkpt>
      <trkpt lat="47.27627" lon="4.9657">
        <ele>456</ele>
        <time>2012-04-01T09:16:42Z</time>
      </trkpt>
      <trkpt lat="47.27623" lon="4.9655">
        <ele>456</ele>
        <time>2012-04-01T09:16:48Z</time>
      </trkpt>
      <trkpt lat="47.27613" lon="4.96512">
        <ele>455</ele>
        <time>2012-04-01T09:17:00Z</time>
      </trkpt>
      <trkpt lat="47.27605" lon="4.96482">
        <ele>455</ele>
        <time>2012-04-01T09:17:10Z</time>
      </trkpt>
      <trkpt lat="47.276" lon="4.9646">
        <ele>456</ele>
        <time>2012-04-01T09:17:18Z</time>
      </trkpt>
      <trkpt lat="47.27595" lon="4.9644">
        <ele>457</ele>
        <time>2012-04-01T09:17:26Z</time>
      </trkpt>
      <trkpt lat="47.27592" lon="4.96415">
        <ele>458</ele>
        <time>2012-04-01T09:17:34Z</time>
      </trkpt>
      <trkpt lat="47.27582" lon="4.96387">
        <ele>461</ele>
        <time>2012-04-01T09:17:43Z</time>
      </trkpt>
      <trkpt lat="47.27577" lon="4.96358">
        <ele>463</ele>
        <time>2012-04-01T09:17:52Z</time>
      </trkpt>
      <trkpt lat="47.27573" lon="4.96337">
        <ele>464</ele>
        <time>2012-04-01T09:17:58Z</time>
      </trkpt>
      <trkpt lat="47.27572" lon="4.96315">
        <ele>465</ele>
        <time>2012-04-01T09:18:03Z</time>
      </trkpt>
      <trkpt lat="47.27573" lon="4.96292">
        <ele>465</ele>
        <time>2012-04-01T09:18:09Z</time>
      </trkpt>
      <trkpt lat="47.27575" lon="4.96268">
        <ele>466</ele>
        <time>2012-04-01T09:18:18Z</time>
      </trkpt>
      <trkpt lat="47.2756" lon="4.96258">
        <ele>466</ele>
        <time>2012-04-01T09:18:26Z</time>
      </trkpt>
      <trkpt lat="47.27545" lon="4.96247">
        <ele>466</ele>
        <time>2012-04-01T09:18:34Z</time>
      </trkpt>
      <trkpt lat="47.27532" lon="4.96238">
        <ele>465</ele>
        <time>2012-04-01T09:18:40Z</time>
      </trkpt>
      <trkpt lat="47.27518" lon="4.9623">
        <ele>466</ele>
        <time>2012-04-01T09:18:46Z</time>
      </trkpt>
      <trkpt lat="47.27497" lon="4.96217">
        <ele>463</ele>
        <time>2012-04-01T09:18:54Z</time>
      </trkpt>
      <trkpt lat="47.27425" lon="4.96177">
        <ele>452</ele>
        <time>2012-04-01T09:19:14Z</time>
      </trkpt>
      <trkpt lat="47.27395" lon="4.96162">
        <ele>448</ele>
        <time>2012-04-01T09:19:22Z</time>
      </trkpt>
      <trkpt lat="47.27378" lon="4.96153">
        <ele>448</ele>
        <time>2012-04-01T09:19:26Z</time>
      </trkpt>
      <trkpt lat="47.2736" lon="4.96142">
        <ele>448</ele>
        <time>2012-04-01T09:19:30Z</time>
      </trkpt>
      <trkpt lat="47.27323" lon="4.9612">
        <ele>446</ele>
        <time>2012-04-01T09:19:38Z</time>
      </trkpt>
      <trkpt lat="47.2731" lon="4.96112">
        <ele>445</ele>
        <time>2012-04-01T09:19:42Z</time>
      </trkpt>
      <trkpt lat="47.27285" lon="4.96097">
        <ele>443</ele>
        <time>2012-04-01T09:19:48Z</time>
      </trkpt>
      <trkpt lat="47.2727" lon="4.96087">
        <ele>441</ele>
        <time>2012-04-01T09:19:52Z</time>
      </trkpt>
      <trkpt lat="47.27255" lon="4.96082">
        <ele>440</ele>
        <time>2012-04-01T09:20:00Z</time>
      </trkpt>
      <trkpt lat="47.2724" lon="4.96075">
        <ele>441</ele>
        <time>2012-04-01T09:20:06Z</time>
      </trkpt>
      <trkpt lat="47.27235" lon="4.961">
        <ele>452</ele>
        <time>2012-04-01T09:20:26Z</time>
      </trkpt>
      <trkpt lat="47.27227" lon="4.96117">
        <ele>454</ele>
        <time>2012-04-01T09:20:30Z</time>
      </trkpt>
      <trkpt lat="47.27218" lon="4.96137">
        <ele>460</ele>
        <time>2012-04-01T09:20:40Z</time>
      </trkpt>
      <trkpt lat="47.2721" lon="4.96157">
        <ele>459</ele>
        <time>2012-04-01T09:20:47Z</time>
      </trkpt>
      <trkpt lat="47.27202" lon="4.96175">
        <ele>459</ele>
        <time>2012-04-01T09:20:51Z</time>
      </trkpt>
      <trkpt lat="47.27193" lon="4.96192">
        <ele>454</ele>
        <time>2012-04-01T09:21:35Z</time>
      </trkpt>
      <trkpt lat="47.2718" lon="4.962">
        <ele>454</ele>
        <time>2012-04-01T09:21:41Z</time>
      </trkpt>
      <trkpt lat="47.27165" lon="4.96223">
        <ele>454</ele>
        <time>2012-04-01T09:21:48Z</time>
      </trkpt>
      <trkpt lat="47.27145" lon="4.96245">
        <ele>454</ele>
        <time>2012-04-01T09:21:52Z</time>
      </trkpt>
      <trkpt lat="47.27135" lon="4.9626">
        <ele>454</ele>
        <time>2012-04-01T09:21:56Z</time>
      </trkpt>
      <trkpt lat="47.27118" lon="4.96295">
        <ele>453</ele>
        <time>2012-04-01T09:22:02Z</time>
      </trkpt>
      <trkpt lat="47.27108" lon="4.96322">
        <ele>451</ele>
        <time>2012-04-01T09:22:06Z</time>
      </trkpt>
      <trkpt lat="47.27095" lon="4.96347">
        <ele>450</ele>
        <time>2012-04-01T09:22:12Z</time>
      </trkpt>
      <trkpt lat="47.27072" lon="4.96355">
        <ele>449</ele>
        <time>2012-04-01T09:22:16Z</time>
      </trkpt>
      <trkpt lat="47.27053" lon="4.96357">
        <ele>447</ele>
        <time>2012-04-01T09:22:20Z</time>
      </trkpt>
      <trkpt lat="47.2703" lon="4.96362">
        <ele>448</ele>
        <time>2012-04-01T09:22:26Z</time>
      </trkpt>
      <trkpt lat="47.27013" lon="4.96373">
        <ele>446</ele>
        <time>2012-04-01T09:22:30Z</time>
      </trkpt>
      <trkpt lat="47.26993" lon="4.96375">
        <ele>445</ele>
        <time>2012-04-01T09:22:35Z</time>
      </trkpt>
      <trkpt lat="47.26972" lon="4.96378">
        <ele>444</ele>
        <time>2012-04-01T09:22:39Z</time>
      </trkpt>
      <trkpt lat="47.26952" lon="4.9639">
        <ele>442</ele>
        <time>2012-04-01T09:22:43Z</time>
      </trkpt>
      <trkpt lat="47.26928" lon="4.96407">
        <ele>440</ele>
        <time>2012-04-01T09:22:47Z</time>
      </trkpt>
      <trkpt lat="47.26903" lon="4.96412">
        <ele>439</ele>
        <time>2012-04-01T09:22:51Z</time>
      </trkpt>
      <trkpt lat="47.2688" lon="4.96412">
        <ele>437</ele>
        <time>2012-04-01T09:22:55Z</time>
      </trkpt>
      <trkpt lat="47.2686" lon="4.96417">
        <ele>437</ele>
        <time>2012-04-01T09:22:59Z</time>
      </trkpt>
      <trkpt lat="47.26842" lon="4.9642">
        <ele>438</ele>
        <time>2012-04-01T09:23:03Z</time>
      </trkpt>
      <trkpt lat="47.26825" lon="4.96415">
        <ele>438</ele>
        <time>2012-04-01T09:23:07Z</time>
      </trkpt>
      <trkpt lat="47.26805" lon="4.96413">
        <ele>439</ele>
        <time>2012-04-01T09:23:13Z</time>
      </trkpt>
      <trkpt lat="47.26787" lon="4.96413">
        <ele>439</ele>
        <time>2012-04-01T09:23:17Z</time>
      </trkpt>
      <trkpt lat="47.26772" lon="4.96422">
        <ele>438</ele>
        <time>2012-04-01T09:23:21Z</time>
      </trkpt>
      <trkpt lat="47.26755" lon="4.96425">
        <ele>439</ele>
        <time>2012-04-01T09:23:25Z</time>
      </trkpt>
      <trkpt lat="47.26738" lon="4.96432">
        <ele>440</ele>
        <time>2012-04-01T09:23:29Z</time>
      </trkpt>
      <trkpt lat="47.26723" lon="4.96435">
        <ele>441</ele>
        <time>2012-04-01T09:23:33Z</time>
      </trkpt>
      <trkpt lat="47.26708" lon="4.96433">
        <ele>442</ele>
        <time>2012-04-01T09:23:37Z</time>
      </trkpt>
      <trkpt lat="47.26693" lon="4.96438">
        <ele>442</ele>
        <time>2012-04-01T09:23:42Z</time>
      </trkpt>
      <trkpt lat="47.26677" lon="4.96438">
        <ele>441</ele>
        <time>2012-04-01T09:23:46Z</time>
      </trkpt>
      <trkpt lat="47.26653" lon="4.96423">
        <ele>441</ele>
        <time>2012-04-01T09:23:52Z</time>
      </trkpt>
      <trkpt lat="47.26638" lon="4.9642">
        <ele>441</ele>
        <time>2012-04-01T09:23:56Z</time>
      </trkpt>
      <trkpt lat="47.26623" lon="4.96428">
        <ele>441</ele>
        <time>2012-04-01T09:24:00Z</time>
      </trkpt>
      <trkpt lat="47.26607" lon="4.96425">
        <ele>441</ele>
        <time>2012-04-01T09:24:04Z</time>
      </trkpt>
      <trkpt lat="47.26593" lon="4.96413">
        <ele>441</ele>
        <time>2012-04-01T09:24:08Z</time>
      </trkpt>
      <trkpt lat="47.26583" lon="4.96398">
        <ele>442</ele>
        <time>2012-04-01T09:24:12Z</time>
      </trkpt>
      <trkpt lat="47.26568" lon="4.96375">
        <ele>442</ele>
        <time>2012-04-01T09:24:18Z</time>
      </trkpt>
      <trkpt lat="47.26555" lon="4.96365">
        <ele>443</ele>
        <time>2012-04-01T09:24:24Z</time>
      </trkpt>
      <trkpt lat="47.26532" lon="4.96352">
        <ele>443</ele>
        <time>2012-04-01T09:24:32Z</time>
      </trkpt>
      <trkpt lat="47.26513" lon="4.9634">
        <ele>443</ele>
        <time>2012-04-01T09:24:38Z</time>
      </trkpt>
      <trkpt lat="47.26497" lon="4.9633">
        <ele>443</ele>
        <time>2012-04-01T09:24:44Z</time>
      </trkpt>
      <trkpt lat="47.26485" lon="4.96317">
        <ele>443</ele>
        <time>2012-04-01T09:24:53Z</time>
      </trkpt>
      <trkpt lat="47.26473" lon="4.96305">
        <ele>443</ele>
        <time>2012-04-01T09:24:59Z</time>
      </trkpt>
      <trkpt lat="47.26463" lon="4.9629">
        <ele>443</ele>
        <time>2012-04-01T09:25:05Z</time>
      </trkpt>
      <trkpt lat="47.26467" lon="4.96268">
        <ele>444</ele>
        <time>2012-04-01T09:25:14Z</time>
      </trkpt>
      <trkpt lat="47.26467" lon="4.96248">
        <ele>444</ele>
        <time>2012-04-01T09:25:20Z</time>
      </trkpt>
      <trkpt lat="47.26468" lon="4.96227">
        <ele>444</ele>
        <time>2012-04-01T09:25:26Z</time>
      </trkpt>
      <trkpt lat="47.2647" lon="4.96182">
        <ele>445</ele>
        <time>2012-04-01T09:25:38Z</time>
      </trkpt>
      <trkpt lat="47.26467" lon="4.96157">
        <ele>446</ele>
        <time>2012-04-01T09:25:45Z</time>
      </trkpt>
      <trkpt lat="47.26458" lon="4.96117">
        <ele>445</ele>
        <time>2012-04-01T09:25:55Z</time>
      </trkpt>
      <trkpt lat="47.26457" lon="4.96097">
        <ele>443</ele>
        <time>2012-04-01T09:29:13Z</time>
      </trkpt>
      <trkpt lat="47.26443" lon="4.96075">
        <ele>444</ele>
        <time>2012-04-01T09:29:21Z</time>
      </trkpt>
      <trkpt lat="47.26435" lon="4.96052">
        <ele>444</ele>
        <time>2012-04-01T09:29:27Z</time>
      </trkpt>
      <trkpt lat="47.26425" lon="4.96035">
        <ele>445</ele>
        <time>2012-04-01T09:29:33Z</time>
      </trkpt>
      <trkpt lat="47.26423" lon="4.96015">
        <ele>446</ele>
        <time>2012-04-01T09:29:39Z</time>
      </trkpt>
      <trkpt lat="47.26413" lon="4.95997">
        <ele>447</ele>
        <time>2012-04-01T09:29:47Z</time>
      </trkpt>
      <trkpt lat="47.26398" lon="4.96002">
        <ele>449</ele>
        <time>2012-04-01T09:29:56Z</time>
      </trkpt>
      <trkpt lat="47.26383" lon="4.96012">
        <ele>452</ele>
        <time>2012-04-01T09:30:02Z</time>
      </trkpt>
      <trkpt lat="47.26373" lon="4.9603">
        <ele>456</ele>
        <time>2012-04-01T09:30:08Z</time>
      </trkpt>
      <trkpt lat="47.26363" lon="4.96048">
        <ele>457</ele>
        <time>2012-04-01T09:30:14Z</time>
      </trkpt>
      <trkpt lat="47.26348" lon="4.96043">
        <ele>456</ele>
        <time>2012-04-01T09:30:20Z</time>
      </trkpt>
      <trkpt lat="47.2633" lon="4.96032">
        <ele>455</ele>
        <time>2012-04-01T09:30:28Z</time>
      </trkpt>
      <trkpt lat="47.26317" lon="4.96027">
        <ele>455</ele>
        <time>2012-04-01T09:30:34Z</time>
      </trkpt>
      <trkpt lat="47.263" lon="4.96022">
        <ele>455</ele>
        <time>2012-04-01T09:30:40Z</time>
      </trkpt>
      <trkpt lat="47.2627" lon="4.96008">
        <ele>456</ele>
        <time>2012-04-01T09:30:52Z</time>
      </trkpt>
      <trkpt lat="47.26257" lon="4.96">
        <ele>456</ele>
        <time>2012-04-01T09:30:58Z</time>
      </trkpt>
      <trkpt lat="47.26242" lon="4.95992">
        <ele>457</ele>
        <time>2012-04-01T09:31:04Z</time>
      </trkpt>
      <trkpt lat="47.26225" lon="4.95992">
        <ele>457</ele>
        <time>2012-04-01T09:31:08Z</time>
      </trkpt>
      <trkpt lat="47.26207" lon="4.95998">
        <ele>458</ele>
        <time>2012-04-01T09:31:12Z</time>
      </trkpt>
      <trkpt lat="47.26192" lon="4.96005">
        <ele>457</ele>
        <time>2012-04-01T09:31:16Z</time>
      </trkpt>
      <trkpt lat="47.26162" lon="4.96017">
        <ele>457</ele>
        <time>2012-04-01T09:31:22Z</time>
      </trkpt>
      <trkpt lat="47.26132" lon="4.96022">
        <ele>458</ele>
        <time>2012-04-01T09:31:26Z</time>
      </trkpt>
      <trkpt lat="47.2611" lon="4.96033">
        <ele>459</ele>
        <time>2012-04-01T09:31:30Z</time>
      </trkpt>
      <trkpt lat="47.26098" lon="4.96043">
        <ele>460</ele>
        <time>2012-04-01T09:31:32Z</time>
      </trkpt>
      <trkpt lat="47.2608" lon="4.96068">
        <ele>461</ele>
        <time>2012-04-01T09:31:36Z</time>
      </trkpt>
      <trkpt lat="47.26067" lon="4.96097">
        <ele>462</ele>
        <time>2012-04-01T09:31:41Z</time>
      </trkpt>
      <trkpt lat="47.26045" lon="4.96147">
        <ele>462</ele>
        <time>2012-04-01T09:31:49Z</time>
      </trkpt>
      <trkpt lat="47.26042" lon="4.96125">
        <ele>456</ele>
        <time>2012-04-01T09:31:57Z</time>
      </trkpt>
      <trkpt lat="47.26043" lon="4.96103">
        <ele>454</ele>
        <time>2012-04-01T09:32:03Z</time>
      </trkpt>
      <trkpt lat="47.26047" lon="4.96078">
        <ele>454</ele>
        <time>2012-04-01T09:32:09Z</time>
      </trkpt>
      <trkpt lat="47.26048" lon="4.96057">
        <ele>453</ele>
        <time>2012-04-01T09:32:13Z</time>
      </trkpt>
      <trkpt lat="47.2605" lon="4.96033">
        <ele>452</ele>
        <time>2012-04-01T09:32:19Z</time>
      </trkpt>
      <trkpt lat="47.26052" lon="4.9598">
        <ele>453</ele>
        <time>2012-04-01T09:32:27Z</time>
      </trkpt>
      <trkpt lat="47.2606" lon="4.95957">
        <ele>455</ele>
        <time>2012-04-01T09:32:33Z</time>
      </trkpt>
      <trkpt lat="47.26058" lon="4.95933">
        <ele>458</ele>
        <time>2012-04-01T09:32:39Z</time>
      </trkpt>
      <trkpt lat="47.26058" lon="4.95907">
        <ele>461</ele>
        <time>2012-04-01T09:32:45Z</time>
      </trkpt>
      <trkpt lat="47.2606" lon="4.95885">
        <ele>462</ele>
        <time>2012-04-01T09:32:49Z</time>
      </trkpt>
      <trkpt lat="47.26065" lon="4.95863">
        <ele>461</ele>
        <time>2012-04-01T09:32:55Z</time>
      </trkpt>
      <trkpt lat="47.26065" lon="4.95843">
        <ele>461</ele>
        <time>2012-04-01T09:32:59Z</time>
      </trkpt>
      <trkpt lat="47.2607" lon="4.9582">
        <ele>460</ele>
        <time>2012-04-01T09:33:03Z</time>
      </trkpt>
      <trkpt lat="47.26077" lon="4.95783">
        <ele>460</ele>
        <time>2012-04-01T09:33:12Z</time>
      </trkpt>
      <trkpt lat="47.26083" lon="4.95748">
        <ele>461</ele>
        <time>2012-04-01T09:33:20Z</time>
      </trkpt>
      <trkpt lat="47.26082" lon="4.95712">
        <ele>463</ele>
        <time>2012-04-01T09:33:28Z</time>
      </trkpt>
      <trkpt lat="47.26083" lon="4.95688">
        <ele>462</ele>
        <time>2012-04-01T09:33:32Z</time>
      </trkpt>
      <trkpt lat="47.26083" lon="4.95668">
        <ele>462</ele>
        <time>2012-04-01T09:33:36Z</time>
      </trkpt>
      <trkpt lat="47.26085" lon="4.95648">
        <ele>462</ele>
        <time>2012-04-01T09:33:40Z</time>
      </trkpt>
      <trkpt lat="47.26087" lon="4.95625">
        <ele>463</ele>
        <time>2012-04-01T09:33:44Z</time>
      </trkpt>
      <trkpt lat="47.26087" lon="4.95592">
        <ele>463</ele>
        <time>2012-04-01T09:33:52Z</time>
      </trkpt>
      <trkpt lat="47.2608" lon="4.95553">
        <ele>463</ele>
        <time>2012-04-01T09:34:00Z</time>
      </trkpt>
      <trkpt lat="47.2608" lon="4.95533">
        <ele>463</ele>
        <time>2012-04-01T09:34:04Z</time>
      </trkpt>
      <trkpt lat="47.26085" lon="4.9551">
        <ele>463</ele>
        <time>2012-04-01T09:34:08Z</time>
      </trkpt>
      <trkpt lat="47.26083" lon="4.95485">
        <ele>463</ele>
        <time>2012-04-01T09:34:14Z</time>
      </trkpt>
      <trkpt lat="47.26078" lon="4.95445">
        <ele>462</ele>
        <time>2012-04-01T09:34:20Z</time>
      </trkpt>
      <trkpt lat="47.26078" lon="4.95425">
        <ele>462</ele>
        <time>2012-04-01T09:34:24Z</time>
      </trkpt>
      <trkpt lat="47.26077" lon="4.954">
        <ele>462</ele>
        <time>2012-04-01T09:34:28Z</time>
      </trkpt>
      <trkpt lat="47.26078" lon="4.95375">
        <ele>463</ele>
        <time>2012-04-01T09:34:32Z</time>
      </trkpt>
      <trkpt lat="47.2608" lon="4.9534">
        <ele>463</ele>
        <time>2012-04-01T09:34:38Z</time>
      </trkpt>
      <trkpt lat="47.26078" lon="4.95317">
        <ele>463</ele>
        <time>2012-04-01T09:34:42Z</time>
      </trkpt>
      <trkpt lat="47.26075" lon="4.95283">
        <ele>463</ele>
        <time>2012-04-01T09:34:48Z</time>
      </trkpt>
      <trkpt lat="47.26075" lon="4.95257">
        <ele>462</ele>
        <time>2012-04-01T09:34:52Z</time>
      </trkpt>
      <trkpt lat="47.26073" lon="4.95232">
        <ele>463</ele>
        <time>2012-04-01T09:34:56Z</time>
      </trkpt>
      <trkpt lat="47.26077" lon="4.95198">
        <ele>463</ele>
        <time>2012-04-01T09:35:02Z</time>
      </trkpt>
      <trkpt lat="47.26077" lon="4.9517">
        <ele>462</ele>
        <time>2012-04-01T09:35:08Z</time>
      </trkpt>
      <trkpt lat="47.26075" lon="4.95147">
        <ele>464</ele>
        <time>2012-04-01T09:35:12Z</time>
      </trkpt>
      <trkpt lat="47.26075" lon="4.95127">
        <ele>465</ele>
        <time>2012-04-01T09:35:16Z</time>
      </trkpt>
      <trkpt lat="47.26075" lon="4.95103">
        <ele>467</ele>
        <time>2012-04-01T09:35:20Z</time>
      </trkpt>
      <trkpt lat="47.26073" lon="4.95078">
        <ele>465</ele>
        <time>2012-04-01T09:35:24Z</time>
      </trkpt>
      <trkpt lat="47.2607" lon="4.95045">
        <ele>464</ele>
        <time>2012-04-01T09:35:30Z</time>
      </trkpt>
      <trkpt lat="47.26068" lon="4.95023">
        <ele>464</ele>
        <time>2012-04-01T09:35:34Z</time>
      </trkpt>
      <trkpt lat="47.26067" lon="4.94993">
        <ele>464</ele>
        <time>2012-04-01T09:35:40Z</time>
      </trkpt>
      <trkpt lat="47.26067" lon="4.94965">
        <ele>464</ele>
        <time>2012-04-01T09:35:46Z</time>
      </trkpt>
      <trkpt lat="47.26068" lon="4.94935">
        <ele>464</ele>
        <time>2012-04-01T09:35:52Z</time>
      </trkpt>
      <trkpt lat="47.26073" lon="4.94915">
        <ele>465</ele>
        <time>2012-04-01T09:35:56Z</time>
      </trkpt>
      <trkpt lat="47.2608" lon="4.94888">
        <ele>465</ele>
        <time>2012-04-01T09:36:02Z</time>
      </trkpt>
      <trkpt lat="47.26087" lon="4.94863">
        <ele>466</ele>
        <time>2012-04-01T09:36:08Z</time>
      </trkpt>
      <trkpt lat="47.26093" lon="4.94838">
        <ele>464</ele>
        <time>2012-04-01T09:36:52Z</time>
      </trkpt>
      <trkpt lat="47.26098" lon="4.9481">
        <ele>463</ele>
        <time>2012-04-01T09:36:57Z</time>
      </trkpt>
      <trkpt lat="47.26105" lon="4.94773">
        <ele>465</ele>
        <time>2012-04-01T09:37:05Z</time>
      </trkpt>
      <trkpt lat="47.26115" lon="4.94717">
        <ele>463</ele>
        <time>2012-04-01T09:37:17Z</time>
      </trkpt>
      <trkpt lat="47.26118" lon="4.94697">
        <ele>463</ele>
        <time>2012-04-01T09:37:20Z</time>
      </trkpt>
      <trkpt lat="47.26122" lon="4.94662">
        <ele>468</ele>
        <time>2012-04-01T09:37:28Z</time>
      </trkpt>
      <trkpt lat="47.26127" lon="4.9464">
        <ele>471</ele>
        <time>2012-04-01T09:37:34Z</time>
      </trkpt>
      <trkpt lat="47.26135" lon="4.94617">
        <ele>474</ele>
        <time>2012-04-01T09:37:40Z</time>
      </trkpt>
      <trkpt lat="47.26142" lon="4.94593">
        <ele>475</ele>
        <time>2012-04-01T09:37:45Z</time>
      </trkpt>
      <trkpt lat="47.26145" lon="4.94573">
        <ele>475</ele>
        <time>2012-04-01T09:37:51Z</time>
      </trkpt>
      <trkpt lat="47.26145" lon="4.94547">
        <ele>474</ele>
        <time>2012-04-01T09:37:56Z</time>
      </trkpt>
      <trkpt lat="47.26147" lon="4.94527">
        <ele>475</ele>
        <time>2012-04-01T09:38:02Z</time>
      </trkpt>
      <trkpt lat="47.26148" lon="4.94503">
        <ele>477</ele>
        <time>2012-04-01T09:38:08Z</time>
      </trkpt>
      <trkpt lat="47.2615" lon="4.94478">
        <ele>479</ele>
        <time>2012-04-01T09:38:16Z</time>
      </trkpt>
      <trkpt lat="47.2616" lon="4.94458">
        <ele>481</ele>
        <time>2012-04-01T09:38:23Z</time>
      </trkpt>
      <trkpt lat="47.26173" lon="4.9444">
        <ele>485</ele>
        <time>2012-04-01T09:38:33Z</time>
      </trkpt>
      <trkpt lat="47.26185" lon="4.94428">
        <ele>488</ele>
        <time>2012-04-01T09:38:39Z</time>
      </trkpt>
      <trkpt lat="47.26198" lon="4.94415">
        <ele>490</ele>
        <time>2012-04-01T09:38:46Z</time>
      </trkpt>
      <trkpt lat="47.26213" lon="4.94398">
        <ele>489</ele>
        <time>2012-04-01T09:38:54Z</time>
      </trkpt>
      <trkpt lat="47.26225" lon="4.94385">
        <ele>487</ele>
        <time>2012-04-01T09:38:58Z</time>
      </trkpt>
      <trkpt lat="47.26233" lon="4.94365">
        <ele>489</ele>
        <time>2012-04-01T09:39:04Z</time>
      </trkpt>
      <trkpt lat="47.26227" lon="4.94345">
        <ele>486</ele>
        <time>2012-04-01T09:39:10Z</time>
      </trkpt>
      <trkpt lat="47.2621" lon="4.94322">
        <ele>484</ele>
        <time>2012-04-01T09:39:18Z</time>
      </trkpt>
      <trkpt lat="47.26192" lon="4.94317">
        <ele>486</ele>
        <time>2012-04-01T09:39:25Z</time>
      </trkpt>
      <trkpt lat="47.26167" lon="4.94315">
        <ele>497</ele>
        <time>2012-04-01T09:39:35Z</time>
      </trkpt>
      <trkpt lat="47.26147" lon="4.94313">
        <ele>500</ele>
        <time>2012-04-01T09:39:43Z</time>
      </trkpt>
      <trkpt lat="47.26132" lon="4.94313">
        <ele>499</ele>
        <time>2012-04-01T09:39:48Z</time>
      </trkpt>
      <trkpt lat="47.26095" lon="4.94313">
        <ele>497</ele>
        <time>2012-04-01T09:39:56Z</time>
      </trkpt>
      <trkpt lat="47.26078" lon="4.94317">
        <ele>493</ele>
        <time>2012-04-01T09:40:00Z</time>
      </trkpt>
      <trkpt lat="47.26065" lon="4.9431">
        <ele>493</ele>
        <time>2012-04-01T09:40:07Z</time>
      </trkpt>
      <trkpt lat="47.26062" lon="4.9429">
        <ele>495</ele>
        <time>2012-04-01T09:40:13Z</time>
      </trkpt>
      <trkpt lat="47.26057" lon="4.94263">
        <ele>492</ele>
        <time>2012-04-01T09:40:21Z</time>
      </trkpt>
      <trkpt lat="47.26052" lon="4.94243">
        <ele>492</ele>
        <time>2012-04-01T09:40:28Z</time>
      </trkpt>
      <trkpt lat="47.26042" lon="4.94222">
        <ele>487</ele>
        <time>2012-04-01T09:40:36Z</time>
      </trkpt>
      <trkpt lat="47.26032" lon="4.94198">
        <ele>484</ele>
        <time>2012-04-01T09:40:44Z</time>
      </trkpt>
      <trkpt lat="47.26023" lon="4.9417">
        <ele>484</ele>
        <time>2012-04-01T09:40:54Z</time>
      </trkpt>
      <trkpt lat="47.26017" lon="4.94138">
        <ele>488</ele>
        <time>2012-04-01T09:41:04Z</time>
      </trkpt>
      <trkpt lat="47.26012" lon="4.9411">
        <ele>489</ele>
        <time>2012-04-01T09:41:15Z</time>
      </trkpt>
      <trkpt lat="47.26005" lon="4.9408">
        <ele>493</ele>
        <time>2012-04-01T09:41:25Z</time>
      </trkpt>
      <trkpt lat="47.26005" lon="4.94055">
        <ele>494</ele>
        <time>2012-04-01T09:41:33Z</time>
      </trkpt>
      <trkpt lat="47.26005" lon="4.94032">
        <ele>498</ele>
        <time>2012-04-01T09:41:42Z</time>
      </trkpt>
      <trkpt lat="47.26008" lon="4.9401">
        <ele>499</ele>
        <time>2012-04-01T09:41:50Z</time>
      </trkpt>
      <trkpt lat="47.26012" lon="4.93988">
        <ele>503</ele>
        <time>2012-04-01T09:41:58Z</time>
      </trkpt>
      <trkpt lat="47.26015" lon="4.93968">
        <ele>505</ele>
        <time>2012-04-01T09:42:06Z</time>
      </trkpt>
      <trkpt lat="47.26015" lon="4.93948">
        <ele>502</ele>
        <time>2012-04-01T09:42:12Z</time>
      </trkpt>
      <trkpt lat="47.26003" lon="4.93937">
        <ele>506</ele>
        <time>2012-04-01T09:42:25Z</time>
      </trkpt>
      <trkpt lat="47.25987" lon="4.93937">
        <ele>513</ele>
        <time>2012-04-01T09:42:37Z</time>
      </trkpt>
      <trkpt lat="47.25967" lon="4.93935">
        <ele>514</ele>
        <time>2012-04-01T09:42:49Z</time>
      </trkpt>
      <trkpt lat="47.2595" lon="4.93937">
        <ele>513</ele>
        <time>2012-04-01T09:42:58Z</time>
      </trkpt>
      <trkpt lat="47.25933" lon="4.93933">
        <ele>513</ele>
        <time>2012-04-01T09:43:09Z</time>
      </trkpt>
      <trkpt lat="47.25925" lon="4.93917">
        <ele>513</ele>
        <time>2012-04-01T09:43:18Z</time>
      </trkpt>
      <trkpt lat="47.25918" lon="4.93897">
        <ele>514</ele>
        <time>2012-04-01T09:43:27Z</time>
      </trkpt>
      <trkpt lat="47.25918" lon="4.93872">
        <ele>513</ele>
        <time>2012-04-01T09:43:36Z</time>
      </trkpt>
      <trkpt lat="47.25918" lon="4.93852">
        <ele>514</ele>
        <time>2012-04-01T09:43:43Z</time>
      </trkpt>
      <trkpt lat="47.25917" lon="4.93832">
        <ele>514</ele>
        <time>2012-04-01T09:43:50Z</time>
      </trkpt>
      <trkpt lat="47.25917" lon="4.9381">
        <ele>515</ele>
        <time>2012-04-01T09:43:56Z</time>
      </trkpt>
      <trkpt lat="47.25917" lon="4.93788">
        <ele>515</ele>
        <time>2012-04-01T09:44:03Z</time>
      </trkpt>
      <trkpt lat="47.25918" lon="4.9374">
        <ele>516</ele>
        <time>2012-04-01T09:44:21Z</time>
      </trkpt>
      <trkpt lat="47.2592" lon="4.93712">
        <ele>514</ele>
        <time>2012-04-01T09:44:30Z</time>
      </trkpt>
      <trkpt lat="47.2592" lon="4.9366">
        <ele>515</ele>
        <time>2012-04-01T09:44:48Z</time>
      </trkpt>
      <trkpt lat="47.2592" lon="4.93593">
        <ele>517</ele>
        <time>2012-04-01T09:45:06Z</time>
      </trkpt>
      <trkpt lat="47.25918" lon="4.93568">
        <ele>520</ele>
        <time>2012-04-01T09:45:13Z</time>
      </trkpt>
      <trkpt lat="47.2592" lon="4.93545">
        <ele>520</ele>
        <time>2012-04-01T09:45:20Z</time>
      </trkpt>
      <trkpt lat="47.25922" lon="4.9351">
        <ele>519</ele>
        <time>2012-04-01T09:45:29Z</time>
      </trkpt>
      <trkpt lat="47.25922" lon="4.93488">
        <ele>517</ele>
        <time>2012-04-01T09:45:33Z</time>
      </trkpt>
      <trkpt lat="47.25918" lon="4.9346">
        <ele>517</ele>
        <time>2012-04-01T09:45:40Z</time>
      </trkpt>
      <trkpt lat="47.25905" lon="4.93445">
        <ele>520</ele>
        <time>2012-04-01T09:45:47Z</time>
      </trkpt>
      <trkpt lat="47.25895" lon="4.9343">
        <ele>520</ele>
        <time>2012-04-01T09:45:51Z</time>
      </trkpt>
      <trkpt lat="47.25885" lon="4.93417">
        <ele>520</ele>
        <time>2012-04-01T09:45:56Z</time>
      </trkpt>
      <trkpt lat="47.2587" lon="4.93393">
        <ele>520</ele>
        <time>2012-04-01T09:46:05Z</time>
      </trkpt>
      <trkpt lat="47.25855" lon="4.93373">
        <ele>520</ele>
        <time>2012-04-01T09:46:12Z</time>
      </trkpt>
      <trkpt lat="47.25842" lon="4.9336">
        <ele>519</ele>
        <time>2012-04-01T09:46:19Z</time>
      </trkpt>
      <trkpt lat="47.2583" lon="4.93348">
        <ele>519</ele>
        <time>2012-04-01T09:46:23Z</time>
      </trkpt>
      <trkpt lat="47.25813" lon="4.93325">
        <ele>519</ele>
        <time>2012-04-01T09:46:32Z</time>
      </trkpt>
      <trkpt lat="47.25797" lon="4.93298">
        <ele>520</ele>
        <time>2012-04-01T09:46:41Z</time>
      </trkpt>
      <trkpt lat="47.25803" lon="4.93277">
        <ele>521</ele>
        <time>2012-04-01T09:46:48Z</time>
      </trkpt>
      <trkpt lat="47.2581" lon="4.9325">
        <ele>521</ele>
        <time>2012-04-01T09:46:55Z</time>
      </trkpt>
      <trkpt lat="47.25817" lon="4.93227">
        <ele>523</ele>
        <time>2012-04-01T09:47:01Z</time>
      </trkpt>
      <trkpt lat="47.25823" lon="4.93205">
        <ele>524</ele>
        <time>2012-04-01T09:47:08Z</time>
      </trkpt>
      <trkpt lat="47.2583" lon="4.93185">
        <ele>526</ele>
        <time>2012-04-01T09:47:15Z</time>
      </trkpt>
      <trkpt lat="47.25835" lon="4.93162">
        <ele>530</ele>
        <time>2012-04-01T09:47:21Z</time>
      </trkpt>
      <trkpt lat="47.25842" lon="4.93142">
        <ele>531</ele>
        <time>2012-04-01T09:47:28Z</time>
      </trkpt>
      <trkpt lat="47.2585" lon="4.93118">
        <ele>534</ele>
        <time>2012-04-01T09:47:34Z</time>
      </trkpt>
      <trkpt lat="47.2586" lon="4.93093">
        <ele>536</ele>
        <time>2012-04-01T09:47:41Z</time>
      </trkpt>
      <trkpt lat="47.25873" lon="4.93067">
        <ele>537</ele>
        <time>2012-04-01T09:47:50Z</time>
      </trkpt>
      <trkpt lat="47.25882" lon="4.93048">
        <ele>536</ele>
        <time>2012-04-01T09:47:54Z</time>
      </trkpt>
      <trkpt lat="47.259" lon="4.93007">
        <ele>537</ele>
        <time>2012-04-01T09:48:05Z</time>
      </trkpt>
      <trkpt lat="47.2591" lon="4.92967">
        <ele>538</ele>
        <time>2012-04-01T09:48:14Z</time>
      </trkpt>
      <trkpt lat="47.2591" lon="4.92943">
        <ele>538</ele>
        <time>2012-04-01T09:48:19Z</time>
      </trkpt>
      <trkpt lat="47.2591" lon="4.92922">
        <ele>537</ele>
        <time>2012-04-01T09:48:23Z</time>
      </trkpt>
      <trkpt lat="47.25915" lon="4.92898">
        <ele>537</ele>
        <time>2012-04-01T09:48:28Z</time>
      </trkpt>
      <trkpt lat="47.25915" lon="4.92865">
        <ele>536</ele>
        <time>2012-04-01T09:48:32Z</time>
      </trkpt>
      <trkpt lat="47.2591" lon="4.9284">
        <ele>535</ele>
        <time>2012-04-01T09:48:37Z</time>
      </trkpt>
      <trkpt lat="47.25907" lon="4.9282">
        <ele>534</ele>
        <time>2012-04-01T09:48:39Z</time>
      </trkpt>
      <trkpt lat="47.25898" lon="4.92785">
        <ele>533</ele>
        <time>2012-04-01T09:48:44Z</time>
      </trkpt>
      <trkpt lat="47.25892" lon="4.92747">
        <ele>533</ele>
        <time>2012-04-01T09:48:48Z</time>
      </trkpt>
      <trkpt lat="47.25892" lon="4.92717">
        <ele>532</ele>
        <time>2012-04-01T09:48:53Z</time>
      </trkpt>
      <trkpt lat="47.25888" lon="4.92662">
        <ele>533</ele>
        <time>2012-04-01T09:48:59Z</time>
      </trkpt>
      <trkpt lat="47.25887" lon="4.92635">
        <ele>530</ele>
        <time>2012-04-01T09:49:04Z</time>
      </trkpt>
      <trkpt lat="47.25878" lon="4.92612">
        <ele>529</ele>
        <time>2012-04-01T09:49:11Z</time>
      </trkpt>
      <trkpt lat="47.2587" lon="4.92595">
        <ele>517</ele>
        <time>2012-04-01T09:49:45Z</time>
      </trkpt>
      <trkpt lat="47.25867" lon="4.92565">
        <ele>533</ele>
        <time>2012-04-01T09:51:23Z</time>
      </trkpt>
      <trkpt lat="47.25872" lon="4.92533">
        <ele>535</ele>
        <time>2012-04-01T09:51:30Z</time>
      </trkpt>
      <trkpt lat="47.25875" lon="4.92488">
        <ele>534</ele>
        <time>2012-04-01T09:51:34Z</time>
      </trkpt>
      <trkpt lat="47.25878" lon="4.92407">
        <ele>527</ele>
        <time>2012-04-01T09:51:43Z</time>
      </trkpt>
      <trkpt lat="47.2588" lon="4.92375">
        <ele>523</ele>
        <time>2012-04-01T09:51:48Z</time>
      </trkpt>
      <trkpt lat="47.25885" lon="4.92317">
        <ele>520</ele>
        <time>2012-04-01T09:51:55Z</time>
      </trkpt>
      <trkpt lat="47.25888" lon="4.92295">
        <ele>519</ele>
        <time>2012-04-01T09:51:57Z</time>
      </trkpt>
      <trkpt lat="47.2589" lon="4.9225">
        <ele>518</ele>
        <time>2012-04-01T09:52:04Z</time>
      </trkpt>
      <trkpt lat="47.25893" lon="4.92227">
        <ele>518</ele>
        <time>2012-04-01T09:52:06Z</time>
      </trkpt>
      <trkpt lat="47.25903" lon="4.9215">
        <ele>516</ele>
        <time>2012-04-01T09:52:15Z</time>
      </trkpt>
      <trkpt lat="47.25903" lon="4.92115">
        <ele>513</ele>
        <time>2012-04-01T09:52:20Z</time>
      </trkpt>
      <trkpt lat="47.25885" lon="4.92095">
        <ele>515</ele>
        <time>2012-04-01T09:52:27Z</time>
      </trkpt>
      <trkpt lat="47.25873" lon="4.92085">
        <ele>516</ele>
        <time>2012-04-01T09:52:32Z</time>
      </trkpt>
      <trkpt lat="47.25858" lon="4.92072">
        <ele>519</ele>
        <time>2012-04-01T09:52:36Z</time>
      </trkpt>
      <trkpt lat="47.25843" lon="4.92058">
        <ele>522</ele>
        <time>2012-04-01T09:52:41Z</time>
      </trkpt>
      <trkpt lat="47.25818" lon="4.92037">
        <ele>525</ele>
        <time>2012-04-01T09:52:50Z</time>
      </trkpt>
      <trkpt lat="47.25802" lon="4.92025">
        <ele>525</ele>
        <time>2012-04-01T09:52:55Z</time>
      </trkpt>
      <trkpt lat="47.2579" lon="4.92015">
        <ele>524</ele>
        <time>2012-04-01T09:53:00Z</time>
      </trkpt>
      <trkpt lat="47.25778" lon="4.92002">
        <ele>523</ele>
        <time>2012-04-01T09:53:02Z</time>
      </trkpt>
      <trkpt lat="47.25763" lon="4.91983">
        <ele>522</ele>
        <time>2012-04-01T09:53:07Z</time>
      </trkpt>
      <trkpt lat="47.2575" lon="4.91972">
        <ele>521</ele>
        <time>2012-04-01T09:53:09Z</time>
      </trkpt>
      <trkpt lat="47.2573" lon="4.91957">
        <ele>521</ele>
        <time>2012-04-01T09:53:14Z</time>
      </trkpt>
      <trkpt lat="47.25713" lon="4.91945">
        <ele>522</ele>
        <time>2012-04-01T09:53:16Z</time>
      </trkpt>
      <trkpt lat="47.25688" lon="4.91933">
        <ele>520</ele>
        <time>2012-04-01T09:53:20Z</time>
      </trkpt>
      <trkpt lat="47.25658" lon="4.91915">
        <ele>516</ele>
        <time>2012-04-01T09:53:28Z</time>
      </trkpt>
      <trkpt lat="47.2566" lon="4.91888">
        <ele>517</ele>
        <time>2012-04-01T09:53:32Z</time>
      </trkpt>
      <trkpt lat="47.25675" lon="4.91848">
        <ele>517</ele>
        <time>2012-04-01T09:53:37Z</time>
      </trkpt>
      <trkpt lat="47.25688" lon="4.91803">
        <ele>518</ele>
        <time>2012-04-01T09:53:44Z</time>
      </trkpt>
      <trkpt lat="47.25682" lon="4.9178">
        <ele>519</ele>
        <time>2012-04-01T09:53:54Z</time>
      </trkpt>
      <trkpt lat="47.25672" lon="4.91757">
        <ele>521</ele>
        <time>2012-04-01T09:54:03Z</time>
      </trkpt>
      <trkpt lat="47.25663" lon="4.91737">
        <ele>519</ele>
        <time>2012-04-01T09:54:10Z</time>
      </trkpt>
      <trkpt lat="47.25652" lon="4.91715">
        <ele>520</ele>
        <time>2012-04-01T09:54:17Z</time>
      </trkpt>
      <trkpt lat="47.25645" lon="4.91693">
        <ele>520</ele>
        <time>2012-04-01T09:54:22Z</time>
      </trkpt>
      <trkpt lat="47.25635" lon="4.91673">
        <ele>521</ele>
        <time>2012-04-01T09:54:29Z</time>
      </trkpt>
      <trkpt lat="47.25625" lon="4.91653">
        <ele>523</ele>
        <time>2012-04-01T09:54:33Z</time>
      </trkpt>
      <trkpt lat="47.2561" lon="4.9162">
        <ele>519</ele>
        <time>2012-04-01T09:54:40Z</time>
      </trkpt>
      <trkpt lat="47.25602" lon="4.91595">
        <ele>517</ele>
        <time>2012-04-01T09:54:45Z</time>
      </trkpt>
      <trkpt lat="47.25592" lon="4.91562">
        <ele>517</ele>
        <time>2012-04-01T09:54:53Z</time>
      </trkpt>
      <trkpt lat="47.25587" lon="4.91535">
        <ele>520</ele>
        <time>2012-04-01T09:54:57Z</time>
      </trkpt>
      <trkpt lat="47.25585" lon="4.91505">
        <ele>517</ele>
        <time>2012-04-01T09:55:02Z</time>
      </trkpt>
      <trkpt lat="47.25582" lon="4.91477">
        <ele>517</ele>
        <time>2012-04-01T09:55:07Z</time>
      </trkpt>
      <trkpt lat="47.25572" lon="4.91462">
        <ele>517</ele>
        <time>2012-04-01T09:55:12Z</time>
      </trkpt>
      <trkpt lat="47.25552" lon="4.91442">
        <ele>517</ele>
        <time>2012-04-01T09:55:19Z</time>
      </trkpt>
      <trkpt lat="47.2553" lon="4.9143">
        <ele>517</ele>
        <time>2012-04-01T09:55:24Z</time>
      </trkpt>
      <trkpt lat="47.25513" lon="4.91415">
        <ele>516</ele>
        <time>2012-04-01T09:55:29Z</time>
      </trkpt>
      <trkpt lat="47.25495" lon="4.91402">
        <ele>516</ele>
        <time>2012-04-01T09:55:33Z</time>
      </trkpt>
      <trkpt lat="47.25482" lon="4.9139">
        <ele>515</ele>
        <time>2012-04-01T09:55:41Z</time>
      </trkpt>
      <trkpt lat="47.25468" lon="4.91385">
        <ele>517</ele>
        <time>2012-04-01T09:55:48Z</time>
      </trkpt>
      <trkpt lat="47.2545" lon="4.91372">
        <ele>516</ele>
        <time>2012-04-01T09:57:34Z</time>
      </trkpt>
      <trkpt lat="47.2544" lon="4.91358">
        <ele>515</ele>
        <time>2012-04-01T09:57:39Z</time>
      </trkpt>
      <trkpt lat="47.25415" lon="4.91333">
        <ele>510</ele>
        <time>2012-04-01T09:57:46Z</time>
      </trkpt>
      <trkpt lat="47.25387" lon="4.91303">
        <ele>509</ele>
        <time>2012-04-01T09:57:51Z</time>
      </trkpt>
      <trkpt lat="47.25377" lon="4.91287">
        <ele>508</ele>
        <time>2012-04-01T09:57:53Z</time>
      </trkpt>
      <trkpt lat="47.25357" lon="4.91245">
        <ele>502</ele>
        <time>2012-04-01T09:57:58Z</time>
      </trkpt>
      <trkpt lat="47.25335" lon="4.91207">
        <ele>492</ele>
        <time>2012-04-01T09:58:03Z</time>
      </trkpt>
      <trkpt lat="47.2532" lon="4.9117">
        <ele>487</ele>
        <time>2012-04-01T09:58:08Z</time>
      </trkpt>
      <trkpt lat="47.25327" lon="4.91138">
        <ele>491</ele>
        <time>2012-04-01T09:58:13Z</time>
      </trkpt>
      <trkpt lat="47.2533" lon="4.91115">
        <ele>491</ele>
        <time>2012-04-01T09:58:15Z</time>
      </trkpt>
      <trkpt lat="47.25328" lon="4.91088">
        <ele>494</ele>
        <time>2012-04-01T09:58:20Z</time>
      </trkpt>
      <trkpt lat="47.25317" lon="4.91065">
        <ele>493</ele>
        <time>2012-04-01T09:58:25Z</time>
      </trkpt>
      <trkpt lat="47.253" lon="4.91058">
        <ele>491</ele>
        <time>2012-04-01T09:58:30Z</time>
      </trkpt>
      <trkpt lat="47.25278" lon="4.91055">
        <ele>486</ele>
        <time>2012-04-01T09:58:37Z</time>
      </trkpt>
      <trkpt lat="47.2524" lon="4.9105">
        <ele>482</ele>
        <time>2012-04-01T09:58:45Z</time>
      </trkpt>
      <trkpt lat="47.2522" lon="4.91053">
        <ele>475</ele>
        <time>2012-04-01T09:58:50Z</time>
      </trkpt>
      <trkpt lat="47.25203" lon="4.9106">
        <ele>467</ele>
        <time>2012-04-01T09:58:57Z</time>
      </trkpt>
      <trkpt lat="47.25213" lon="4.91085">
        <ele>478</ele>
        <time>2012-04-01T09:59:49Z</time>
      </trkpt>
      <trkpt lat="47.2522" lon="4.91108">
        <ele>481</ele>
        <time>2012-04-01T09:59:57Z</time>
      </trkpt>
      <trkpt lat="47.2522" lon="4.91128">
        <ele>483</ele>
        <time>2012-04-01T10:00:01Z</time>
      </trkpt>
      <trkpt lat="47.2522" lon="4.91153">
        <ele>485</ele>
        <time>2012-04-01T10:00:09Z</time>
      </trkpt>
      <trkpt lat="47.25218" lon="4.91178">
        <ele>484</ele>
        <time>2012-04-01T10:00:16Z</time>
      </trkpt>
      <trkpt lat="47.25213" lon="4.912">
        <ele>484</ele>
        <time>2012-04-01T10:00:23Z</time>
      </trkpt>
      <trkpt lat="47.25207" lon="4.91218">
        <ele>481</ele>
        <time>2012-04-01T10:00:28Z</time>
      </trkpt>
      <trkpt lat="47.25192" lon="4.91242">
        <ele>483</ele>
        <time>2012-04-01T10:00:38Z</time>
      </trkpt>
      <trkpt lat="47.25182" lon="4.91258">
        <ele>483</ele>
        <time>2012-04-01T10:00:45Z</time>
      </trkpt>
      <trkpt lat="47.25177" lon="4.91282">
        <ele>483</ele>
        <time>2012-04-01T10:00:52Z</time>
      </trkpt>
      <trkpt lat="47.25172" lon="4.91308">
        <ele>482</ele>
        <time>2012-04-01T10:00:59Z</time>
      </trkpt>
      <trkpt lat="47.25173" lon="4.91333">
        <ele>483</ele>
        <time>2012-04-01T10:01:06Z</time>
      </trkpt>
      <trkpt lat="47.25172" lon="4.91357">
        <ele>482</ele>
        <time>2012-04-01T10:01:13Z</time>
      </trkpt>
      <trkpt lat="47.25168" lon="4.91385">
        <ele>481</ele>
        <time>2012-04-01T10:01:21Z</time>
      </trkpt>
      <trkpt lat="47.25163" lon="4.91407">
        <ele>481</ele>
        <time>2012-04-01T10:01:28Z</time>
      </trkpt>
      <trkpt lat="47.25157" lon="4.91425">
        <ele>483</ele>
        <time>2012-04-01T10:01:33Z</time>
      </trkpt>
      <trkpt lat="47.25145" lon="4.9144">
        <ele>485</ele>
        <time>2012-04-01T10:01:41Z</time>
      </trkpt>
      <trkpt lat="47.25135" lon="4.91463">
        <ele>488</ele>
        <time>2012-04-01T10:01:48Z</time>
      </trkpt>
      <trkpt lat="47.25127" lon="4.91488">
        <ele>491</ele>
        <time>2012-04-01T10:01:58Z</time>
      </trkpt>
      <trkpt lat="47.25123" lon="4.91517">
        <ele>491</ele>
        <time>2012-04-01T10:02:05Z</time>
      </trkpt>
      <trkpt lat="47.25115" lon="4.91535">
        <ele>489</ele>
        <time>2012-04-01T10:02:12Z</time>
      </trkpt>
      <trkpt lat="47.25105" lon="4.9155">
        <ele>488</ele>
        <time>2012-04-01T10:02:17Z</time>
      </trkpt>
      <trkpt lat="47.251" lon="4.91577">
        <ele>490</ele>
        <time>2012-04-01T10:02:25Z</time>
      </trkpt>
      <trkpt lat="47.25088" lon="4.91592">
        <ele>491</ele>
        <time>2012-04-01T10:02:32Z</time>
      </trkpt>
      <trkpt lat="47.25075" lon="4.91615">
        <ele>496</ele>
        <time>2012-04-01T10:02:44Z</time>
      </trkpt>
      <trkpt lat="47.25068" lon="4.91643">
        <ele>498</ele>
        <time>2012-04-01T10:02:51Z</time>
      </trkpt>
      <trkpt lat="47.25062" lon="4.9167">
        <ele>501</ele>
        <time>2012-04-01T10:02:58Z</time>
      </trkpt>
      <trkpt lat="47.25052" lon="4.91693">
        <ele>503</ele>
        <time>2012-04-01T10:03:06Z</time>
      </trkpt>
      <trkpt lat="47.25043" lon="4.91715">
        <ele>504</ele>
        <time>2012-04-01T10:03:13Z</time>
      </trkpt>
      <trkpt lat="47.25033" lon="4.91742">
        <ele>505</ele>
        <time>2012-04-01T10:03:20Z</time>
      </trkpt>
      <trkpt lat="47.25025" lon="4.9176">
        <ele>505</ele>
        <time>2012-04-01T10:03:27Z</time>
      </trkpt>
      <trkpt lat="47.25023" lon="4.91787">
        <ele>503</ele>
        <time>2012-04-01T10:03:34Z</time>
      </trkpt>
      <trkpt lat="47.25023" lon="4.91808">
        <ele>502</ele>
        <time>2012-04-01T10:03:39Z</time>
      </trkpt>
      <trkpt lat="47.25027" lon="4.91833">
        <ele>501</ele>
        <time>2012-04-01T10:03:47Z</time>
      </trkpt>
      <trkpt lat="47.2503" lon="4.91853">
        <ele>500</ele>
        <time>2012-04-01T10:03:52Z</time>
      </trkpt>
      <trkpt lat="47.2503" lon="4.91877">
        <ele>501</ele>
        <time>2012-04-01T10:03:59Z</time>
      </trkpt>
      <trkpt lat="47.25032" lon="4.91905">
        <ele>502</ele>
        <time>2012-04-01T10:04:06Z</time>
      </trkpt>
      <trkpt lat="47.25032" lon="4.91925">
        <ele>503</ele>
        <time>2012-04-01T10:04:13Z</time>
      </trkpt>
      <trkpt lat="47.2503" lon="4.91947">
        <ele>506</ele>
        <time>2012-04-01T10:04:20Z</time>
      </trkpt>
      <trkpt lat="47.25028" lon="4.91968">
        <ele>508</ele>
        <time>2012-04-01T10:04:27Z</time>
      </trkpt>
      <trkpt lat="47.25025" lon="4.91995">
        <ele>509</ele>
        <time>2012-04-01T10:04:35Z</time>
      </trkpt>
      <trkpt lat="47.25027" lon="4.92022">
        <ele>509</ele>
        <time>2012-04-01T10:04:42Z</time>
      </trkpt>
      <trkpt lat="47.25032" lon="4.9205">
        <ele>507</ele>
        <time>2012-04-01T10:04:49Z</time>
      </trkpt>
      <trkpt lat="47.25037" lon="4.92073">
        <ele>509</ele>
        <time>2012-04-01T10:04:56Z</time>
      </trkpt>
      <trkpt lat="47.25042" lon="4.92097">
        <ele>510</ele>
        <time>2012-04-01T10:05:03Z</time>
      </trkpt>
      <trkpt lat="47.25047" lon="4.9212">
        <ele>511</ele>
        <time>2012-04-01T10:05:11Z</time>
      </trkpt>
      <trkpt lat="47.2505" lon="4.92145">
        <ele>513</ele>
        <time>2012-04-01T10:05:18Z</time>
      </trkpt>
      <trkpt lat="47.2505" lon="4.9217">
        <ele>516</ele>
        <time>2012-04-01T10:05:25Z</time>
      </trkpt>
      <trkpt lat="47.25052" lon="4.92197">
        <ele>519</ele>
        <time>2012-04-01T10:05:35Z</time>
      </trkpt>
      <trkpt lat="47.25053" lon="4.92222">
        <ele>522</ele>
        <time>2012-04-01T10:05:45Z</time>
      </trkpt>
      <trkpt lat="47.25057" lon="4.92245">
        <ele>521</ele>
        <time>2012-04-01T10:05:52Z</time>
      </trkpt>
      <trkpt lat="47.25057" lon="4.9227">
        <ele>521</ele>
        <time>2012-04-01T10:06:00Z</time>
      </trkpt>
      <trkpt lat="47.2506" lon="4.92297">
        <ele>521</ele>
        <time>2012-04-01T10:06:07Z</time>
      </trkpt>
      <trkpt lat="47.25067" lon="4.92327">
        <ele>521</ele>
        <time>2012-04-01T10:06:17Z</time>
      </trkpt>
      <trkpt lat="47.25068" lon="4.92348">
        <ele>522</ele>
        <time>2012-04-01T10:06:24Z</time>
      </trkpt>
      <trkpt lat="47.25072" lon="4.9237">
        <ele>521</ele>
        <time>2012-04-01T10:06:32Z</time>
      </trkpt>
      <trkpt lat="47.2508" lon="4.92397">
        <ele>521</ele>
        <time>2012-04-01T10:06:39Z</time>
      </trkpt>
      <trkpt lat="47.25085" lon="4.9242">
        <ele>520</ele>
        <time>2012-04-01T10:06:47Z</time>
      </trkpt>
      <trkpt lat="47.25092" lon="4.92455">
        <ele>517</ele>
        <time>2012-04-01T10:06:56Z</time>
      </trkpt>
      <trkpt lat="47.25097" lon="4.9248">
        <ele>521</ele>
        <time>2012-04-01T10:07:04Z</time>
      </trkpt>
      <trkpt lat="47.251" lon="4.92507">
        <ele>522</ele>
        <time>2012-04-01T10:07:11Z</time>
      </trkpt>
      <trkpt lat="47.25102" lon="4.92532">
        <ele>524</ele>
        <time>2012-04-01T10:07:19Z</time>
      </trkpt>
      <trkpt lat="47.25105" lon="4.92562">
        <ele>527</ele>
        <time>2012-04-01T10:07:26Z</time>
      </trkpt>
      <trkpt lat="47.2511" lon="4.92585">
        <ele>533</ele>
        <time>2012-04-01T10:07:33Z</time>
      </trkpt>
      <trkpt lat="47.2511" lon="4.92608">
        <ele>537</ele>
        <time>2012-04-01T10:07:41Z</time>
      </trkpt>
      <trkpt lat="47.25113" lon="4.92632">
        <ele>538</ele>
        <time>2012-04-01T10:07:48Z</time>
      </trkpt>
      <trkpt lat="47.25118" lon="4.9267">
        <ele>534</ele>
        <time>2012-04-01T10:07:58Z</time>
      </trkpt>
      <trkpt lat="47.25118" lon="4.92707">
        <ele>529</ele>
        <time>2012-04-01T10:08:08Z</time>
      </trkpt>
      <trkpt lat="47.25113" lon="4.92732">
        <ele>530</ele>
        <time>2012-04-01T10:08:15Z</time>
      </trkpt>
      <trkpt lat="47.25107" lon="4.92763">
        <ele>532</ele>
        <time>2012-04-01T10:08:22Z</time>
      </trkpt>
      <trkpt lat="47.25103" lon="4.92785">
        <ele>533</ele>
        <time>2012-04-01T10:08:27Z</time>
      </trkpt>
      <trkpt lat="47.25105" lon="4.92805">
        <ele>534</ele>
        <time>2012-04-01T10:08:32Z</time>
      </trkpt>
      <trkpt lat="47.25103" lon="4.92825">
        <ele>534</ele>
        <time>2012-04-01T10:08:37Z</time>
      </trkpt>
      <trkpt lat="47.25105" lon="4.92852">
        <ele>532</ele>
        <time>2012-04-01T10:08:44Z</time>
      </trkpt>
      <trkpt lat="47.25093" lon="4.92862">
        <ele>541</ele>
        <time>2012-04-01T10:09:05Z</time>
      </trkpt>
      <trkpt lat="47.25088" lon="4.92885">
        <ele>539</ele>
        <time>2012-04-01T10:10:46Z</time>
      </trkpt>
      <trkpt lat="47.25073" lon="4.9291">
        <ele>540</ele>
        <time>2012-04-01T10:10:53Z</time>
      </trkpt>
      <trkpt lat="47.25058" lon="4.92933">
        <ele>540</ele>
        <time>2012-04-01T10:11:00Z</time>
      </trkpt>
      <trkpt lat="47.25042" lon="4.92955">
        <ele>540</ele>
        <time>2012-04-01T10:11:07Z</time>
      </trkpt>
      <trkpt lat="47.25028" lon="4.92972">
        <ele>541</ele>
        <time>2012-04-01T10:11:12Z</time>
      </trkpt>
      <trkpt lat="47.25017" lon="4.92987">
        <ele>541</ele>
        <time>2012-04-01T10:11:17Z</time>
      </trkpt>
      <trkpt lat="47.25005" lon="4.92998">
        <ele>540</ele>
        <time>2012-04-01T10:11:22Z</time>
      </trkpt>
      <trkpt lat="47.24995" lon="4.93013">
        <ele>542</ele>
        <time>2012-04-01T10:11:27Z</time>
      </trkpt>
      <trkpt lat="47.24988" lon="4.93035">
        <ele>543</ele>
        <time>2012-04-01T10:11:32Z</time>
      </trkpt>
      <trkpt lat="47.24982" lon="4.93058">
        <ele>543</ele>
        <time>2012-04-01T10:11:37Z</time>
      </trkpt>
      <trkpt lat="47.24975" lon="4.93095">
        <ele>540</ele>
        <time>2012-04-01T10:11:44Z</time>
      </trkpt>
      <trkpt lat="47.24963" lon="4.93122">
        <ele>537</ele>
        <time>2012-04-01T10:11:49Z</time>
      </trkpt>
      <trkpt lat="47.24953" lon="4.93153">
        <ele>536</ele>
        <time>2012-04-01T10:11:53Z</time>
      </trkpt>
      <trkpt lat="47.2494" lon="4.93188">
        <ele>534</ele>
        <time>2012-04-01T10:11:58Z</time>
      </trkpt>
      <trkpt lat="47.24908" lon="4.93272">
        <ele>533</ele>
        <time>2012-04-01T10:12:10Z</time>
      </trkpt>
      <trkpt lat="47.2489" lon="4.93312">
        <ele>532</ele>
        <time>2012-04-01T10:12:15Z</time>
      </trkpt>
      <trkpt lat="47.24868" lon="4.93352">
        <ele>527</ele>
        <time>2012-04-01T10:12:20Z</time>
      </trkpt>
      <trkpt lat="47.24858" lon="4.93367">
        <ele>525</ele>
        <time>2012-04-01T10:12:23Z</time>
      </trkpt>
      <trkpt lat="47.24775" lon="4.93495">
        <ele>516</ele>
        <time>2012-04-01T10:12:40Z</time>
      </trkpt>
      <trkpt lat="47.24758" lon="4.93518">
        <ele>513</ele>
        <time>2012-04-01T10:12:42Z</time>
      </trkpt>
      <trkpt lat="47.2475" lon="4.93537">
        <ele>510</ele>
        <time>2012-04-01T10:12:45Z</time>
      </trkpt>
      <trkpt lat="47.2474" lon="4.93565">
        <ele>507</ele>
        <time>2012-04-01T10:12:47Z</time>
      </trkpt>
      <trkpt lat="47.2472" lon="4.93598">
        <ele>503</ele>
        <time>2012-04-01T10:12:52Z</time>
      </trkpt>
      <trkpt lat="47.2471" lon="4.93638">
        <ele>502</ele>
        <time>2012-04-01T10:12:57Z</time>
      </trkpt>
      <trkpt lat="47.24703" lon="4.93682">
        <ele>503</ele>
        <time>2012-04-01T10:13:02Z</time>
      </trkpt>
      <trkpt lat="47.24692" lon="4.93728">
        <ele>500</ele>
        <time>2012-04-01T10:13:07Z</time>
      </trkpt>
      <trkpt lat="47.24682" lon="4.9376">
        <ele>498</ele>
        <time>2012-04-01T10:13:12Z</time>
      </trkpt>
      <trkpt lat="47.24682" lon="4.938">
        <ele>497</ele>
        <time>2012-04-01T10:13:17Z</time>
      </trkpt>
      <trkpt lat="47.24685" lon="4.93847">
        <ele>501</ele>
        <time>2012-04-01T10:13:22Z</time>
      </trkpt>
      <trkpt lat="47.24693" lon="4.9388">
        <ele>502</ele>
        <time>2012-04-01T10:13:24Z</time>
      </trkpt>
      <trkpt lat="47.2471" lon="4.9394">
        <ele>502</ele>
        <time>2012-04-01T10:13:29Z</time>
      </trkpt>
      <trkpt lat="47.24718" lon="4.9396">
        <ele>503</ele>
        <time>2012-04-01T10:13:31Z</time>
      </trkpt>
      <trkpt lat="47.24727" lon="4.93982">
        <ele>505</ele>
        <time>2012-04-01T10:13:34Z</time>
      </trkpt>
      <trkpt lat="47.24738" lon="4.94013">
        <ele>507</ele>
        <time>2012-04-01T10:13:36Z</time>
      </trkpt>
      <trkpt lat="47.2476" lon="4.9406">
        <ele>505</ele>
        <time>2012-04-01T10:13:41Z</time>
      </trkpt>
      <trkpt lat="47.2477" lon="4.94078">
        <ele>503</ele>
        <time>2012-04-01T10:13:43Z</time>
      </trkpt>
      <trkpt lat="47.24818" lon="4.94172">
        <ele>499</ele>
        <time>2012-04-01T10:13:53Z</time>
      </trkpt>
      <trkpt lat="47.24827" lon="4.94192">
        <ele>495</ele>
        <time>2012-04-01T10:13:56Z</time>
      </trkpt>
      <trkpt lat="47.2484" lon="4.94217">
        <ele>492</ele>
        <time>2012-04-01T10:13:58Z</time>
      </trkpt>
      <trkpt lat="47.24865" lon="4.9427">
        <ele>488</ele>
        <time>2012-04-01T10:14:03Z</time>
      </trkpt>
      <trkpt lat="47.24887" lon="4.94322">
        <ele>487</ele>
        <time>2012-04-01T10:14:08Z</time>
      </trkpt>
      <trkpt lat="47.24903" lon="4.94367">
        <ele>484</ele>
        <time>2012-04-01T10:14:13Z</time>
      </trkpt>
      <trkpt lat="47.24917" lon="4.94398">
        <ele>480</ele>
        <time>2012-04-01T10:14:15Z</time>
      </trkpt>
      <trkpt lat="47.24947" lon="4.94472">
        <ele>471</ele>
        <time>2012-04-01T10:14:23Z</time>
      </trkpt>
      <trkpt lat="47.2495" lon="4.94492">
        <ele>468</ele>
        <time>2012-04-01T10:14:30Z</time>
      </trkpt>
      <trkpt lat="47.24952" lon="4.94512">
        <ele>459</ele>
        <time>2012-04-01T10:14:53Z</time>
      </trkpt>
      <trkpt lat="47.2497" lon="4.94533">
        <ele>463</ele>
        <time>2012-04-01T10:15:00Z</time>
      </trkpt>
      <trkpt lat="47.24985" lon="4.94562">
        <ele>464</ele>
        <time>2012-04-01T10:15:05Z</time>
      </trkpt>
      <trkpt lat="47.25012" lon="4.94613">
        <ele>464</ele>
        <time>2012-04-01T10:15:12Z</time>
      </trkpt>
      <trkpt lat="47.25038" lon="4.9467">
        <ele>465</ele>
        <time>2012-04-01T10:15:19Z</time>
      </trkpt>
      <trkpt lat="47.25048" lon="4.94687">
        <ele>465</ele>
        <time>2012-04-01T10:15:22Z</time>
      </trkpt>
      <trkpt lat="47.2506" lon="4.94708">
        <ele>466</ele>
        <time>2012-04-01T10:15:24Z</time>
      </trkpt>
      <trkpt lat="47.25087" lon="4.94772">
        <ele>468</ele>
        <time>2012-04-01T10:15:32Z</time>
      </trkpt>
      <trkpt lat="47.25102" lon="4.94817">
        <ele>468</ele>
        <time>2012-04-01T10:15:36Z</time>
      </trkpt>
      <trkpt lat="47.2513" lon="4.94902">
        <ele>459</ele>
        <time>2012-04-01T10:15:46Z</time>
      </trkpt>
      <trkpt lat="47.25142" lon="4.94913">
        <ele>445</ele>
        <time>2012-04-01T10:16:07Z</time>
      </trkpt>
      <trkpt lat="47.2515" lon="4.94893">
        <ele>446</ele>
        <time>2012-04-01T10:17:29Z</time>
      </trkpt>
      <trkpt lat="47.25158" lon="4.94877">
        <ele>449</ele>
        <time>2012-04-01T10:17:39Z</time>
      </trkpt>
      <trkpt lat="47.25165" lon="4.94858">
        <ele>449</ele>
        <time>2012-04-01T10:17:46Z</time>
      </trkpt>
      <trkpt lat="47.25173" lon="4.94838">
        <ele>448</ele>
        <time>2012-04-01T10:17:53Z</time>
      </trkpt>
      <trkpt lat="47.25187" lon="4.94823">
        <ele>452</ele>
        <time>2012-04-01T10:18:03Z</time>
      </trkpt>
      <trkpt lat="47.25198" lon="4.94812">
        <ele>462</ele>
        <time>2012-04-01T10:18:13Z</time>
      </trkpt>
      <trkpt lat="47.25212" lon="4.94795">
        <ele>463</ele>
        <time>2012-04-01T10:18:23Z</time>
      </trkpt>
      <trkpt lat="47.25222" lon="4.94778">
        <ele>464</ele>
        <time>2012-04-01T10:18:30Z</time>
      </trkpt>
      <trkpt lat="47.2524" lon="4.94747">
        <ele>465</ele>
        <time>2012-04-01T10:18:47Z</time>
      </trkpt>
      <trkpt lat="47.25248" lon="4.9473">
        <ele>466</ele>
        <time>2012-04-01T10:18:55Z</time>
      </trkpt>
      <trkpt lat="47.2526" lon="4.94713">
        <ele>472</ele>
        <time>2012-04-01T10:19:05Z</time>
      </trkpt>
      <trkpt lat="47.2527" lon="4.94693">
        <ele>473</ele>
        <time>2012-04-01T10:19:14Z</time>
      </trkpt>
      <trkpt lat="47.25277" lon="4.94675">
        <ele>472</ele>
        <time>2012-04-01T10:19:22Z</time>
      </trkpt>
      <trkpt lat="47.25288" lon="4.94647">
        <ele>475</ele>
        <time>2012-04-01T10:19:34Z</time>
      </trkpt>
      <trkpt lat="47.253" lon="4.94625">
        <ele>476</ele>
        <time>2012-04-01T10:19:44Z</time>
      </trkpt>
      <trkpt lat="47.25313" lon="4.94628">
        <ele>475</ele>
        <time>2012-04-01T10:19:51Z</time>
      </trkpt>
      <trkpt lat="47.25315" lon="4.94648">
        <ele>476</ele>
        <time>2012-04-01T10:19:59Z</time>
      </trkpt>
      <trkpt lat="47.25307" lon="4.9468">
        <ele>477</ele>
        <time>2012-04-01T10:20:09Z</time>
      </trkpt>
      <trkpt lat="47.25302" lon="4.94702">
        <ele>475</ele>
        <time>2012-04-01T10:20:14Z</time>
      </trkpt>
      <trkpt lat="47.25292" lon="4.94742">
        <ele>474</ele>
        <time>2012-04-01T10:20:21Z</time>
      </trkpt>
      <trkpt lat="47.25283" lon="4.94775">
        <ele>473</ele>
        <time>2012-04-01T10:20:29Z</time>
      </trkpt>
      <trkpt lat="47.25282" lon="4.94798">
        <ele>474</ele>
        <time>2012-04-01T10:20:34Z</time>
      </trkpt>
      <trkpt lat="47.25275" lon="4.94828">
        <ele>471</ele>
        <time>2012-04-01T10:20:39Z</time>
      </trkpt>
      <trkpt lat="47.2527" lon="4.94855">
        <ele>469</ele>
        <time>2012-04-01T10:20:44Z</time>
      </trkpt>
      <trkpt lat="47.25263" lon="4.94882">
        <ele>467</ele>
        <time>2012-04-01T10:20:49Z</time>
      </trkpt>
      <trkpt lat="47.25258" lon="4.9491">
        <ele>466</ele>
        <time>2012-04-01T10:20:54Z</time>
      </trkpt>
      <trkpt lat="47.25253" lon="4.94937">
        <ele>465</ele>
        <time>2012-04-01T10:20:58Z</time>
      </trkpt>
      <trkpt lat="47.25235" lon="4.95032">
        <ele>465</ele>
        <time>2012-04-01T10:21:15Z</time>
      </trkpt>
      <trkpt lat="47.25235" lon="4.95057">
        <ele>470</ele>
        <time>2012-04-01T10:21:20Z</time>
      </trkpt>
      <trkpt lat="47.25232" lon="4.95077">
        <ele>473</ele>
        <time>2012-04-01T10:21:25Z</time>
      </trkpt>
      <trkpt lat="47.25225" lon="4.95107">
        <ele>473</ele>
        <time>2012-04-01T10:21:30Z</time>
      </trkpt>
      <trkpt lat="47.25217" lon="4.95153">
        <ele>469</ele>
        <time>2012-04-01T10:21:37Z</time>
      </trkpt>
      <trkpt lat="47.2522" lon="4.95178">
        <ele>467</ele>
        <time>2012-04-01T10:21:42Z</time>
      </trkpt>
      <trkpt lat="47.25225" lon="4.95205">
        <ele>465</ele>
        <time>2012-04-01T10:21:47Z</time>
      </trkpt>
      <trkpt lat="47.25232" lon="4.9523">
        <ele>464</ele>
        <time>2012-04-01T10:21:52Z</time>
      </trkpt>
      <trkpt lat="47.25237" lon="4.95255">
        <ele>464</ele>
        <time>2012-04-01T10:21:56Z</time>
      </trkpt>
      <trkpt lat="47.25242" lon="4.95277">
        <ele>464</ele>
        <time>2012-04-01T10:22:01Z</time>
      </trkpt>
      <trkpt lat="47.25247" lon="4.95302">
        <ele>464</ele>
        <time>2012-04-01T10:22:08Z</time>
      </trkpt>
      <trkpt lat="47.25247" lon="4.95322">
        <ele>463</ele>
        <time>2012-04-01T10:22:13Z</time>
      </trkpt>
      <trkpt lat="47.25248" lon="4.95343">
        <ele>463</ele>
        <time>2012-04-01T10:22:18Z</time>
      </trkpt>
      <trkpt lat="47.2526" lon="4.95362">
        <ele>463</ele>
        <time>2012-04-01T10:22:25Z</time>
      </trkpt>
      <trkpt lat="47.25273" lon="4.95357">
        <ele>463</ele>
        <time>2012-04-01T10:22:30Z</time>
      </trkpt>
      <trkpt lat="47.25287" lon="4.95348">
        <ele>463</ele>
        <time>2012-04-01T10:22:35Z</time>
      </trkpt>
      <trkpt lat="47.25305" lon="4.95338">
        <ele>465</ele>
        <time>2012-04-01T10:22:42Z</time>
      </trkpt>
      <trkpt lat="47.25322" lon="4.95332">
        <ele>467</ele>
        <time>2012-04-01T10:22:49Z</time>
      </trkpt>
      <trkpt lat="47.25335" lon="4.95327">
        <ele>468</ele>
        <time>2012-04-01T10:22:54Z</time>
      </trkpt>
      <trkpt lat="47.25357" lon="4.95315">
        <ele>469</ele>
        <time>2012-04-01T10:23:01Z</time>
      </trkpt>
      <trkpt lat="47.2537" lon="4.95303">
        <ele>470</ele>
        <time>2012-04-01T10:23:06Z</time>
      </trkpt>
      <trkpt lat="47.25382" lon="4.9529">
        <ele>470</ele>
        <time>2012-04-01T10:23:11Z</time>
      </trkpt>
      <trkpt lat="47.2544" lon="4.95228">
        <ele>472</ele>
        <time>2012-04-01T10:23:35Z</time>
      </trkpt>
      <trkpt lat="47.25463" lon="4.95207">
        <ele>472</ele>
        <time>2012-04-01T10:23:45Z</time>
      </trkpt>
      <trkpt lat="47.25477" lon="4.95195">
        <ele>471</ele>
        <time>2012-04-01T10:23:50Z</time>
      </trkpt>
      <trkpt lat="47.25493" lon="4.95177">
        <ele>471</ele>
        <time>2012-04-01T10:23:57Z</time>
      </trkpt>
      <trkpt lat="47.25507" lon="4.95163">
        <ele>473</ele>
        <time>2012-04-01T10:24:04Z</time>
      </trkpt>
      <trkpt lat="47.25522" lon="4.95165">
        <ele>472</ele>
        <time>2012-04-01T10:24:09Z</time>
      </trkpt>
      <trkpt lat="47.25542" lon="4.95165">
        <ele>472</ele>
        <time>2012-04-01T10:24:16Z</time>
      </trkpt>
      <trkpt lat="47.2556" lon="4.95163">
        <ele>472</ele>
        <time>2012-04-01T10:24:21Z</time>
      </trkpt>
      <trkpt lat="47.25578" lon="4.9516">
        <ele>472</ele>
        <time>2012-04-01T10:24:26Z</time>
      </trkpt>
      <trkpt lat="47.25607" lon="4.95153">
        <ele>472</ele>
        <time>2012-04-01T10:24:33Z</time>
      </trkpt>
      <trkpt lat="47.25623" lon="4.95147">
        <ele>472</ele>
        <time>2012-04-01T10:24:39Z</time>
      </trkpt>
      <trkpt lat="47.2564" lon="4.9514">
        <ele>473</ele>
        <time>2012-04-01T10:24:43Z</time>
      </trkpt>
      <trkpt lat="47.25658" lon="4.95123">
        <ele>475</ele>
        <time>2012-04-01T10:24:48Z</time>
      </trkpt>
      <trkpt lat="47.25672" lon="4.95107">
        <ele>478</ele>
        <time>2012-04-01T10:24:53Z</time>
      </trkpt>
      <trkpt lat="47.25685" lon="4.95087">
        <ele>476</ele>
        <time>2012-04-01T10:24:58Z</time>
      </trkpt>
      <trkpt lat="47.25703" lon="4.95058">
        <ele>476</ele>
        <time>2012-04-01T10:25:05Z</time>
      </trkpt>
      <trkpt lat="47.25718" lon="4.95045">
        <ele>475</ele>
        <time>2012-04-01T10:25:10Z</time>
      </trkpt>
      <trkpt lat="47.2572" lon="4.9502">
        <ele>475</ele>
        <time>2012-04-01T10:25:39Z</time>
      </trkpt>
      <trkpt lat="47.25717" lon="4.94993">
        <ele>477</ele>
        <time>2012-04-01T10:25:47Z</time>
      </trkpt>
      <trkpt lat="47.2571" lon="4.94968">
        <ele>480</ele>
        <time>2012-04-01T10:25:54Z</time>
      </trkpt>
      <trkpt lat="47.25703" lon="4.9494">
        <ele>480</ele>
        <time>2012-04-01T10:26:01Z</time>
      </trkpt>
      <trkpt lat="47.25695" lon="4.94917">
        <ele>482</ele>
        <time>2012-04-01T10:26:08Z</time>
      </trkpt>
      <trkpt lat="47.25685" lon="4.94883">
        <ele>482</ele>
        <time>2012-04-01T10:26:18Z</time>
      </trkpt>
      <trkpt lat="47.2567" lon="4.94868">
        <ele>480</ele>
        <time>2012-04-01T10:26:25Z</time>
      </trkpt>
      <trkpt lat="47.25657" lon="4.94863">
        <ele>480</ele>
        <time>2012-04-01T10:26:30Z</time>
      </trkpt>
      <trkpt lat="47.25633" lon="4.94857">
        <ele>480</ele>
        <time>2012-04-01T10:26:40Z</time>
      </trkpt>
      <trkpt lat="47.2562" lon="4.94848">
        <ele>482</ele>
        <time>2012-04-01T10:26:47Z</time>
      </trkpt>
      <trkpt lat="47.25605" lon="4.94835">
        <ele>483</ele>
        <time>2012-04-01T10:26:54Z</time>
      </trkpt>
      <trkpt lat="47.25592" lon="4.94825">
        <ele>482</ele>
        <time>2012-04-01T10:26:59Z</time>
      </trkpt>
      <trkpt lat="47.2558" lon="4.94815">
        <ele>481</ele>
        <time>2012-04-01T10:27:06Z</time>
      </trkpt>
      <trkpt lat="47.25585" lon="4.94793">
        <ele>482</ele>
        <time>2012-04-01T10:27:13Z</time>
      </trkpt>
      <trkpt lat="47.25588" lon="4.94772">
        <ele>483</ele>
        <time>2012-04-01T10:27:21Z</time>
      </trkpt>
      <trkpt lat="47.25598" lon="4.94713">
        <ele>485</ele>
        <time>2012-04-01T10:27:38Z</time>
      </trkpt>
      <trkpt lat="47.25602" lon="4.94692">
        <ele>485</ele>
        <time>2012-04-01T10:27:50Z</time>
      </trkpt>
      <trkpt lat="47.25607" lon="4.9467">
        <ele>487</ele>
        <time>2012-04-01T10:27:57Z</time>
      </trkpt>
      <trkpt lat="47.25612" lon="4.94647">
        <ele>489</ele>
        <time>2012-04-01T10:28:04Z</time>
      </trkpt>
      <trkpt lat="47.25613" lon="4.94627">
        <ele>492</ele>
        <time>2012-04-01T10:28:12Z</time>
      </trkpt>
      <trkpt lat="47.25618" lon="4.94603">
        <ele>494</ele>
        <time>2012-04-01T10:28:19Z</time>
      </trkpt>
      <trkpt lat="47.25628" lon="4.94577">
        <ele>491</ele>
        <time>2012-04-01T10:28:26Z</time>
      </trkpt>
      <trkpt lat="47.25633" lon="4.94547">
        <ele>488</ele>
        <time>2012-04-01T10:28:33Z</time>
      </trkpt>
      <trkpt lat="47.25637" lon="4.94523">
        <ele>485</ele>
        <time>2012-04-01T10:28:38Z</time>
      </trkpt>
      <trkpt lat="47.25643" lon="4.94498">
        <ele>487</ele>
        <time>2012-04-01T10:28:48Z</time>
      </trkpt>
      <trkpt lat="47.25648" lon="4.94477">
        <ele>490</ele>
        <time>2012-04-01T10:28:55Z</time>
      </trkpt>
      <trkpt lat="47.25658" lon="4.94447">
        <ele>490</ele>
        <time>2012-04-01T10:29:02Z</time>
      </trkpt>
      <trkpt lat="47.25663" lon="4.94425">
        <ele>490</ele>
        <time>2012-04-01T10:29:07Z</time>
      </trkpt>
      <trkpt lat="47.2567" lon="4.94398">
        <ele>492</ele>
        <time>2012-04-01T10:29:14Z</time>
      </trkpt>
      <trkpt lat="47.25677" lon="4.94377">
        <ele>491</ele>
        <time>2012-04-01T10:29:19Z</time>
      </trkpt>
      <trkpt lat="47.25688" lon="4.9435">
        <ele>490</ele>
        <time>2012-04-01T10:29:26Z</time>
      </trkpt>
      <trkpt lat="47.25705" lon="4.9432">
        <ele>488</ele>
        <time>2012-04-01T10:29:36Z</time>
      </trkpt>
      <trkpt lat="47.25715" lon="4.94302">
        <ele>486</ele>
        <time>2012-04-01T10:29:41Z</time>
      </trkpt>
      <trkpt lat="47.25728" lon="4.94278">
        <ele>489</ele>
        <time>2012-04-01T10:29:48Z</time>
      </trkpt>
      <trkpt lat="47.25738" lon="4.94257">
        <ele>492</ele>
        <time>2012-04-01T10:29:55Z</time>
      </trkpt>
      <trkpt lat="47.25748" lon="4.9424">
        <ele>495</ele>
        <time>2012-04-01T10:30:03Z</time>
      </trkpt>
      <trkpt lat="47.25757" lon="4.9422">
        <ele>500</ele>
        <time>2012-04-01T10:30:10Z</time>
      </trkpt>
      <trkpt lat="47.2577" lon="4.94193">
        <ele>504</ele>
        <time>2012-04-01T10:30:17Z</time>
      </trkpt>
      <trkpt lat="47.2578" lon="4.94175">
        <ele>503</ele>
        <time>2012-04-01T10:30:25Z</time>
      </trkpt>
      <trkpt lat="47.2579" lon="4.94152">
        <ele>504</ele>
        <time>2012-04-01T10:30:32Z</time>
      </trkpt>
      <trkpt lat="47.258" lon="4.94127">
        <ele>504</ele>
        <time>2012-04-01T10:30:41Z</time>
      </trkpt>
      <trkpt lat="47.25812" lon="4.94113">
        <ele>503</ele>
        <time>2012-04-01T10:30:49Z</time>
      </trkpt>
      <trkpt lat="47.25823" lon="4.94098">
        <ele>503</ele>
        <time>2012-04-01T10:30:56Z</time>
      </trkpt>
      <trkpt lat="47.2582" lon="4.94075">
        <ele>503</ele>
        <time>2012-04-01T10:31:03Z</time>
      </trkpt>
      <trkpt lat="47.2581" lon="4.94055">
        <ele>506</ele>
        <time>2012-04-01T10:31:10Z</time>
      </trkpt>
      <trkpt lat="47.25797" lon="4.94037">
        <ele>509</ele>
        <time>2012-04-01T10:31:18Z</time>
      </trkpt>
      <trkpt lat="47.25783" lon="4.94025">
        <ele>509</ele>
        <time>2012-04-01T10:31:23Z</time>
      </trkpt>
      <trkpt lat="47.2577" lon="4.94012">
        <ele>511</ele>
        <time>2012-04-01T10:31:28Z</time>
      </trkpt>
      <trkpt lat="47.25773" lon="4.93987">
        <ele>512</ele>
        <time>2012-04-01T10:31:38Z</time>
      </trkpt>
      <trkpt lat="47.25778" lon="4.93965">
        <ele>513</ele>
        <time>2012-04-01T10:31:45Z</time>
      </trkpt>
      <trkpt lat="47.25785" lon="4.93942">
        <ele>512</ele>
        <time>2012-04-01T10:31:53Z</time>
      </trkpt>
      <trkpt lat="47.2579" lon="4.93913">
        <ele>512</ele>
        <time>2012-04-01T10:32:00Z</time>
      </trkpt>
      <trkpt lat="47.25793" lon="4.93885">
        <ele>511</ele>
        <time>2012-04-01T10:32:07Z</time>
      </trkpt>
      <trkpt lat="47.25795" lon="4.93858">
        <ele>510</ele>
        <time>2012-04-01T10:32:15Z</time>
      </trkpt>
      <trkpt lat="47.25802" lon="4.93797">
        <ele>507</ele>
        <time>2012-04-01T10:32:32Z</time>
      </trkpt>
      <trkpt lat="47.25805" lon="4.93773">
        <ele>508</ele>
        <time>2012-04-01T10:32:39Z</time>
      </trkpt>
      <trkpt lat="47.25802" lon="4.93747">
        <ele>510</ele>
        <time>2012-04-01T10:32:46Z</time>
      </trkpt>
      <trkpt lat="47.25798" lon="4.9371">
        <ele>514</ele>
        <time>2012-04-01T10:32:55Z</time>
      </trkpt>
      <trkpt lat="47.25795" lon="4.93685">
        <ele>514</ele>
        <time>2012-04-01T10:33:03Z</time>
      </trkpt>
      <trkpt lat="47.2579" lon="4.93643">
        <ele>516</ele>
        <time>2012-04-01T10:33:15Z</time>
      </trkpt>
      <trkpt lat="47.25787" lon="4.93623">
        <ele>517</ele>
        <time>2012-04-01T10:33:23Z</time>
      </trkpt>
      <trkpt lat="47.25783" lon="4.93597">
        <ele>519</ele>
        <time>2012-04-01T10:33:30Z</time>
      </trkpt>
      <trkpt lat="47.2578" lon="4.9357">
        <ele>517</ele>
        <time>2012-04-01T10:33:37Z</time>
      </trkpt>
      <trkpt lat="47.25772" lon="4.9355">
        <ele>518</ele>
        <time>2012-04-01T10:33:44Z</time>
      </trkpt>
      <trkpt lat="47.25763" lon="4.9353">
        <ele>520</ele>
        <time>2012-04-01T10:33:52Z</time>
      </trkpt>
      <trkpt lat="47.25757" lon="4.93508">
        <ele>523</ele>
        <time>2012-04-01T10:33:59Z</time>
      </trkpt>
      <trkpt lat="47.25753" lon="4.93477">
        <ele>525</ele>
        <time>2012-04-01T10:34:06Z</time>
      </trkpt>
      <trkpt lat="47.2575" lon="4.93455">
        <ele>525</ele>
        <time>2012-04-01T10:34:11Z</time>
      </trkpt>
      <trkpt lat="47.25747" lon="4.93428">
        <ele>528</ele>
        <time>2012-04-01T10:34:18Z</time>
      </trkpt>
      <trkpt lat="47.25748" lon="4.93403">
        <ele>527</ele>
        <time>2012-04-01T10:34:26Z</time>
      </trkpt>
      <trkpt lat="47.25758" lon="4.93378">
        <ele>525</ele>
        <time>2012-04-01T10:34:33Z</time>
      </trkpt>
      <trkpt lat="47.25772" lon="4.93347">
        <ele>527</ele>
        <time>2012-04-01T10:34:43Z</time>
      </trkpt>
      <trkpt lat="47.25782" lon="4.9332">
        <ele>526</ele>
        <time>2012-04-01T10:34:51Z</time>
      </trkpt>
      <trkpt lat="47.25788" lon="4.933">
        <ele>525</ele>
        <time>2012-04-01T10:34:55Z</time>
      </trkpt>
      <trkpt lat="47.258" lon="4.9327">
        <ele>523</ele>
        <time>2012-04-01T10:35:03Z</time>
      </trkpt>
      <trkpt lat="47.25807" lon="4.9325">
        <ele>522</ele>
        <time>2012-04-01T10:35:08Z</time>
      </trkpt>
      <trkpt lat="47.2582" lon="4.932">
        <ele>525</ele>
        <time>2012-04-01T10:35:20Z</time>
      </trkpt>
      <trkpt lat="47.25828" lon="4.93175">
        <ele>529</ele>
        <time>2012-04-01T10:35:28Z</time>
      </trkpt>
      <trkpt lat="47.25837" lon="4.93138">
        <ele>532</ele>
        <time>2012-04-01T10:35:38Z</time>
      </trkpt>
      <trkpt lat="47.25843" lon="4.9312">
        <ele>532</ele>
        <time>2012-04-01T10:35:42Z</time>
      </trkpt>
      <trkpt lat="47.25855" lon="4.931">
        <ele>533</ele>
        <time>2012-04-01T10:35:50Z</time>
      </trkpt>
      <trkpt lat="47.25863" lon="4.93082">
        <ele>533</ele>
        <time>2012-04-01T10:35:54Z</time>
      </trkpt>
      <trkpt lat="47.25872" lon="4.93063">
        <ele>533</ele>
        <time>2012-04-01T10:35:59Z</time>
      </trkpt>
      <trkpt lat="47.2588" lon="4.9304">
        <ele>534</ele>
        <time>2012-04-01T10:36:06Z</time>
      </trkpt>
      <trkpt lat="47.25887" lon="4.93022">
        <ele>534</ele>
        <time>2012-04-01T10:36:11Z</time>
      </trkpt>
      <trkpt lat="47.25897" lon="4.93005">
        <ele>533</ele>
        <time>2012-04-01T10:36:16Z</time>
      </trkpt>
      <trkpt lat="47.25903" lon="4.92982">
        <ele>533</ele>
        <time>2012-04-01T10:36:21Z</time>
      </trkpt>
      <trkpt lat="47.25908" lon="4.9296">
        <ele>532</ele>
        <time>2012-04-01T10:36:26Z</time>
      </trkpt>
      <trkpt lat="47.25923" lon="4.92962">
        <ele>531</ele>
        <time>2012-04-01T10:36:34Z</time>
      </trkpt>
      <trkpt lat="47.25937" lon="4.92973">
        <ele>536</ele>
        <time>2012-04-01T10:36:41Z</time>
      </trkpt>
      <trkpt lat="47.25948" lon="4.92983">
        <ele>538</ele>
        <time>2012-04-01T10:36:46Z</time>
      </trkpt>
      <trkpt lat="47.25965" lon="4.92997">
        <ele>540</ele>
        <time>2012-04-01T10:36:53Z</time>
      </trkpt>
      <trkpt lat="47.25987" lon="4.93015">
        <ele>541</ele>
        <time>2012-04-01T10:37:03Z</time>
      </trkpt>
      <trkpt lat="47.26005" lon="4.93028">
        <ele>539</ele>
        <time>2012-04-01T10:37:10Z</time>
      </trkpt>
      <trkpt lat="47.26052" lon="4.93067">
        <ele>534</ele>
        <time>2012-04-01T10:37:27Z</time>
      </trkpt>
      <trkpt lat="47.26095" lon="4.93102">
        <ele>530</ele>
        <time>2012-04-01T10:37:39Z</time>
      </trkpt>
      <trkpt lat="47.26108" lon="4.93107">
        <ele>530</ele>
        <time>2012-04-01T10:37:41Z</time>
      </trkpt>
      <trkpt lat="47.26148" lon="4.93122">
        <ele>526</ele>
        <time>2012-04-01T10:37:51Z</time>
      </trkpt>
      <trkpt lat="47.26168" lon="4.93128">
        <ele>525</ele>
        <time>2012-04-01T10:37:56Z</time>
      </trkpt>
      <trkpt lat="47.26198" lon="4.93137">
        <ele>524</ele>
        <time>2012-04-01T10:38:03Z</time>
      </trkpt>
      <trkpt lat="47.26323" lon="4.93173">
        <ele>523</ele>
        <time>2012-04-01T10:38:34Z</time>
      </trkpt>
      <trkpt lat="47.2635" lon="4.93185">
        <ele>524</ele>
        <time>2012-04-01T10:38:42Z</time>
      </trkpt>
      <trkpt lat="47.26363" lon="4.93192">
        <ele>525</ele>
        <time>2012-04-01T10:38:44Z</time>
      </trkpt>
      <trkpt lat="47.26382" lon="4.9321">
        <ele>526</ele>
        <time>2012-04-01T10:38:49Z</time>
      </trkpt>
      <trkpt lat="47.26412" lon="4.9324">
        <ele>528</ele>
        <time>2012-04-01T10:38:59Z</time>
      </trkpt>
      <trkpt lat="47.26518" lon="4.93357">
        <ele>534</ele>
        <time>2012-04-01T10:39:27Z</time>
      </trkpt>
      <trkpt lat="47.26595" lon="4.93438">
        <ele>533</ele>
        <time>2012-04-01T10:39:44Z</time>
      </trkpt>
      <trkpt lat="47.2662" lon="4.93463">
        <ele>530</ele>
        <time>2012-04-01T10:39:49Z</time>
      </trkpt>
      <trkpt lat="47.26633" lon="4.93478">
        <ele>530</ele>
        <time>2012-04-01T10:39:51Z</time>
      </trkpt>
      <trkpt lat="47.26652" lon="4.93497">
        <ele>529</ele>
        <time>2012-04-01T10:39:56Z</time>
      </trkpt>
      <trkpt lat="47.2667" lon="4.93518">
        <ele>528</ele>
        <time>2012-04-01T10:40:01Z</time>
      </trkpt>
      <trkpt lat="47.2668" lon="4.93532">
        <ele>528</ele>
        <time>2012-04-01T10:40:03Z</time>
      </trkpt>
      <trkpt lat="47.26697" lon="4.9355">
        <ele>528</ele>
        <time>2012-04-01T10:40:08Z</time>
      </trkpt>
      <trkpt lat="47.26723" lon="4.93582">
        <ele>529</ele>
        <time>2012-04-01T10:40:18Z</time>
      </trkpt>
      <trkpt lat="47.26738" lon="4.93597">
        <ele>530</ele>
        <time>2012-04-01T10:40:23Z</time>
      </trkpt>
      <trkpt lat="47.26758" lon="4.93622">
        <ele>526</ele>
        <time>2012-04-01T10:40:30Z</time>
      </trkpt>
      <trkpt lat="47.26775" lon="4.93638">
        <ele>523</ele>
        <time>2012-04-01T10:40:35Z</time>
      </trkpt>
      <trkpt lat="47.268" lon="4.93665">
        <ele>520</ele>
        <time>2012-04-01T10:40:42Z</time>
      </trkpt>
      <trkpt lat="47.2683" lon="4.93697">
        <ele>519</ele>
        <time>2012-04-01T10:40:51Z</time>
      </trkpt>
      <trkpt lat="47.26848" lon="4.93712">
        <ele>518</ele>
        <time>2012-04-01T10:40:56Z</time>
      </trkpt>
      <trkpt lat="47.26867" lon="4.93723">
        <ele>517</ele>
        <time>2012-04-01T10:41:01Z</time>
      </trkpt>
      <trkpt lat="47.26887" lon="4.93732">
        <ele>517</ele>
        <time>2012-04-01T10:41:06Z</time>
      </trkpt>
      <trkpt lat="47.26902" lon="4.93733">
        <ele>517</ele>
        <time>2012-04-01T10:41:11Z</time>
      </trkpt>
      <trkpt lat="47.26922" lon="4.93737">
        <ele>517</ele>
        <time>2012-04-01T10:41:15Z</time>
      </trkpt>
      <trkpt lat="47.2694" lon="4.93747">
        <ele>517</ele>
        <time>2012-04-01T10:41:20Z</time>
      </trkpt>
      <trkpt lat="47.26955" lon="4.93755">
        <ele>517</ele>
        <time>2012-04-01T10:41:25Z</time>
      </trkpt>
      <trkpt lat="47.26987" lon="4.93768">
        <ele>517</ele>
        <time>2012-04-01T10:41:32Z</time>
      </trkpt>
      <trkpt lat="47.2712" lon="4.9383">
        <ele>514</ele>
        <time>2012-04-01T10:42:05Z</time>
      </trkpt>
      <trkpt lat="47.27135" lon="4.93837">
        <ele>514</ele>
        <time>2012-04-01T10:42:10Z</time>
      </trkpt>
      <trkpt lat="47.27153" lon="4.93847">
        <ele>514</ele>
        <time>2012-04-01T10:42:15Z</time>
      </trkpt>
      <trkpt lat="47.2717" lon="4.93848">
        <ele>514</ele>
        <time>2012-04-01T10:42:19Z</time>
      </trkpt>
      <trkpt lat="47.27178" lon="4.9383">
        <ele>514</ele>
        <time>2012-04-01T10:42:24Z</time>
      </trkpt>
      <trkpt lat="47.2719" lon="4.93805">
        <ele>515</ele>
        <time>2012-04-01T10:42:31Z</time>
      </trkpt>
      <trkpt lat="47.272" lon="4.93787">
        <ele>515</ele>
        <time>2012-04-01T10:42:36Z</time>
      </trkpt>
      <trkpt lat="47.27217" lon="4.9375">
        <ele>516</ele>
        <time>2012-04-01T10:42:46Z</time>
      </trkpt>
      <trkpt lat="47.27238" lon="4.93705">
        <ele>516</ele>
        <time>2012-04-01T10:42:55Z</time>
      </trkpt>
      <trkpt lat="47.27248" lon="4.9368">
        <ele>516</ele>
        <time>2012-04-01T10:43:00Z</time>
      </trkpt>
      <trkpt lat="47.27272" lon="4.93618">
        <ele>516</ele>
        <time>2012-04-01T10:43:12Z</time>
      </trkpt>
      <trkpt lat="47.27278" lon="4.93597">
        <ele>516</ele>
        <time>2012-04-01T10:43:17Z</time>
      </trkpt>
      <trkpt lat="47.27285" lon="4.93573">
        <ele>516</ele>
        <time>2012-04-01T10:43:22Z</time>
      </trkpt>
      <trkpt lat="47.27297" lon="4.9354">
        <ele>516</ele>
        <time>2012-04-01T10:43:31Z</time>
      </trkpt>
      <trkpt lat="47.27303" lon="4.93515">
        <ele>516</ele>
        <time>2012-04-01T10:43:36Z</time>
      </trkpt>
      <trkpt lat="47.27313" lon="4.93488">
        <ele>516</ele>
        <time>2012-04-01T10:43:41Z</time>
      </trkpt>
      <trkpt lat="47.27325" lon="4.93463">
        <ele>516</ele>
        <time>2012-04-01T10:43:45Z</time>
      </trkpt>
      <trkpt lat="47.27337" lon="4.93442">
        <ele>515</ele>
        <time>2012-04-01T10:43:50Z</time>
      </trkpt>
      <trkpt lat="47.27357" lon="4.93415">
        <ele>513</ele>
        <time>2012-04-01T10:43:55Z</time>
      </trkpt>
      <trkpt lat="47.2737" lon="4.93398">
        <ele>512</ele>
        <time>2012-04-01T10:43:57Z</time>
      </trkpt>
      <trkpt lat="47.27382" lon="4.93387">
        <ele>511</ele>
        <time>2012-04-01T10:44:00Z</time>
      </trkpt>
      <trkpt lat="47.2742" lon="4.93343">
        <ele>507</ele>
        <time>2012-04-01T10:44:06Z</time>
      </trkpt>
      <trkpt lat="47.27458" lon="4.93297">
        <ele>503</ele>
        <time>2012-04-01T10:44:13Z</time>
      </trkpt>
      <trkpt lat="47.27482" lon="4.9325">
        <ele>500</ele>
        <time>2012-04-01T10:44:18Z</time>
      </trkpt>
      <trkpt lat="47.27488" lon="4.93228">
        <ele>499</ele>
        <time>2012-04-01T10:44:20Z</time>
      </trkpt>
      <trkpt lat="47.27495" lon="4.93205">
        <ele>497</ele>
        <time>2012-04-01T10:44:22Z</time>
      </trkpt>
      <trkpt lat="47.27497" lon="4.93178">
        <ele>496</ele>
        <time>2012-04-01T10:44:25Z</time>
      </trkpt>
      <trkpt lat="47.27495" lon="4.9315">
        <ele>495</ele>
        <time>2012-04-01T10:44:27Z</time>
      </trkpt>
      <trkpt lat="47.27493" lon="4.93107">
        <ele>493</ele>
        <time>2012-04-01T10:44:29Z</time>
      </trkpt>
      <trkpt lat="47.27507" lon="4.93043">
        <ele>493</ele>
        <time>2012-04-01T10:44:34Z</time>
      </trkpt>
      <trkpt lat="47.27523" lon="4.93003">
        <ele>495</ele>
        <time>2012-04-01T10:44:39Z</time>
      </trkpt>
      <trkpt lat="47.27537" lon="4.92973">
        <ele>500</ele>
        <time>2012-04-01T10:44:46Z</time>
      </trkpt>
      <trkpt lat="47.27548" lon="4.92953">
        <ele>502</ele>
        <time>2012-04-01T10:44:53Z</time>
      </trkpt>
      <trkpt lat="47.27558" lon="4.92933">
        <ele>504</ele>
        <time>2012-04-01T10:45:01Z</time>
      </trkpt>
      <trkpt lat="47.2757" lon="4.92907">
        <ele>508</ele>
        <time>2012-04-01T10:45:10Z</time>
      </trkpt>
      <trkpt lat="47.2758" lon="4.92892">
        <ele>509</ele>
        <time>2012-04-01T10:45:17Z</time>
      </trkpt>
      <trkpt lat="47.27587" lon="4.92873">
        <ele>510</ele>
        <time>2012-04-01T10:45:24Z</time>
      </trkpt>
      <trkpt lat="47.27593" lon="4.92852">
        <ele>511</ele>
        <time>2012-04-01T10:45:31Z</time>
      </trkpt>
      <trkpt lat="47.27578" lon="4.92842">
        <ele>511</ele>
        <time>2012-04-01T10:45:38Z</time>
      </trkpt>
      <trkpt lat="47.27565" lon="4.92828">
        <ele>511</ele>
        <time>2012-04-01T10:45:45Z</time>
      </trkpt>
      <trkpt lat="47.27553" lon="4.92817">
        <ele>511</ele>
        <time>2012-04-01T10:45:50Z</time>
      </trkpt>
      <trkpt lat="47.27533" lon="4.9279">
        <ele>511</ele>
        <time>2012-04-01T10:45:59Z</time>
      </trkpt>
      <trkpt lat="47.27518" lon="4.92762">
        <ele>512</ele>
        <time>2012-04-01T10:46:09Z</time>
      </trkpt>
      <trkpt lat="47.27505" lon="4.92735">
        <ele>513</ele>
        <time>2012-04-01T10:46:18Z</time>
      </trkpt>
      <trkpt lat="47.27495" lon="4.92722">
        <ele>517</ele>
        <time>2012-04-01T10:46:25Z</time>
      </trkpt>
      <trkpt lat="47.27483" lon="4.92703">
        <ele>519</ele>
        <time>2012-04-01T10:46:35Z</time>
      </trkpt>
      <trkpt lat="47.27473" lon="4.9269">
        <ele>521</ele>
        <time>2012-04-01T10:46:42Z</time>
      </trkpt>
      <trkpt lat="47.27465" lon="4.92667">
        <ele>524</ele>
        <time>2012-04-01T10:46:54Z</time>
      </trkpt>
      <trkpt lat="47.27457" lon="4.92648">
        <ele>525</ele>
        <time>2012-04-01T10:47:04Z</time>
      </trkpt>
      <trkpt lat="47.2745" lon="4.9263">
        <ele>528</ele>
        <time>2012-04-01T10:47:16Z</time>
      </trkpt>
      <trkpt lat="47.2745" lon="4.92602">
        <ele>531</ele>
        <time>2012-04-01T10:47:35Z</time>
      </trkpt>
      <trkpt lat="47.27445" lon="4.9258">
        <ele>536</ele>
        <time>2012-04-01T10:47:59Z</time>
      </trkpt>
      <trkpt lat="47.27437" lon="4.92543">
        <ele>540</ele>
        <time>2012-04-01T10:48:16Z</time>
      </trkpt>
      <trkpt lat="47.27433" lon="4.9252">
        <ele>543</ele>
        <time>2012-04-01T10:48:25Z</time>
      </trkpt>
      <trkpt lat="47.27428" lon="4.92498">
        <ele>546</ele>
        <time>2012-04-01T10:48:35Z</time>
      </trkpt>
      <trkpt lat="47.27422" lon="4.92472">
        <ele>552</ele>
        <time>2012-04-01T10:48:44Z</time>
      </trkpt>
      <trkpt lat="47.27427" lon="4.92447">
        <ele>548</ele>
        <time>2012-04-01T10:48:51Z</time>
      </trkpt>
      <trkpt lat="47.27432" lon="4.92422">
        <ele>545</ele>
        <time>2012-04-01T10:48:56Z</time>
      </trkpt>
      <trkpt lat="47.27433" lon="4.92392">
        <ele>540</ele>
        <time>2012-04-01T10:49:03Z</time>
      </trkpt>
      <trkpt lat="47.2743" lon="4.9237">
        <ele>539</ele>
        <time>2012-04-01T10:49:11Z</time>
      </trkpt>
      <trkpt lat="47.27425" lon="4.9235">
        <ele>538</ele>
        <time>2012-04-01T10:49:15Z</time>
      </trkpt>
      <trkpt lat="47.27418" lon="4.92328">
        <ele>533</ele>
        <time>2012-04-01T10:49:20Z</time>
      </trkpt>
      <trkpt lat="47.2741" lon="4.92305">
        <ele>532</ele>
        <time>2012-04-01T10:49:27Z</time>
      </trkpt>
      <trkpt lat="47.27402" lon="4.92285">
        <ele>531</ele>
        <time>2012-04-01T10:49:32Z</time>
      </trkpt>
      <trkpt lat="47.27385" lon="4.92238">
        <ele>529</ele>
        <time>2012-04-01T10:49:42Z</time>
      </trkpt>
      <trkpt lat="47.27375" lon="4.92203">
        <ele>526</ele>
        <time>2012-04-01T10:49:46Z</time>
      </trkpt>
      <trkpt lat="47.27372" lon="4.92177">
        <ele>522</ele>
        <time>2012-04-01T10:49:51Z</time>
      </trkpt>
      <trkpt lat="47.27365" lon="4.92155">
        <ele>519</ele>
        <time>2012-04-01T10:49:56Z</time>
      </trkpt>
      <trkpt lat="47.27352" lon="4.92145">
        <ele>523</ele>
        <time>2012-04-01T10:50:03Z</time>
      </trkpt>
      <trkpt lat="47.27338" lon="4.92142">
        <ele>528</ele>
        <time>2012-04-01T10:50:13Z</time>
      </trkpt>
      <trkpt lat="47.27323" lon="4.92132">
        <ele>537</ele>
        <time>2012-04-01T10:50:25Z</time>
      </trkpt>
      <trkpt lat="47.27312" lon="4.92117">
        <ele>541</ele>
        <time>2012-04-01T10:50:32Z</time>
      </trkpt>
      <trkpt lat="47.27303" lon="4.92095">
        <ele>543</ele>
        <time>2012-04-01T10:50:41Z</time>
      </trkpt>
      <trkpt lat="47.27293" lon="4.9208">
        <ele>543</ele>
        <time>2012-04-01T10:50:48Z</time>
      </trkpt>
      <trkpt lat="47.27283" lon="4.92058">
        <ele>542</ele>
        <time>2012-04-01T10:50:56Z</time>
      </trkpt>
      <trkpt lat="47.27275" lon="4.9204">
        <ele>543</ele>
        <time>2012-04-01T10:51:03Z</time>
      </trkpt>
      <trkpt lat="47.27265" lon="4.92025">
        <ele>544</ele>
        <time>2012-04-01T10:51:10Z</time>
      </trkpt>
      <trkpt lat="47.27257" lon="4.92007">
        <ele>545</ele>
        <time>2012-04-01T10:51:17Z</time>
      </trkpt>
      <trkpt lat="47.27247" lon="4.91992">
        <ele>544</ele>
        <time>2012-04-01T10:51:24Z</time>
      </trkpt>
      <trkpt lat="47.27243" lon="4.91968">
        <ele>542</ele>
        <time>2012-04-01T10:51:31Z</time>
      </trkpt>
      <trkpt lat="47.27233" lon="4.91948">
        <ele>539</ele>
        <time>2012-04-01T10:51:41Z</time>
      </trkpt>
      <trkpt lat="47.27223" lon="4.9193">
        <ele>541</ele>
        <time>2012-04-01T10:51:48Z</time>
      </trkpt>
      <trkpt lat="47.2721" lon="4.91917">
        <ele>540</ele>
        <time>2012-04-01T10:51:56Z</time>
      </trkpt>
      <trkpt lat="47.27197" lon="4.91908">
        <ele>541</ele>
        <time>2012-04-01T10:52:03Z</time>
      </trkpt>
      <trkpt lat="47.27187" lon="4.91895">
        <ele>544</ele>
        <time>2012-04-01T10:52:10Z</time>
      </trkpt>
      <trkpt lat="47.27172" lon="4.91878">
        <ele>545</ele>
        <time>2012-04-01T10:52:20Z</time>
      </trkpt>
      <trkpt lat="47.27175" lon="4.91858">
        <ele>553</ele>
        <time>2012-04-01T10:52:44Z</time>
      </trkpt>
      <trkpt lat="47.2716" lon="4.91845">
        <ele>546</ele>
        <time>2012-04-01T10:52:51Z</time>
      </trkpt>
      <trkpt lat="47.27163" lon="4.9182">
        <ele>538</ele>
        <time>2012-04-01T10:52:59Z</time>
      </trkpt>
      <trkpt lat="47.27177" lon="4.91797">
        <ele>532</ele>
        <time>2012-04-01T10:53:04Z</time>
      </trkpt>
      <trkpt lat="47.27187" lon="4.91783">
        <ele>529</ele>
        <time>2012-04-01T10:53:06Z</time>
      </trkpt>
      <trkpt lat="47.27202" lon="4.91772">
        <ele>526</ele>
        <time>2012-04-01T10:53:11Z</time>
      </trkpt>
      <trkpt lat="47.27215" lon="4.91777">
        <ele>528</ele>
        <time>2012-04-01T10:53:13Z</time>
      </trkpt>
      <trkpt lat="47.27235" lon="4.91798">
        <ele>525</ele>
        <time>2012-04-01T10:53:18Z</time>
      </trkpt>
      <trkpt lat="47.27247" lon="4.9181">
        <ele>523</ele>
        <time>2012-04-01T10:53:23Z</time>
      </trkpt>
      <trkpt lat="47.2726" lon="4.9182">
        <ele>519</ele>
        <time>2012-04-01T10:53:30Z</time>
      </trkpt>
      <trkpt lat="47.2728" lon="4.91827">
        <ele>516</ele>
        <time>2012-04-01T10:53:35Z</time>
      </trkpt>
      <trkpt lat="47.27297" lon="4.91832">
        <ele>512</ele>
        <time>2012-04-01T10:53:40Z</time>
      </trkpt>
      <trkpt lat="47.2731" lon="4.91835">
        <ele>508</ele>
        <time>2012-04-01T10:53:42Z</time>
      </trkpt>
      <trkpt lat="47.27325" lon="4.91832">
        <ele>504</ele>
        <time>2012-04-01T10:53:47Z</time>
      </trkpt>
      <trkpt lat="47.27338" lon="4.9182">
        <ele>500</ele>
        <time>2012-04-01T10:53:52Z</time>
      </trkpt>
      <trkpt lat="47.27352" lon="4.91805">
        <ele>499</ele>
        <time>2012-04-01T10:53:57Z</time>
      </trkpt>
      <trkpt lat="47.27363" lon="4.91788">
        <ele>495</ele>
        <time>2012-04-01T10:54:02Z</time>
      </trkpt>
      <trkpt lat="47.27375" lon="4.91778">
        <ele>485</ele>
        <time>2012-04-01T10:54:13Z</time>
      </trkpt>
      <trkpt lat="47.27393" lon="4.91793">
        <ele>486</ele>
        <time>2012-04-01T10:54:50Z</time>
      </trkpt>
      <trkpt lat="47.27405" lon="4.91808">
        <ele>483</ele>
        <time>2012-04-01T10:54:55Z</time>
      </trkpt>
      <trkpt lat="47.27415" lon="4.91827">
        <ele>479</ele>
        <time>2012-04-01T10:55:00Z</time>
      </trkpt>
      <trkpt lat="47.2743" lon="4.91847">
        <ele>478</ele>
        <time>2012-04-01T10:55:05Z</time>
      </trkpt>
      <trkpt lat="47.27455" lon="4.91878">
        <ele>477</ele>
        <time>2012-04-01T10:55:12Z</time>
      </trkpt>
      <trkpt lat="47.27472" lon="4.91887">
        <ele>477</ele>
        <time>2012-04-01T10:55:17Z</time>
      </trkpt>
      <trkpt lat="47.27485" lon="4.91897">
        <ele>477</ele>
        <time>2012-04-01T10:55:22Z</time>
      </trkpt>
      <trkpt lat="47.275" lon="4.91912">
        <ele>476</ele>
        <time>2012-04-01T10:55:26Z</time>
      </trkpt>
      <trkpt lat="47.27525" lon="4.91935">
        <ele>476</ele>
        <time>2012-04-01T10:55:34Z</time>
      </trkpt>
      <trkpt lat="47.27542" lon="4.91953">
        <ele>476</ele>
        <time>2012-04-01T10:55:39Z</time>
      </trkpt>
      <trkpt lat="47.27558" lon="4.9197">
        <ele>476</ele>
        <time>2012-04-01T10:55:43Z</time>
      </trkpt>
      <trkpt lat="47.2762" lon="4.92037">
        <ele>474</ele>
        <time>2012-04-01T10:56:03Z</time>
      </trkpt>
      <trkpt lat="47.27628" lon="4.92053">
        <ele>474</ele>
        <time>2012-04-01T10:56:08Z</time>
      </trkpt>
      <trkpt lat="47.27647" lon="4.92087">
        <ele>474</ele>
        <time>2012-04-01T10:56:15Z</time>
      </trkpt>
      <trkpt lat="47.2766" lon="4.921">
        <ele>473</ele>
        <time>2012-04-01T10:56:20Z</time>
      </trkpt>
      <trkpt lat="47.27675" lon="4.92107">
        <ele>472</ele>
        <time>2012-04-01T10:56:22Z</time>
      </trkpt>
      <trkpt lat="47.27692" lon="4.92118">
        <ele>471</ele>
        <time>2012-04-01T10:56:27Z</time>
      </trkpt>
      <trkpt lat="47.27703" lon="4.92135">
        <ele>471</ele>
        <time>2012-04-01T10:56:29Z</time>
      </trkpt>
      <trkpt lat="47.2772" lon="4.92162">
        <ele>472</ele>
        <time>2012-04-01T10:56:34Z</time>
      </trkpt>
      <trkpt lat="47.27738" lon="4.9218">
        <ele>474</ele>
        <time>2012-04-01T10:56:39Z</time>
      </trkpt>
      <trkpt lat="47.27755" lon="4.9219">
        <ele>474</ele>
        <time>2012-04-01T10:56:44Z</time>
      </trkpt>
      <trkpt lat="47.27772" lon="4.92195">
        <ele>473</ele>
        <time>2012-04-01T10:56:49Z</time>
      </trkpt>
      <trkpt lat="47.27785" lon="4.92182">
        <ele>473</ele>
        <time>2012-04-01T10:56:53Z</time>
      </trkpt>
      <trkpt lat="47.27788" lon="4.92162">
        <ele>473</ele>
        <time>2012-04-01T10:56:58Z</time>
      </trkpt>
      <trkpt lat="47.27787" lon="4.92135">
        <ele>473</ele>
        <time>2012-04-01T10:57:05Z</time>
      </trkpt>
      <trkpt lat="47.27783" lon="4.92113">
        <ele>474</ele>
        <time>2012-04-01T10:57:12Z</time>
      </trkpt>
      <trkpt lat="47.27778" lon="4.92083">
        <ele>475</ele>
        <time>2012-04-01T10:57:22Z</time>
      </trkpt>
      <trkpt lat="47.27773" lon="4.92063">
        <ele>476</ele>
        <time>2012-04-01T10:57:29Z</time>
      </trkpt>
      <trkpt lat="47.2777" lon="4.92043">
        <ele>477</ele>
        <time>2012-04-01T10:57:37Z</time>
      </trkpt>
      <trkpt lat="47.27768" lon="4.92023">
        <ele>478</ele>
        <time>2012-04-01T10:57:44Z</time>
      </trkpt>
      <trkpt lat="47.27767" lon="4.92003">
        <ele>480</ele>
        <time>2012-04-01T10:57:54Z</time>
      </trkpt>
      <trkpt lat="47.2777" lon="4.91983">
        <ele>483</ele>
        <time>2012-04-01T10:58:01Z</time>
      </trkpt>
      <trkpt lat="47.27778" lon="4.91963">
        <ele>488</ele>
        <time>2012-04-01T10:58:11Z</time>
      </trkpt>
      <trkpt lat="47.27788" lon="4.9195">
        <ele>488</ele>
        <time>2012-04-01T10:58:18Z</time>
      </trkpt>
      <trkpt lat="47.27798" lon="4.9193">
        <ele>489</ele>
        <time>2012-04-01T10:58:28Z</time>
      </trkpt>
      <trkpt lat="47.27808" lon="4.9191">
        <ele>491</ele>
        <time>2012-04-01T10:58:38Z</time>
      </trkpt>
      <trkpt lat="47.27823" lon="4.91882">
        <ele>492</ele>
        <time>2012-04-01T10:58:55Z</time>
      </trkpt>
      <trkpt lat="47.27837" lon="4.91852">
        <ele>494</ele>
        <time>2012-04-01T10:59:12Z</time>
      </trkpt>
      <trkpt lat="47.27843" lon="4.91832">
        <ele>497</ele>
        <time>2012-04-01T10:59:21Z</time>
      </trkpt>
      <trkpt lat="47.2785" lon="4.91812">
        <ele>497</ele>
        <time>2012-04-01T10:59:31Z</time>
      </trkpt>
      <trkpt lat="47.27855" lon="4.91787">
        <ele>499</ele>
        <time>2012-04-01T10:59:43Z</time>
      </trkpt>
      <trkpt lat="47.27855" lon="4.91767">
        <ele>501</ele>
        <time>2012-04-01T10:59:53Z</time>
      </trkpt>
      <trkpt lat="47.27855" lon="4.91737">
        <ele>502</ele>
        <time>2012-04-01T11:00:05Z</time>
      </trkpt>
      <trkpt lat="47.27858" lon="4.91713">
        <ele>502</ele>
        <time>2012-04-01T11:00:15Z</time>
      </trkpt>
      <trkpt lat="47.27863" lon="4.91693">
        <ele>503</ele>
        <time>2012-04-01T11:00:22Z</time>
      </trkpt>
      <trkpt lat="47.2787" lon="4.91673">
        <ele>503</ele>
        <time>2012-04-01T11:00:31Z</time>
      </trkpt>
      <trkpt lat="47.27883" lon="4.9166">
        <ele>507</ele>
        <time>2012-04-01T11:00:41Z</time>
      </trkpt>
      <trkpt lat="47.27902" lon="4.9166">
        <ele>509</ele>
        <time>2012-04-01T11:00:51Z</time>
      </trkpt>
      <trkpt lat="47.27917" lon="4.91657">
        <ele>510</ele>
        <time>2012-04-01T11:01:00Z</time>
      </trkpt>
      <trkpt lat="47.2793" lon="4.9165">
        <ele>511</ele>
        <time>2012-04-01T11:01:08Z</time>
      </trkpt>
      <trkpt lat="47.27943" lon="4.91643">
        <ele>510</ele>
        <time>2012-04-01T11:01:15Z</time>
      </trkpt>
      <trkpt lat="47.27962" lon="4.91643">
        <ele>512</ele>
        <time>2012-04-01T11:01:24Z</time>
      </trkpt>
      <trkpt lat="47.27977" lon="4.91652">
        <ele>513</ele>
        <time>2012-04-01T11:01:33Z</time>
      </trkpt>
      <trkpt lat="47.27988" lon="4.91665">
        <ele>515</ele>
        <time>2012-04-01T11:01:42Z</time>
      </trkpt>
      <trkpt lat="47.28" lon="4.9168">
        <ele>515</ele>
        <time>2012-04-01T11:01:52Z</time>
      </trkpt>
      <trkpt lat="47.28013" lon="4.91698">
        <ele>518</ele>
        <time>2012-04-01T11:02:04Z</time>
      </trkpt>
      <trkpt lat="47.28023" lon="4.91717">
        <ele>532</ele>
        <time>2012-04-01T11:02:21Z</time>
      </trkpt>
      <trkpt lat="47.28033" lon="4.91735">
        <ele>531</ele>
        <time>2012-04-01T11:02:31Z</time>
      </trkpt>
      <trkpt lat="47.28048" lon="4.91743">
        <ele>534</ele>
        <time>2012-04-01T11:02:40Z</time>
      </trkpt>
      <trkpt lat="47.28063" lon="4.91748">
        <ele>539</ele>
        <time>2012-04-01T11:02:49Z</time>
      </trkpt>
      <trkpt lat="47.2808" lon="4.91748">
        <ele>542</ele>
        <time>2012-04-01T11:02:57Z</time>
      </trkpt>
      <trkpt lat="47.28097" lon="4.91752">
        <ele>539</ele>
        <time>2012-04-01T11:03:02Z</time>
      </trkpt>
      <trkpt lat="47.28112" lon="4.91757">
        <ele>537</ele>
        <time>2012-04-01T11:03:06Z</time>
      </trkpt>
      <trkpt lat="47.28133" lon="4.91763">
        <ele>533</ele>
        <time>2012-04-01T11:03:13Z</time>
      </trkpt>
      <trkpt lat="47.28147" lon="4.91767">
        <ele>532</ele>
        <time>2012-04-01T11:03:18Z</time>
      </trkpt>
      <trkpt lat="47.28163" lon="4.9177">
        <ele>529</ele>
        <time>2012-04-01T11:03:25Z</time>
      </trkpt>
      <trkpt lat="47.28178" lon="4.91768">
        <ele>528</ele>
        <time>2012-04-01T11:03:30Z</time>
      </trkpt>
      <trkpt lat="47.28198" lon="4.91763">
        <ele>529</ele>
        <time>2012-04-01T11:03:34Z</time>
      </trkpt>
      <trkpt lat="47.2822" lon="4.91763">
        <ele>528</ele>
        <time>2012-04-01T11:03:39Z</time>
      </trkpt>
      <trkpt lat="47.28237" lon="4.91763">
        <ele>525</ele>
        <time>2012-04-01T11:03:44Z</time>
      </trkpt>
      <trkpt lat="47.28253" lon="4.91757">
        <ele>523</ele>
        <time>2012-04-01T11:03:46Z</time>
      </trkpt>
      <trkpt lat="47.28285" lon="4.91752">
        <ele>518</ele>
        <time>2012-04-01T11:03:51Z</time>
      </trkpt>
      <trkpt lat="47.2831" lon="4.91758">
        <ele>514</ele>
        <time>2012-04-01T11:03:56Z</time>
      </trkpt>
      <trkpt lat="47.28355" lon="4.91773">
        <ele>514</ele>
        <time>2012-04-01T11:04:03Z</time>
      </trkpt>
      <trkpt lat="47.28373" lon="4.9178">
        <ele>514</ele>
        <time>2012-04-01T11:04:05Z</time>
      </trkpt>
      <trkpt lat="47.28397" lon="4.91792">
        <ele>513</ele>
        <time>2012-04-01T11:04:10Z</time>
      </trkpt>
      <trkpt lat="47.28455" lon="4.9182">
        <ele>512</ele>
        <time>2012-04-01T11:04:19Z</time>
      </trkpt>
      <trkpt lat="47.28473" lon="4.91818">
        <ele>516</ele>
        <time>2012-04-01T11:04:24Z</time>
      </trkpt>
      <trkpt lat="47.28492" lon="4.91818">
        <ele>522</ele>
        <time>2012-04-01T11:04:29Z</time>
      </trkpt>
      <trkpt lat="47.28512" lon="4.91818">
        <ele>523</ele>
        <time>2012-04-01T11:04:34Z</time>
      </trkpt>
      <trkpt lat="47.28525" lon="4.91822">
        <ele>524</ele>
        <time>2012-04-01T11:04:38Z</time>
      </trkpt>
      <trkpt lat="47.2854" lon="4.91828">
        <ele>526</ele>
        <time>2012-04-01T11:04:43Z</time>
      </trkpt>
      <trkpt lat="47.28582" lon="4.91838">
        <ele>525</ele>
        <time>2012-04-01T11:04:55Z</time>
      </trkpt>
      <trkpt lat="47.28602" lon="4.91842">
        <ele>528</ele>
        <time>2012-04-01T11:05:00Z</time>
      </trkpt>
      <trkpt lat="47.2862" lon="4.91847">
        <ele>527</ele>
        <time>2012-04-01T11:05:05Z</time>
      </trkpt>
      <trkpt lat="47.2864" lon="4.91852">
        <ele>530</ele>
        <time>2012-04-01T11:05:09Z</time>
      </trkpt>
      <trkpt lat="47.2866" lon="4.91853">
        <ele>530</ele>
        <time>2012-04-01T11:05:14Z</time>
      </trkpt>
      <trkpt lat="47.28692" lon="4.91855">
        <ele>526</ele>
        <time>2012-04-01T11:05:21Z</time>
      </trkpt>
      <trkpt lat="47.28713" lon="4.91852">
        <ele>525</ele>
        <time>2012-04-01T11:05:26Z</time>
      </trkpt>
      <trkpt lat="47.2875" lon="4.91848">
        <ele>527</ele>
        <time>2012-04-01T11:05:33Z</time>
      </trkpt>
      <trkpt lat="47.28768" lon="4.91852">
        <ele>528</ele>
        <time>2012-04-01T11:05:38Z</time>
      </trkpt>
      <trkpt lat="47.2881" lon="4.91855">
        <ele>521</ele>
        <time>2012-04-01T11:05:47Z</time>
      </trkpt>
      <trkpt lat="47.28832" lon="4.91858">
        <ele>521</ele>
        <time>2012-04-01T11:05:52Z</time>
      </trkpt>
      <trkpt lat="47.28845" lon="4.91862">
        <ele>520</ele>
        <time>2012-04-01T11:05:57Z</time>
      </trkpt>
      <trkpt lat="47.28863" lon="4.91872">
        <ele>518</ele>
        <time>2012-04-01T11:06:01Z</time>
      </trkpt>
      <trkpt lat="47.2888" lon="4.91878">
        <ele>519</ele>
        <time>2012-04-01T11:06:06Z</time>
      </trkpt>
      <trkpt lat="47.28898" lon="4.91885">
        <ele>518</ele>
        <time>2012-04-01T11:06:11Z</time>
      </trkpt>
      <trkpt lat="47.28912" lon="4.91892">
        <ele>516</ele>
        <time>2012-04-01T11:06:13Z</time>
      </trkpt>
      <trkpt lat="47.28932" lon="4.91905">
        <ele>515</ele>
        <time>2012-04-01T11:06:18Z</time>
      </trkpt>
      <trkpt lat="47.28947" lon="4.91917">
        <ele>515</ele>
        <time>2012-04-01T11:06:23Z</time>
      </trkpt>
      <trkpt lat="47.28965" lon="4.91932">
        <ele>519</ele>
        <time>2012-04-01T11:06:27Z</time>
      </trkpt>
      <trkpt lat="47.28978" lon="4.91953">
        <ele>519</ele>
        <time>2012-04-01T11:06:32Z</time>
      </trkpt>
      <trkpt lat="47.28998" lon="4.91975">
        <ele>527</ele>
        <time>2012-04-01T11:06:40Z</time>
      </trkpt>
      <trkpt lat="47.29012" lon="4.91983">
        <ele>532</ele>
        <time>2012-04-01T11:06:42Z</time>
      </trkpt>
      <trkpt lat="47.29027" lon="4.91993">
        <ele>537</ele>
        <time>2012-04-01T11:06:47Z</time>
      </trkpt>
      <trkpt lat="47.29052" lon="4.9201">
        <ele>534</ele>
        <time>2012-04-01T11:06:54Z</time>
      </trkpt>
      <trkpt lat="47.29068" lon="4.92018">
        <ele>529</ele>
        <time>2012-04-01T11:06:58Z</time>
      </trkpt>
      <trkpt lat="47.29093" lon="4.92032">
        <ele>522</ele>
        <time>2012-04-01T11:07:06Z</time>
      </trkpt>
      <trkpt lat="47.2911" lon="4.92037">
        <ele>524</ele>
        <time>2012-04-01T11:07:10Z</time>
      </trkpt>
      <trkpt lat="47.29127" lon="4.92042">
        <ele>520</ele>
        <time>2012-04-01T11:07:15Z</time>
      </trkpt>
      <trkpt lat="47.29143" lon="4.92043">
        <ele>519</ele>
        <time>2012-04-01T11:07:20Z</time>
      </trkpt>
      <trkpt lat="47.2916" lon="4.92047">
        <ele>517</ele>
        <time>2012-04-01T11:07:25Z</time>
      </trkpt>
      <trkpt lat="47.29178" lon="4.92052">
        <ele>515</ele>
        <time>2012-04-01T11:07:30Z</time>
      </trkpt>
      <trkpt lat="47.29198" lon="4.92052">
        <ele>513</ele>
        <time>2012-04-01T11:07:35Z</time>
      </trkpt>
      <trkpt lat="47.29215" lon="4.92055">
        <ele>514</ele>
        <time>2012-04-01T11:07:40Z</time>
      </trkpt>
      <trkpt lat="47.29233" lon="4.92063">
        <ele>512</ele>
        <time>2012-04-01T11:07:45Z</time>
      </trkpt>
      <trkpt lat="47.2925" lon="4.92068">
        <ele>512</ele>
        <time>2012-04-01T11:07:50Z</time>
      </trkpt>
      <trkpt lat="47.29273" lon="4.92077">
        <ele>511</ele>
        <time>2012-04-01T11:07:54Z</time>
      </trkpt>
      <trkpt lat="47.2929" lon="4.92088">
        <ele>511</ele>
        <time>2012-04-01T11:07:59Z</time>
      </trkpt>
      <trkpt lat="47.2931" lon="4.92103">
        <ele>513</ele>
        <time>2012-04-01T11:08:04Z</time>
      </trkpt>
      <trkpt lat="47.29332" lon="4.9212">
        <ele>514</ele>
        <time>2012-04-01T11:08:08Z</time>
      </trkpt>
      <trkpt lat="47.29365" lon="4.9214">
        <ele>517</ele>
        <time>2012-04-01T11:08:15Z</time>
      </trkpt>
      <trkpt lat="47.2941" lon="4.92162">
        <ele>520</ele>
        <time>2012-04-01T11:08:24Z</time>
      </trkpt>
      <trkpt lat="47.29428" lon="4.92175">
        <ele>521</ele>
        <time>2012-04-01T11:08:29Z</time>
      </trkpt>
      <trkpt lat="47.29443" lon="4.92193">
        <ele>520</ele>
        <time>2012-04-01T11:08:34Z</time>
      </trkpt>
      <trkpt lat="47.29493" lon="4.92243">
        <ele>520</ele>
        <time>2012-04-01T11:08:45Z</time>
      </trkpt>
      <trkpt lat="47.29508" lon="4.92257">
        <ele>523</ele>
        <time>2012-04-01T11:08:50Z</time>
      </trkpt>
      <trkpt lat="47.29533" lon="4.92273">
        <ele>524</ele>
        <time>2012-04-01T11:08:54Z</time>
      </trkpt>
      <trkpt lat="47.29553" lon="4.92268">
        <ele>528</ele>
        <time>2012-04-01T11:08:59Z</time>
      </trkpt>
      <trkpt lat="47.29572" lon="4.92268">
        <ele>526</ele>
        <time>2012-04-01T11:09:04Z</time>
      </trkpt>
      <trkpt lat="47.29595" lon="4.92268">
        <ele>521</ele>
        <time>2012-04-01T11:09:11Z</time>
      </trkpt>
      <trkpt lat="47.29613" lon="4.92275">
        <ele>517</ele>
        <time>2012-04-01T11:09:18Z</time>
      </trkpt>
      <trkpt lat="47.29628" lon="4.92282">
        <ele>514</ele>
        <time>2012-04-01T11:09:25Z</time>
      </trkpt>
      <trkpt lat="47.29643" lon="4.92283">
        <ele>517</ele>
        <time>2012-04-01T11:09:32Z</time>
      </trkpt>
      <trkpt lat="47.29667" lon="4.92288">
        <ele>517</ele>
        <time>2012-04-01T11:09:44Z</time>
      </trkpt>
      <trkpt lat="47.29682" lon="4.92293">
        <ele>516</ele>
        <time>2012-04-01T11:09:48Z</time>
      </trkpt>
      <trkpt lat="47.29702" lon="4.92298">
        <ele>515</ele>
        <time>2012-04-01T11:09:55Z</time>
      </trkpt>
      <trkpt lat="47.29717" lon="4.923">
        <ele>517</ele>
        <time>2012-04-01T11:10:00Z</time>
      </trkpt>
      <trkpt lat="47.29733" lon="4.92298">
        <ele>518</ele>
        <time>2012-04-01T11:10:02Z</time>
      </trkpt>
      <trkpt lat="47.29757" lon="4.92303">
        <ele>517</ele>
        <time>2012-04-01T11:10:07Z</time>
      </trkpt>
      <trkpt lat="47.29775" lon="4.9231">
        <ele>517</ele>
        <time>2012-04-01T11:10:12Z</time>
      </trkpt>
      <trkpt lat="47.29797" lon="4.92317">
        <ele>518</ele>
        <time>2012-04-01T11:10:16Z</time>
      </trkpt>
      <trkpt lat="47.29812" lon="4.92328">
        <ele>518</ele>
        <time>2012-04-01T11:10:21Z</time>
      </trkpt>
      <trkpt lat="47.29827" lon="4.92345">
        <ele>518</ele>
        <time>2012-04-01T11:10:26Z</time>
      </trkpt>
      <trkpt lat="47.29843" lon="4.92362">
        <ele>519</ele>
        <time>2012-04-01T11:10:30Z</time>
      </trkpt>
      <trkpt lat="47.29863" lon="4.92387">
        <ele>521</ele>
        <time>2012-04-01T11:10:37Z</time>
      </trkpt>
      <trkpt lat="47.29878" lon="4.92417">
        <ele>517</ele>
        <time>2012-04-01T11:10:44Z</time>
      </trkpt>
      <trkpt lat="47.29895" lon="4.92442">
        <ele>513</ele>
        <time>2012-04-01T11:10:51Z</time>
      </trkpt>
      <trkpt lat="47.29905" lon="4.92463">
        <ele>512</ele>
        <time>2012-04-01T11:10:58Z</time>
      </trkpt>
      <trkpt lat="47.29918" lon="4.92485">
        <ele>509</ele>
        <time>2012-04-01T11:11:02Z</time>
      </trkpt>
      <trkpt lat="47.29955" lon="4.92532">
        <ele>508</ele>
        <time>2012-04-01T11:11:14Z</time>
      </trkpt>
      <trkpt lat="47.29965" lon="4.92545">
        <ele>509</ele>
        <time>2012-04-01T11:11:18Z</time>
      </trkpt>
      <trkpt lat="47.29975" lon="4.9257">
        <ele>508</ele>
        <time>2012-04-01T11:11:25Z</time>
      </trkpt>
      <trkpt lat="47.29985" lon="4.92593">
        <ele>507</ele>
        <time>2012-04-01T11:11:32Z</time>
      </trkpt>
      <trkpt lat="47.29995" lon="4.9262">
        <ele>508</ele>
        <time>2012-04-01T11:11:41Z</time>
      </trkpt>
      <trkpt lat="47.30007" lon="4.92642">
        <ele>511</ele>
        <time>2012-04-01T11:11:50Z</time>
      </trkpt>
      <trkpt lat="47.30015" lon="4.9266">
        <ele>513</ele>
        <time>2012-04-01T11:11:57Z</time>
      </trkpt>
      <trkpt lat="47.30022" lon="4.9268">
        <ele>514</ele>
        <time>2012-04-01T11:12:04Z</time>
      </trkpt>
      <trkpt lat="47.30027" lon="4.927">
        <ele>513</ele>
        <time>2012-04-01T11:12:11Z</time>
      </trkpt>
      <trkpt lat="47.30033" lon="4.92722">
        <ele>515</ele>
        <time>2012-04-01T11:12:18Z</time>
      </trkpt>
      <trkpt lat="47.3004" lon="4.92748">
        <ele>511</ele>
        <time>2012-04-01T11:12:25Z</time>
      </trkpt>
      <trkpt lat="47.30043" lon="4.92777">
        <ele>508</ele>
        <time>2012-04-01T11:12:33Z</time>
      </trkpt>
      <trkpt lat="47.30048" lon="4.92797">
        <ele>507</ele>
        <time>2012-04-01T11:12:37Z</time>
      </trkpt>
      <trkpt lat="47.30052" lon="4.92818">
        <ele>506</ele>
        <time>2012-04-01T11:12:42Z</time>
      </trkpt>
      <trkpt lat="47.30055" lon="4.92863">
        <ele>504</ele>
        <time>2012-04-01T11:12:54Z</time>
      </trkpt>
      <trkpt lat="47.30058" lon="4.92885">
        <ele>503</ele>
        <time>2012-04-01T11:12:58Z</time>
      </trkpt>
      <trkpt lat="47.30062" lon="4.9292">
        <ele>505</ele>
        <time>2012-04-01T11:13:05Z</time>
      </trkpt>
      <trkpt lat="47.30062" lon="4.92943">
        <ele>509</ele>
        <time>2012-04-01T11:13:10Z</time>
      </trkpt>
      <trkpt lat="47.3006" lon="4.92972">
        <ele>520</ele>
        <time>2012-04-01T11:13:17Z</time>
      </trkpt>
      <trkpt lat="47.30052" lon="4.92995">
        <ele>531</ele>
        <time>2012-04-01T11:13:24Z</time>
      </trkpt>
      <trkpt lat="47.30045" lon="4.93023">
        <ele>534</ele>
        <time>2012-04-01T11:13:31Z</time>
      </trkpt>
      <trkpt lat="47.30037" lon="4.93052">
        <ele>536</ele>
        <time>2012-04-01T11:13:35Z</time>
      </trkpt>
      <trkpt lat="47.30025" lon="4.93077">
        <ele>534</ele>
        <time>2012-04-01T11:13:39Z</time>
      </trkpt>
      <trkpt lat="47.30008" lon="4.9311">
        <ele>530</ele>
        <time>2012-04-01T11:13:44Z</time>
      </trkpt>
      <trkpt lat="47.29998" lon="4.93135">
        <ele>530</ele>
        <time>2012-04-01T11:13:48Z</time>
      </trkpt>
      <trkpt lat="47.29992" lon="4.9317">
        <ele>528</ele>
        <time>2012-04-01T11:13:53Z</time>
      </trkpt>
      <trkpt lat="47.2999" lon="4.93197">
        <ele>524</ele>
        <time>2012-04-01T11:13:58Z</time>
      </trkpt>
      <trkpt lat="47.29987" lon="4.93243">
        <ele>520</ele>
        <time>2012-04-01T11:14:05Z</time>
      </trkpt>
      <trkpt lat="47.29982" lon="4.93272">
        <ele>519</ele>
        <time>2012-04-01T11:14:09Z</time>
      </trkpt>
      <trkpt lat="47.29977" lon="4.93312">
        <ele>516</ele>
        <time>2012-04-01T11:14:16Z</time>
      </trkpt>
      <trkpt lat="47.29972" lon="4.93332">
        <ele>515</ele>
        <time>2012-04-01T11:14:18Z</time>
      </trkpt>
      <trkpt lat="47.29967" lon="4.93357">
        <ele>515</ele>
        <time>2012-04-01T11:14:23Z</time>
      </trkpt>
      <trkpt lat="47.29958" lon="4.93388">
        <ele>514</ele>
        <time>2012-04-01T11:14:27Z</time>
      </trkpt>
      <trkpt lat="47.2995" lon="4.93413">
        <ele>512</ele>
        <time>2012-04-01T11:14:31Z</time>
      </trkpt>
      <trkpt lat="47.29942" lon="4.93435">
        <ele>511</ele>
        <time>2012-04-01T11:14:36Z</time>
      </trkpt>
      <trkpt lat="47.29928" lon="4.93462">
        <ele>509</ele>
        <time>2012-04-01T11:14:40Z</time>
      </trkpt>
      <trkpt lat="47.29913" lon="4.93483">
        <ele>509</ele>
        <time>2012-04-01T11:14:45Z</time>
      </trkpt>
      <trkpt lat="47.29898" lon="4.93498">
        <ele>506</ele>
        <time>2012-04-01T11:14:50Z</time>
      </trkpt>
      <trkpt lat="47.29882" lon="4.93515">
        <ele>507</ele>
        <time>2012-04-01T11:14:54Z</time>
      </trkpt>
      <trkpt lat="47.29868" lon="4.9353">
        <ele>506</ele>
        <time>2012-04-01T11:14:59Z</time>
      </trkpt>
      <trkpt lat="47.29855" lon="4.93542">
        <ele>508</ele>
        <time>2012-04-01T11:15:03Z</time>
      </trkpt>
      <trkpt lat="47.2984" lon="4.9356">
        <ele>507</ele>
        <time>2012-04-01T11:15:08Z</time>
      </trkpt>
      <trkpt lat="47.29818" lon="4.93587">
        <ele>507</ele>
        <time>2012-04-01T11:15:15Z</time>
      </trkpt>
      <trkpt lat="47.29805" lon="4.93605">
        <ele>507</ele>
        <time>2012-04-01T11:15:20Z</time>
      </trkpt>
      <trkpt lat="47.29768" lon="4.93653">
        <ele>508</ele>
        <time>2012-04-01T11:15:31Z</time>
      </trkpt>
      <trkpt lat="47.29755" lon="4.93667">
        <ele>507</ele>
        <time>2012-04-01T11:15:36Z</time>
      </trkpt>
      <trkpt lat="47.29737" lon="4.93677">
        <ele>505</ele>
        <time>2012-04-01T11:15:40Z</time>
      </trkpt>
      <trkpt lat="47.29705" lon="4.93692">
        <ele>501</ele>
        <time>2012-04-01T11:15:48Z</time>
      </trkpt>
      <trkpt lat="47.29688" lon="4.93695">
        <ele>499</ele>
        <time>2012-04-01T11:15:50Z</time>
      </trkpt>
      <trkpt lat="47.29667" lon="4.937">
        <ele>497</ele>
        <time>2012-04-01T11:15:55Z</time>
      </trkpt>
      <trkpt lat="47.29652" lon="4.93707">
        <ele>496</ele>
        <time>2012-04-01T11:15:57Z</time>
      </trkpt>
      <trkpt lat="47.29638" lon="4.9372">
        <ele>493</ele>
        <time>2012-04-01T11:16:01Z</time>
      </trkpt>
      <trkpt lat="47.29627" lon="4.93737">
        <ele>492</ele>
        <time>2012-04-01T11:16:06Z</time>
      </trkpt>
      <trkpt lat="47.29617" lon="4.93757">
        <ele>491</ele>
        <time>2012-04-01T11:16:08Z</time>
      </trkpt>
      <trkpt lat="47.29607" lon="4.93792">
        <ele>488</ele>
        <time>2012-04-01T11:16:12Z</time>
      </trkpt>
      <trkpt lat="47.29592" lon="4.93852">
        <ele>481</ele>
        <time>2012-04-01T11:16:19Z</time>
      </trkpt>
      <trkpt lat="47.29587" lon="4.93882">
        <ele>479</ele>
        <time>2012-04-01T11:16:21Z</time>
      </trkpt>
      <trkpt lat="47.29585" lon="4.93902">
        <ele>477</ele>
        <time>2012-04-01T11:16:23Z</time>
      </trkpt>
      <trkpt lat="47.29578" lon="4.93935">
        <ele>474</ele>
        <time>2012-04-01T11:16:27Z</time>
      </trkpt>
      <trkpt lat="47.2957" lon="4.93957">
        <ele>474</ele>
        <time>2012-04-01T11:16:31Z</time>
      </trkpt>
      <trkpt lat="47.29558" lon="4.9398">
        <ele>476</ele>
        <time>2012-04-01T11:16:36Z</time>
      </trkpt>
      <trkpt lat="47.29545" lon="4.93998">
        <ele>476</ele>
        <time>2012-04-01T11:16:40Z</time>
      </trkpt>
      <trkpt lat="47.29533" lon="4.94017">
        <ele>476</ele>
        <time>2012-04-01T11:16:44Z</time>
      </trkpt>
      <trkpt lat="47.29525" lon="4.94035">
        <ele>476</ele>
        <time>2012-04-01T11:16:48Z</time>
      </trkpt>
      <trkpt lat="47.29518" lon="4.94062">
        <ele>479</ele>
        <time>2012-04-01T11:16:54Z</time>
      </trkpt>
      <trkpt lat="47.29512" lon="4.94085">
        <ele>477</ele>
        <time>2012-04-01T11:16:59Z</time>
      </trkpt>
      <trkpt lat="47.29503" lon="4.94125">
        <ele>476</ele>
        <time>2012-04-01T11:17:05Z</time>
      </trkpt>
      <trkpt lat="47.29502" lon="4.9415">
        <ele>474</ele>
        <time>2012-04-01T11:17:09Z</time>
      </trkpt>
      <trkpt lat="47.29502" lon="4.94177">
        <ele>473</ele>
        <time>2012-04-01T11:17:14Z</time>
      </trkpt>
      <trkpt lat="47.29505" lon="4.94213">
        <ele>469</ele>
        <time>2012-04-01T11:17:18Z</time>
      </trkpt>
      <trkpt lat="47.29512" lon="4.94238">
        <ele>466</ele>
        <time>2012-04-01T11:17:22Z</time>
      </trkpt>
      <trkpt lat="47.29517" lon="4.9427">
        <ele>464</ele>
        <time>2012-04-01T11:17:27Z</time>
      </trkpt>
      <trkpt lat="47.29522" lon="4.94302">
        <ele>462</ele>
        <time>2012-04-01T11:17:33Z</time>
      </trkpt>
      <trkpt lat="47.2952" lon="4.94328">
        <ele>463</ele>
        <time>2012-04-01T11:17:37Z</time>
      </trkpt>
      <trkpt lat="47.2951" lon="4.94347">
        <ele>465</ele>
        <time>2012-04-01T11:17:41Z</time>
      </trkpt>
      <trkpt lat="47.29495" lon="4.94373">
        <ele>466</ele>
        <time>2012-04-01T11:17:48Z</time>
      </trkpt>
      <trkpt lat="47.29483" lon="4.944">
        <ele>466</ele>
        <time>2012-04-01T11:17:53Z</time>
      </trkpt>
      <trkpt lat="47.29472" lon="4.94435">
        <ele>465</ele>
        <time>2012-04-01T11:17:57Z</time>
      </trkpt>
      <trkpt lat="47.29448" lon="4.94505">
        <ele>462</ele>
        <time>2012-04-01T11:18:08Z</time>
      </trkpt>
      <trkpt lat="47.29433" lon="4.94528">
        <ele>459</ele>
        <time>2012-04-01T11:18:12Z</time>
      </trkpt>
      <trkpt lat="47.29408" lon="4.94568">
        <ele>454</ele>
        <time>2012-04-01T11:18:20Z</time>
      </trkpt>
      <trkpt lat="47.29395" lon="4.94595">
        <ele>451</ele>
        <time>2012-04-01T11:18:22Z</time>
      </trkpt>
      <trkpt lat="47.29358" lon="4.94657">
        <ele>445</ele>
        <time>2012-04-01T11:18:31Z</time>
      </trkpt>
      <trkpt lat="47.29345" lon="4.9468">
        <ele>444</ele>
        <time>2012-04-01T11:18:35Z</time>
      </trkpt>
      <trkpt lat="47.29333" lon="4.947">
        <ele>442</ele>
        <time>2012-04-01T11:18:40Z</time>
      </trkpt>
      <trkpt lat="47.29325" lon="4.94718">
        <ele>441</ele>
        <time>2012-04-01T11:18:42Z</time>
      </trkpt>
      <trkpt lat="47.29312" lon="4.94748">
        <ele>440</ele>
        <time>2012-04-01T11:18:49Z</time>
      </trkpt>
      <trkpt lat="47.29297" lon="4.94772">
        <ele>439</ele>
        <time>2012-04-01T11:18:54Z</time>
      </trkpt>
      <trkpt lat="47.29262" lon="4.94822">
        <ele>437</ele>
        <time>2012-04-01T11:19:02Z</time>
      </trkpt>
      <trkpt lat="47.29238" lon="4.94853">
        <ele>435</ele>
        <time>2012-04-01T11:19:06Z</time>
      </trkpt>
      <trkpt lat="47.29218" lon="4.94875">
        <ele>434</ele>
        <time>2012-04-01T11:19:11Z</time>
      </trkpt>
      <trkpt lat="47.29205" lon="4.94892">
        <ele>432</ele>
        <time>2012-04-01T11:19:13Z</time>
      </trkpt>
      <trkpt lat="47.29195" lon="4.94913">
        <ele>431</ele>
        <time>2012-04-01T11:19:18Z</time>
      </trkpt>
      <trkpt lat="47.2921" lon="4.9494">
        <ele>430</ele>
        <time>2012-04-01T11:19:22Z</time>
      </trkpt>
      <trkpt lat="47.29227" lon="4.94963">
        <ele>429</ele>
        <time>2012-04-01T11:19:27Z</time>
      </trkpt>
      <trkpt lat="47.29262" lon="4.95015">
        <ele>427</ele>
        <time>2012-04-01T11:19:36Z</time>
      </trkpt>
      <trkpt lat="47.29392" lon="4.95213">
        <ele>430</ele>
        <time>2012-04-01T11:20:18Z</time>
      </trkpt>
      <trkpt lat="47.29405" lon="4.95233">
        <ele>430</ele>
        <time>2012-04-01T11:20:22Z</time>
      </trkpt>
      <trkpt lat="47.29432" lon="4.95277">
        <ele>430</ele>
        <time>2012-04-01T11:20:34Z</time>
      </trkpt>
      <trkpt lat="47.29443" lon="4.95295">
        <ele>430</ele>
        <time>2012-04-01T11:20:39Z</time>
      </trkpt>
      <trkpt lat="47.29458" lon="4.95313">
        <ele>430</ele>
        <time>2012-04-01T11:20:43Z</time>
      </trkpt>
      <trkpt lat="47.29478" lon="4.9534">
        <ele>431</ele>
        <time>2012-04-01T11:20:50Z</time>
      </trkpt>
      <trkpt lat="47.29502" lon="4.9537">
        <ele>431</ele>
        <time>2012-04-01T11:20:57Z</time>
      </trkpt>
      <trkpt lat="47.29517" lon="4.95388">
        <ele>430</ele>
        <time>2012-04-01T11:21:02Z</time>
      </trkpt>
      <trkpt lat="47.29533" lon="4.9541">
        <ele>430</ele>
        <time>2012-04-01T11:21:06Z</time>
      </trkpt>
      <trkpt lat="47.29567" lon="4.95455">
        <ele>432</ele>
        <time>2012-04-01T11:21:18Z</time>
      </trkpt>
      <trkpt lat="47.29582" lon="4.9548">
        <ele>432</ele>
        <time>2012-04-01T11:21:23Z</time>
      </trkpt>
      <trkpt lat="47.29618" lon="4.95537">
        <ele>432</ele>
        <time>2012-04-01T11:21:34Z</time>
      </trkpt>
      <trkpt lat="47.29643" lon="4.95578">
        <ele>433</ele>
        <time>2012-04-01T11:21:44Z</time>
      </trkpt>
      <trkpt lat="47.29668" lon="4.95617">
        <ele>432</ele>
        <time>2012-04-01T11:21:51Z</time>
      </trkpt>
      <trkpt lat="47.29678" lon="4.95642">
        <ele>432</ele>
        <time>2012-04-01T11:21:56Z</time>
      </trkpt>
      <trkpt lat="47.29687" lon="4.9566">
        <ele>432</ele>
        <time>2012-04-01T11:21:58Z</time>
      </trkpt>
      <trkpt lat="47.29702" lon="4.95687">
        <ele>433</ele>
        <time>2012-04-01T11:22:03Z</time>
      </trkpt>
      <trkpt lat="47.29725" lon="4.95728">
        <ele>433</ele>
        <time>2012-04-01T11:22:10Z</time>
      </trkpt>
      <trkpt lat="47.29752" lon="4.9578">
        <ele>435</ele>
        <time>2012-04-01T11:22:19Z</time>
      </trkpt>
      <trkpt lat="47.29772" lon="4.95825">
        <ele>435</ele>
        <time>2012-04-01T11:22:26Z</time>
      </trkpt>
      <trkpt lat="47.29795" lon="4.9587">
        <ele>436</ele>
        <time>2012-04-01T11:22:33Z</time>
      </trkpt>
      <trkpt lat="47.29828" lon="4.95935">
        <ele>433</ele>
        <time>2012-04-01T11:22:42Z</time>
      </trkpt>
      <trkpt lat="47.29893" lon="4.9606">
        <ele>431</ele>
        <time>2012-04-01T11:23:06Z</time>
      </trkpt>
      <trkpt lat="47.2991" lon="4.9609">
        <ele>432</ele>
        <time>2012-04-01T11:23:13Z</time>
      </trkpt>
      <trkpt lat="47.29932" lon="4.96125">
        <ele>433</ele>
        <time>2012-04-01T11:23:23Z</time>
      </trkpt>
      <trkpt lat="47.29948" lon="4.96152">
        <ele>432</ele>
        <time>2012-04-01T11:23:30Z</time>
      </trkpt>
      <trkpt lat="47.29963" lon="4.9618">
        <ele>433</ele>
        <time>2012-04-01T11:23:37Z</time>
      </trkpt>
      <trkpt lat="47.2998" lon="4.96193">
        <ele>433</ele>
        <time>2012-04-01T11:23:41Z</time>
      </trkpt>
      <trkpt lat="47.29997" lon="4.9618">
        <ele>433</ele>
        <time>2012-04-01T11:23:48Z</time>
      </trkpt>
      <trkpt lat="47.30012" lon="4.962">
        <ele>431</ele>
        <time>2012-04-01T11:23:55Z</time>
      </trkpt>
      <trkpt lat="47.30023" lon="4.96223">
        <ele>431</ele>
        <time>2012-04-01T11:24:02Z</time>
      </trkpt>
      <trkpt lat="47.30028" lon="4.96252">
        <ele>431</ele>
        <time>2012-04-01T11:24:09Z</time>
      </trkpt>
      <trkpt lat="47.30017" lon="4.96272">
        <ele>429</ele>
        <time>2012-04-01T11:24:14Z</time>
      </trkpt>
      <trkpt lat="47.3002" lon="4.96303">
        <ele>430</ele>
        <time>2012-04-01T11:24:18Z</time>
      </trkpt>
      <trkpt lat="47.3003" lon="4.96332">
        <ele>431</ele>
        <time>2012-04-01T11:24:23Z</time>
      </trkpt>
      <trkpt lat="47.30035" lon="4.96355">
        <ele>430</ele>
        <time>2012-04-01T11:24:28Z</time>
      </trkpt>
      <trkpt lat="47.30042" lon="4.96377">
        <ele>429</ele>
        <time>2012-04-01T11:24:30Z</time>
      </trkpt>
      <trkpt lat="47.30052" lon="4.96412">
        <ele>430</ele>
        <time>2012-04-01T11:24:37Z</time>
      </trkpt>
      <trkpt lat="47.30065" lon="4.96448">
        <ele>433</ele>
        <time>2012-04-01T11:24:44Z</time>
      </trkpt>
      <trkpt lat="47.30077" lon="4.96488">
        <ele>432</ele>
        <time>2012-04-01T11:24:51Z</time>
      </trkpt>
      <trkpt lat="47.30083" lon="4.96517">
        <ele>433</ele>
        <time>2012-04-01T11:24:55Z</time>
      </trkpt>
      <trkpt lat="47.30088" lon="4.9654">
        <ele>433</ele>
        <time>2012-04-01T11:25:00Z</time>
      </trkpt>
      <trkpt lat="47.30078" lon="4.96558">
        <ele>434</ele>
        <time>2012-04-01T11:25:04Z</time>
      </trkpt>
      <trkpt lat="47.30057" lon="4.96562">
        <ele>434</ele>
        <time>2012-04-01T11:25:09Z</time>
      </trkpt>
      <trkpt lat="47.30022" lon="4.96568">
        <ele>430</ele>
        <time>2012-04-01T11:25:14Z</time>
      </trkpt>
      <trkpt lat="47.29987" lon="4.96582">
        <ele>423</ele>
        <time>2012-04-01T11:25:18Z</time>
      </trkpt>
      <trkpt lat="47.29977" lon="4.96607">
        <ele>421</ele>
        <time>2012-04-01T11:25:23Z</time>
      </trkpt>
      <trkpt lat="47.29972" lon="4.9663">
        <ele>419</ele>
        <time>2012-04-01T11:25:25Z</time>
      </trkpt>
      <trkpt lat="47.29965" lon="4.96658">
        <ele>416</ele>
        <time>2012-04-01T11:25:29Z</time>
      </trkpt>
      <trkpt lat="47.2995" lon="4.9669">
        <ele>411</ele>
        <time>2012-04-01T11:25:34Z</time>
      </trkpt>
      <trkpt lat="47.29935" lon="4.96715">
        <ele>407</ele>
        <time>2012-04-01T11:25:39Z</time>
      </trkpt>
      <trkpt lat="47.29923" lon="4.96733">
        <ele>405</ele>
        <time>2012-04-01T11:25:41Z</time>
      </trkpt>
      <trkpt lat="47.29912" lon="4.9676">
        <ele>402</ele>
        <time>2012-04-01T11:25:46Z</time>
      </trkpt>
      <trkpt lat="47.29893" lon="4.96798">
        <ele>397</ele>
        <time>2012-04-01T11:25:52Z</time>
      </trkpt>
      <trkpt lat="47.29883" lon="4.96828">
        <ele>398</ele>
        <time>2012-04-01T11:25:56Z</time>
      </trkpt>
      <trkpt lat="47.2987" lon="4.96868">
        <ele>400</ele>
        <time>2012-04-01T11:26:03Z</time>
      </trkpt>
      <trkpt lat="47.29858" lon="4.96902">
        <ele>402</ele>
        <time>2012-04-01T11:26:10Z</time>
      </trkpt>
      <trkpt lat="47.29852" lon="4.96927">
        <ele>401</ele>
        <time>2012-04-01T11:26:14Z</time>
      </trkpt>
      <trkpt lat="47.29848" lon="4.96947">
        <ele>400</ele>
        <time>2012-04-01T11:26:16Z</time>
      </trkpt>
      <trkpt lat="47.29833" lon="4.97037">
        <ele>398</ele>
        <time>2012-04-01T11:26:29Z</time>
      </trkpt>
      <trkpt lat="47.29835" lon="4.97075">
        <ele>396</ele>
        <time>2012-04-01T11:26:34Z</time>
      </trkpt>
      <trkpt lat="47.2984" lon="4.97142">
        <ele>393</ele>
        <time>2012-04-01T11:26:43Z</time>
      </trkpt>
      <trkpt lat="47.29842" lon="4.97175">
        <ele>394</ele>
        <time>2012-04-01T11:26:50Z</time>
      </trkpt>
      <trkpt lat="47.29842" lon="4.97195">
        <ele>395</ele>
        <time>2012-04-01T11:26:54Z</time>
      </trkpt>
      <trkpt lat="47.29845" lon="4.97217">
        <ele>397</ele>
        <time>2012-04-01T11:26:59Z</time>
      </trkpt>
      <trkpt lat="47.29847" lon="4.97238">
        <ele>397</ele>
        <time>2012-04-01T11:27:04Z</time>
      </trkpt>
      <trkpt lat="47.29847" lon="4.97262">
        <ele>397</ele>
        <time>2012-04-01T11:27:08Z</time>
      </trkpt>
      <trkpt lat="47.29847" lon="4.97282">
        <ele>399</ele>
        <time>2012-04-01T11:27:13Z</time>
      </trkpt>
      <trkpt lat="47.29842" lon="4.97308">
        <ele>398</ele>
        <time>2012-04-01T11:27:17Z</time>
      </trkpt>
      <trkpt lat="47.29837" lon="4.97338">
        <ele>397</ele>
        <time>2012-04-01T11:27:22Z</time>
      </trkpt>
      <trkpt lat="47.29833" lon="4.97363">
        <ele>397</ele>
        <time>2012-04-01T11:27:27Z</time>
      </trkpt>
      <trkpt lat="47.29827" lon="4.97392">
        <ele>397</ele>
        <time>2012-04-01T11:27:31Z</time>
      </trkpt>
      <trkpt lat="47.29823" lon="4.97418">
        <ele>397</ele>
        <time>2012-04-01T11:27:36Z</time>
      </trkpt>
      <trkpt lat="47.29815" lon="4.97452">
        <ele>396</ele>
        <time>2012-04-01T11:27:40Z</time>
      </trkpt>
      <trkpt lat="47.2981" lon="4.97478">
        <ele>395</ele>
        <time>2012-04-01T11:27:45Z</time>
      </trkpt>
      <trkpt lat="47.29782" lon="4.97617">
        <ele>395</ele>
        <time>2012-04-01T11:28:05Z</time>
      </trkpt>
      <trkpt lat="47.29775" lon="4.97657">
        <ele>396</ele>
        <time>2012-04-01T11:28:12Z</time>
      </trkpt>
      <trkpt lat="47.29762" lon="4.9773">
        <ele>395</ele>
        <time>2012-04-01T11:28:24Z</time>
      </trkpt>
      <trkpt lat="47.29755" lon="4.9776">
        <ele>397</ele>
        <time>2012-04-01T11:28:28Z</time>
      </trkpt>
      <trkpt lat="47.29748" lon="4.97792">
        <ele>397</ele>
        <time>2012-04-01T11:28:33Z</time>
      </trkpt>
      <trkpt lat="47.29743" lon="4.97813">
        <ele>398</ele>
        <time>2012-04-01T11:28:37Z</time>
      </trkpt>
      <trkpt lat="47.29722" lon="4.97923">
        <ele>399</ele>
        <time>2012-04-01T11:28:56Z</time>
      </trkpt>
      <trkpt lat="47.29708" lon="4.97988">
        <ele>399</ele>
        <time>2012-04-01T11:29:07Z</time>
      </trkpt>
      <trkpt lat="47.29703" lon="4.98013">
        <ele>399</ele>
        <time>2012-04-01T11:29:11Z</time>
      </trkpt>
      <trkpt lat="47.297" lon="4.98037">
        <ele>398</ele>
        <time>2012-04-01T11:29:16Z</time>
      </trkpt>
      <trkpt lat="47.29692" lon="4.9808">
        <ele>397</ele>
        <time>2012-04-01T11:29:24Z</time>
      </trkpt>
      <trkpt lat="47.29637" lon="4.9835">
        <ele>393</ele>
        <time>2012-04-01T11:30:13Z</time>
      </trkpt>
      <trkpt lat="47.29622" lon="4.9842">
        <ele>393</ele>
        <time>2012-04-01T11:30:25Z</time>
      </trkpt>
      <trkpt lat="47.29613" lon="4.98442">
        <ele>395</ele>
        <time>2012-04-01T11:30:29Z</time>
      </trkpt>
      <trkpt lat="47.2961" lon="4.98462">
        <ele>397</ele>
        <time>2012-04-01T11:30:36Z</time>
      </trkpt>
      <trkpt lat="47.29615" lon="4.98488">
        <ele>396</ele>
        <time>2012-04-01T11:30:41Z</time>
      </trkpt>
      <trkpt lat="47.29622" lon="4.98507">
        <ele>395</ele>
        <time>2012-04-01T11:30:46Z</time>
      </trkpt>
      <trkpt lat="47.29633" lon="4.9853">
        <ele>395</ele>
        <time>2012-04-01T11:30:50Z</time>
      </trkpt>
      <trkpt lat="47.29643" lon="4.98557">
        <ele>394</ele>
        <time>2012-04-01T11:30:55Z</time>
      </trkpt>
      <trkpt lat="47.29653" lon="4.98578">
        <ele>393</ele>
        <time>2012-04-01T11:31:00Z</time>
      </trkpt>
      <trkpt lat="47.29665" lon="4.98607">
        <ele>392</ele>
        <time>2012-04-01T11:31:04Z</time>
      </trkpt>
      <trkpt lat="47.29675" lon="4.98637">
        <ele>392</ele>
        <time>2012-04-01T11:31:09Z</time>
      </trkpt>
      <trkpt lat="47.29718" lon="4.98735">
        <ele>391</ele>
        <time>2012-04-01T11:31:28Z</time>
      </trkpt>
      <trkpt lat="47.29737" lon="4.98755">
        <ele>390</ele>
        <time>2012-04-01T11:31:32Z</time>
      </trkpt>
      <trkpt lat="47.29752" lon="4.98767">
        <ele>389</ele>
        <time>2012-04-01T11:31:37Z</time>
      </trkpt>
      <trkpt lat="47.29778" lon="4.98788">
        <ele>388</ele>
        <time>2012-04-01T11:31:44Z</time>
      </trkpt>
      <trkpt lat="47.29792" lon="4.98798">
        <ele>388</ele>
        <time>2012-04-01T11:31:46Z</time>
      </trkpt>
      <trkpt lat="47.2982" lon="4.98822">
        <ele>386</ele>
        <time>2012-04-01T11:31:53Z</time>
      </trkpt>
      <trkpt lat="47.29837" lon="4.9884">
        <ele>386</ele>
        <time>2012-04-01T11:31:57Z</time>
      </trkpt>
      <trkpt lat="47.29858" lon="4.98862">
        <ele>384</ele>
        <time>2012-04-01T11:32:02Z</time>
      </trkpt>
      <trkpt lat="47.29877" lon="4.98873">
        <ele>384</ele>
        <time>2012-04-01T11:32:07Z</time>
      </trkpt>
      <trkpt lat="47.29895" lon="4.98898">
        <ele>383</ele>
        <time>2012-04-01T11:32:11Z</time>
      </trkpt>
      <trkpt lat="47.29912" lon="4.98928">
        <ele>384</ele>
        <time>2012-04-01T11:32:18Z</time>
      </trkpt>
      <trkpt lat="47.29913" lon="4.98952">
        <ele>384</ele>
        <time>2012-04-01T11:32:22Z</time>
      </trkpt>
      <trkpt lat="47.29893" lon="4.98952">
        <ele>385</ele>
        <time>2012-04-01T11:32:34Z</time>
      </trkpt>
      <trkpt lat="47.29873" lon="4.98948">
        <ele>386</ele>
        <time>2012-04-01T11:32:39Z</time>
      </trkpt>
      <trkpt lat="47.29853" lon="4.98942">
        <ele>387</ele>
        <time>2012-04-01T11:32:43Z</time>
      </trkpt>
      <trkpt lat="47.29828" lon="4.9893">
        <ele>388</ele>
        <time>2012-04-01T11:32:50Z</time>
      </trkpt>
      <trkpt lat="47.29797" lon="4.98917">
        <ele>389</ele>
        <time>2012-04-01T11:33:00Z</time>
      </trkpt>
      <trkpt lat="47.29785" lon="4.98937">
        <ele>388</ele>
        <time>2012-04-01T11:33:07Z</time>
      </trkpt>
      <trkpt lat="47.29783" lon="4.98968">
        <ele>386</ele>
        <time>2012-04-01T11:33:11Z</time>
      </trkpt>
      <trkpt lat="47.29778" lon="4.99008">
        <ele>384</ele>
        <time>2012-04-01T11:33:17Z</time>
      </trkpt>
      <trkpt lat="47.2977" lon="4.99037">
        <ele>386</ele>
        <time>2012-04-01T11:33:22Z</time>
      </trkpt>
      <trkpt lat="47.29767" lon="4.99063">
        <ele>387</ele>
        <time>2012-04-01T11:33:27Z</time>
      </trkpt>
      <trkpt lat="47.29755" lon="4.99087">
        <ele>390</ele>
        <time>2012-04-01T11:33:31Z</time>
      </trkpt>
      <trkpt lat="47.29745" lon="4.99103">
        <ele>394</ele>
        <time>2012-04-01T11:33:33Z</time>
      </trkpt>
      <trkpt lat="47.29732" lon="4.9913">
        <ele>400</ele>
        <time>2012-04-01T11:33:38Z</time>
      </trkpt>
      <trkpt lat="47.29712" lon="4.99173">
        <ele>406</ele>
        <time>2012-04-01T11:33:42Z</time>
      </trkpt>
      <trkpt lat="47.29705" lon="4.99192">
        <ele>407</ele>
        <time>2012-04-01T11:33:44Z</time>
      </trkpt>
      <trkpt lat="47.29685" lon="4.99238">
        <ele>408</ele>
        <time>2012-04-01T11:33:49Z</time>
      </trkpt>
      <trkpt lat="47.29678" lon="4.99258">
        <ele>407</ele>
        <time>2012-04-01T11:33:54Z</time>
      </trkpt>
      <trkpt lat="47.2968" lon="4.99293">
        <ele>400</ele>
        <time>2012-04-01T11:33:58Z</time>
      </trkpt>
      <trkpt lat="47.29685" lon="4.99328">
        <ele>395</ele>
        <time>2012-04-01T11:34:02Z</time>
      </trkpt>
      <trkpt lat="47.2969" lon="4.99367">
        <ele>389</ele>
        <time>2012-04-01T11:34:07Z</time>
      </trkpt>
      <trkpt lat="47.29697" lon="4.99395">
        <ele>385</ele>
        <time>2012-04-01T11:34:09Z</time>
      </trkpt>
      <trkpt lat="47.29698" lon="4.99423">
        <ele>379</ele>
        <time>2012-04-01T11:34:13Z</time>
      </trkpt>
      <trkpt lat="47.29703" lon="4.99457">
        <ele>372</ele>
        <time>2012-04-01T11:34:31Z</time>
      </trkpt>
      <trkpt lat="47.29707" lon="4.99483">
        <ele>368</ele>
        <time>2012-04-01T11:34:38Z</time>
      </trkpt>
      <trkpt lat="47.29707" lon="4.99508">
        <ele>366</ele>
        <time>2012-04-01T11:34:42Z</time>
      </trkpt>
      <trkpt lat="47.29717" lon="4.99523">
        <ele>366</ele>
        <time>2012-04-01T11:34:49Z</time>
      </trkpt>
      <trkpt lat="47.29733" lon="4.99523">
        <ele>368</ele>
        <time>2012-04-01T11:34:57Z</time>
      </trkpt>
      <trkpt lat="47.29738" lon="4.99545">
        <ele>370</ele>
        <time>2012-04-01T11:35:04Z</time>
      </trkpt>
      <trkpt lat="47.29732" lon="4.99567">
        <ele>371</ele>
        <time>2012-04-01T11:35:09Z</time>
      </trkpt>
      <trkpt lat="47.29742" lon="4.99587">
        <ele>370</ele>
        <time>2012-04-01T11:35:13Z</time>
      </trkpt>
      <trkpt lat="47.29758" lon="4.99605">
        <ele>370</ele>
        <time>2012-04-01T11:35:18Z</time>
      </trkpt>
      <trkpt lat="47.29775" lon="4.99615">
        <ele>369</ele>
        <time>2012-04-01T11:35:22Z</time>
      </trkpt>
      <trkpt lat="47.29792" lon="4.99627">
        <ele>368</ele>
        <time>2012-04-01T11:35:27Z</time>
      </trkpt>
      <trkpt lat="47.29805" lon="4.99635">
        <ele>365</ele>
        <time>2012-04-01T11:35:29Z</time>
      </trkpt>
      <trkpt lat="47.29822" lon="4.9965">
        <ele>362</ele>
        <time>2012-04-01T11:35:34Z</time>
      </trkpt>
      <trkpt lat="47.29842" lon="4.99672">
        <ele>361</ele>
        <time>2012-04-01T11:35:38Z</time>
      </trkpt>
      <trkpt lat="47.29857" lon="4.9969">
        <ele>358</ele>
        <time>2012-04-01T11:35:42Z</time>
      </trkpt>
      <trkpt lat="47.29872" lon="4.99712">
        <ele>357</ele>
        <time>2012-04-01T11:35:47Z</time>
      </trkpt>
      <trkpt lat="47.29887" lon="4.99732">
        <ele>355</ele>
        <time>2012-04-01T11:35:51Z</time>
      </trkpt>
      <trkpt lat="47.299" lon="4.9977">
        <ele>352</ele>
        <time>2012-04-01T11:35:55Z</time>
      </trkpt>
      <trkpt lat="47.29903" lon="4.99792">
        <ele>349</ele>
        <time>2012-04-01T11:36:00Z</time>
      </trkpt>
      <trkpt lat="47.29902" lon="4.99817">
        <ele>344</ele>
        <time>2012-04-01T11:36:09Z</time>
      </trkpt>
      <trkpt lat="47.29903" lon="4.99853">
        <ele>338</ele>
        <time>2012-04-01T11:36:13Z</time>
      </trkpt>
      <trkpt lat="47.29912" lon="4.9988">
        <ele>334</ele>
        <time>2012-04-01T11:36:18Z</time>
      </trkpt>
      <trkpt lat="47.29928" lon="4.99925">
        <ele>326</ele>
        <time>2012-04-01T11:36:25Z</time>
      </trkpt>
      <trkpt lat="47.29928" lon="4.99945">
        <ele>324</ele>
        <time>2012-04-01T11:36:27Z</time>
      </trkpt>
      <trkpt lat="47.29928" lon="4.99998">
        <ele>317</ele>
        <time>2012-04-01T11:36:31Z</time>
      </trkpt>
      <trkpt lat="47.29923" lon="5.0002">
        <ele>315</ele>
        <time>2012-04-01T11:36:33Z</time>
      </trkpt>
      <trkpt lat="47.29912" lon="5.0008">
        <ele>303</ele>
        <time>2012-04-01T11:36:40Z</time>
      </trkpt>
      <trkpt lat="47.2992" lon="5.00108">
        <ele>299</ele>
        <time>2012-04-01T11:36:44Z</time>
      </trkpt>
      <trkpt lat="47.29935" lon="5.00125">
        <ele>295</ele>
        <time>2012-04-01T11:36:49Z</time>
      </trkpt>
      <trkpt lat="47.29955" lon="5.00123">
        <ele>295</ele>
        <time>2012-04-01T11:36:56Z</time>
      </trkpt>
      <trkpt lat="47.29975" lon="5.00125">
        <ele>294</ele>
        <time>2012-04-01T11:37:00Z</time>
      </trkpt>
      <trkpt lat="47.30008" lon="5.00127">
        <ele>294</ele>
        <time>2012-04-01T11:37:09Z</time>
      </trkpt>
      <trkpt lat="47.3001" lon="5.00157">
        <ele>295</ele>
        <time>2012-04-01T11:37:15Z</time>
      </trkpt>
      <trkpt lat="47.3001" lon="5.00185">
        <ele>294</ele>
        <time>2012-04-01T11:37:20Z</time>
      </trkpt>
      <trkpt lat="47.30028" lon="5.00212">
        <ele>294</ele>
        <time>2012-04-01T11:37:24Z</time>
      </trkpt>
      <trkpt lat="47.30047" lon="5.0023">
        <ele>294</ele>
        <time>2012-04-01T11:37:29Z</time>
      </trkpt>
      <trkpt lat="47.3008" lon="5.0026">
        <ele>292</ele>
        <time>2012-04-01T11:37:35Z</time>
      </trkpt>
      <trkpt lat="47.301" lon="5.00273">
        <ele>292</ele>
        <time>2012-04-01T11:37:39Z</time>
      </trkpt>
      <trkpt lat="47.30118" lon="5.00283">
        <ele>292</ele>
        <time>2012-04-01T11:37:44Z</time>
      </trkpt>
      <trkpt lat="47.30132" lon="5.0029">
        <ele>293</ele>
        <time>2012-04-01T11:37:46Z</time>
      </trkpt>
      <trkpt lat="47.30148" lon="5.00303">
        <ele>293</ele>
        <time>2012-04-01T11:37:50Z</time>
      </trkpt>
      <trkpt lat="47.30177" lon="5.00332">
        <ele>292</ele>
        <time>2012-04-01T11:37:57Z</time>
      </trkpt>
      <trkpt lat="47.30195" lon="5.00342">
        <ele>291</ele>
        <time>2012-04-01T11:37:59Z</time>
      </trkpt>
      <trkpt lat="47.30282" lon="5.0039">
        <ele>290</ele>
        <time>2012-04-01T11:38:20Z</time>
      </trkpt>
      <trkpt lat="47.30288" lon="5.00422">
        <ele>285</ele>
        <time>2012-04-01T11:38:25Z</time>
      </trkpt>
      <trkpt lat="47.3029" lon="5.00442">
        <ele>282</ele>
        <time>2012-04-01T11:38:27Z</time>
      </trkpt>
      <trkpt lat="47.30307" lon="5.00463">
        <ele>280</ele>
        <time>2012-04-01T11:38:34Z</time>
      </trkpt>
      <trkpt lat="47.30322" lon="5.00473">
        <ele>280</ele>
        <time>2012-04-01T11:38:36Z</time>
      </trkpt>
      <trkpt lat="47.3034" lon="5.0048">
        <ele>279</ele>
        <time>2012-04-01T11:38:41Z</time>
      </trkpt>
      <trkpt lat="47.30377" lon="5.00492">
        <ele>276</ele>
        <time>2012-04-01T11:38:47Z</time>
      </trkpt>
      <trkpt lat="47.304" lon="5.00483">
        <ele>276</ele>
        <time>2012-04-01T11:38:52Z</time>
      </trkpt>
      <trkpt lat="47.30417" lon="5.00485">
        <ele>276</ele>
        <time>2012-04-01T11:38:57Z</time>
      </trkpt>
      <trkpt lat="47.3045" lon="5.00488">
        <ele>277</ele>
        <time>2012-04-01T11:39:04Z</time>
      </trkpt>
      <trkpt lat="47.30468" lon="5.00495">
        <ele>276</ele>
        <time>2012-04-01T11:39:08Z</time>
      </trkpt>
      <trkpt lat="47.30472" lon="5.00528">
        <ele>272</ele>
        <time>2012-04-01T11:39:13Z</time>
      </trkpt>
      <trkpt lat="47.30477" lon="5.0056">
        <ele>269</ele>
        <time>2012-04-01T11:39:17Z</time>
      </trkpt>
      <trkpt lat="47.30493" lon="5.00555">
        <ele>268</ele>
        <time>2012-04-01T11:39:22Z</time>
      </trkpt>
      <trkpt lat="47.30528" lon="5.00552">
        <ele>267</ele>
        <time>2012-04-01T11:39:28Z</time>
      </trkpt>
      <trkpt lat="47.3053" lon="5.00578">
        <ele>266</ele>
        <time>2012-04-01T11:39:33Z</time>
      </trkpt>
      <trkpt lat="47.30532" lon="5.00603">
        <ele>265</ele>
        <time>2012-04-01T11:39:35Z</time>
      </trkpt>
      <trkpt lat="47.30532" lon="5.00638">
        <ele>264</ele>
        <time>2012-04-01T11:39:40Z</time>
      </trkpt>
      <trkpt lat="47.30532" lon="5.00667">
        <ele>263</ele>
        <time>2012-04-01T11:39:44Z</time>
      </trkpt>
      <trkpt lat="47.3054" lon="5.00688">
        <ele>263</ele>
        <time>2012-04-01T11:39:49Z</time>
      </trkpt>
      <trkpt lat="47.30558" lon="5.00688">
        <ele>265</ele>
        <time>2012-04-01T11:39:55Z</time>
      </trkpt>
      <trkpt lat="47.30587" lon="5.00685">
        <ele>265</ele>
        <time>2012-04-01T11:40:02Z</time>
      </trkpt>
      <trkpt lat="47.3062" lon="5.00687">
        <ele>266</ele>
        <time>2012-04-01T11:40:11Z</time>
      </trkpt>
      <trkpt lat="47.3062" lon="5.00715">
        <ele>264</ele>
        <time>2012-04-01T11:40:18Z</time>
      </trkpt>
      <trkpt lat="47.3062" lon="5.0076">
        <ele>260</ele>
        <time>2012-04-01T11:40:27Z</time>
      </trkpt>
      <trkpt lat="47.30618" lon="5.00817">
        <ele>258</ele>
        <time>2012-04-01T11:40:36Z</time>
      </trkpt>
      <trkpt lat="47.30615" lon="5.00932">
        <ele>258</ele>
        <time>2012-04-01T11:40:56Z</time>
      </trkpt>
      <trkpt lat="47.30632" lon="5.00942">
        <ele>259</ele>
        <time>2012-04-01T11:41:03Z</time>
      </trkpt>
      <trkpt lat="47.30655" lon="5.00943">
        <ele>259</ele>
        <time>2012-04-01T11:41:08Z</time>
      </trkpt>
      <trkpt lat="47.30677" lon="5.00947">
        <ele>259</ele>
        <time>2012-04-01T11:41:12Z</time>
      </trkpt>
      <trkpt lat="47.30695" lon="5.00958">
        <ele>259</ele>
        <time>2012-04-01T11:41:16Z</time>
      </trkpt>
      <trkpt lat="47.30712" lon="5.00975">
        <ele>260</ele>
        <time>2012-04-01T11:41:21Z</time>
      </trkpt>
      <trkpt lat="47.30722" lon="5.00992">
        <ele>260</ele>
        <time>2012-04-01T11:41:23Z</time>
      </trkpt>
      <trkpt lat="47.30757" lon="5.01052">
        <ele>262</ele>
        <time>2012-04-01T11:41:34Z</time>
      </trkpt>
      <trkpt lat="47.30777" lon="5.01078">
        <ele>263</ele>
        <time>2012-04-01T11:41:39Z</time>
      </trkpt>
      <trkpt lat="47.30797" lon="5.01107">
        <ele>263</ele>
        <time>2012-04-01T11:41:45Z</time>
      </trkpt>
      <trkpt lat="47.30832" lon="5.01158">
        <ele>264</ele>
        <time>2012-04-01T11:41:58Z</time>
      </trkpt>
      <trkpt lat="47.30835" lon="5.01178">
        <ele>262</ele>
        <time>2012-04-01T11:42:00Z</time>
      </trkpt>
      <trkpt lat="47.30847" lon="5.01193">
        <ele>261</ele>
        <time>2012-04-01T11:42:04Z</time>
      </trkpt>
      <trkpt lat="47.3086" lon="5.01202">
        <ele>262</ele>
        <time>2012-04-01T11:42:08Z</time>
      </trkpt>
      <trkpt lat="47.30872" lon="5.01222">
        <ele>262</ele>
        <time>2012-04-01T11:42:13Z</time>
      </trkpt>
      <trkpt lat="47.30888" lon="5.01248">
        <ele>263</ele>
        <time>2012-04-01T11:42:17Z</time>
      </trkpt>
      <trkpt lat="47.30902" lon="5.01272">
        <ele>262</ele>
        <time>2012-04-01T11:42:22Z</time>
      </trkpt>
      <trkpt lat="47.30925" lon="5.01313">
        <ele>261</ele>
        <time>2012-04-01T11:42:28Z</time>
      </trkpt>
      <trkpt lat="47.30938" lon="5.01343">
        <ele>260</ele>
        <time>2012-04-01T11:42:33Z</time>
      </trkpt>
      <trkpt lat="47.30932" lon="5.01368">
        <ele>262</ele>
        <time>2012-04-01T11:42:38Z</time>
      </trkpt>
      <trkpt lat="47.30908" lon="5.01398">
        <ele>262</ele>
        <time>2012-04-01T11:42:42Z</time>
      </trkpt>
      <trkpt lat="47.3087" lon="5.01453">
        <ele>261</ele>
        <time>2012-04-01T11:42:51Z</time>
      </trkpt>
      <trkpt lat="47.30867" lon="5.01487">
        <ele>259</ele>
        <time>2012-04-01T11:42:56Z</time>
      </trkpt>
      <trkpt lat="47.30878" lon="5.01515">
        <ele>259</ele>
        <time>2012-04-01T11:43:00Z</time>
      </trkpt>
      <trkpt lat="47.30893" lon="5.01548">
        <ele>258</ele>
        <time>2012-04-01T11:43:04Z</time>
      </trkpt>
      <trkpt lat="47.30908" lon="5.0158">
        <ele>257</ele>
        <time>2012-04-01T11:43:09Z</time>
      </trkpt>
      <trkpt lat="47.3092" lon="5.01602">
        <ele>258</ele>
        <time>2012-04-01T11:43:13Z</time>
      </trkpt>
      <trkpt lat="47.30937" lon="5.01635">
        <ele>260</ele>
        <time>2012-04-01T11:43:22Z</time>
      </trkpt>
      <trkpt lat="47.30943" lon="5.01653">
        <ele>261</ele>
        <time>2012-04-01T11:43:26Z</time>
      </trkpt>
      <trkpt lat="47.30955" lon="5.01668">
        <ele>260</ele>
        <time>2012-04-01T11:43:30Z</time>
      </trkpt>
      <trkpt lat="47.30968" lon="5.0169">
        <ele>258</ele>
        <time>2012-04-01T11:43:35Z</time>
      </trkpt>
      <trkpt lat="47.30978" lon="5.01708">
        <ele>258</ele>
        <time>2012-04-01T11:43:37Z</time>
      </trkpt>
      <trkpt lat="47.31002" lon="5.01755">
        <ele>257</ele>
        <time>2012-04-01T11:43:44Z</time>
      </trkpt>
      <trkpt lat="47.31017" lon="5.01782">
        <ele>257</ele>
        <time>2012-04-01T11:43:48Z</time>
      </trkpt>
      <trkpt lat="47.31032" lon="5.01807">
        <ele>255</ele>
        <time>2012-04-01T11:43:53Z</time>
      </trkpt>
      <trkpt lat="47.31043" lon="5.01827">
        <ele>254</ele>
        <time>2012-04-01T11:43:55Z</time>
      </trkpt>
      <trkpt lat="47.31058" lon="5.01853">
        <ele>252</ele>
        <time>2012-04-01T11:44:00Z</time>
      </trkpt>
      <trkpt lat="47.31095" lon="5.01917">
        <ele>250</ele>
        <time>2012-04-01T11:44:10Z</time>
      </trkpt>
      <trkpt lat="47.31112" lon="5.01947">
        <ele>250</ele>
        <time>2012-04-01T11:44:14Z</time>
      </trkpt>
      <trkpt lat="47.31138" lon="5.01987">
        <ele>250</ele>
        <time>2012-04-01T11:44:21Z</time>
      </trkpt>
      <trkpt lat="47.31155" lon="5.02">
        <ele>249</ele>
        <time>2012-04-01T11:44:26Z</time>
      </trkpt>
      <trkpt lat="47.3117" lon="5.01993">
        <ele>248</ele>
        <time>2012-04-01T11:44:28Z</time>
      </trkpt>
      <trkpt lat="47.31187" lon="5.01988">
        <ele>248</ele>
        <time>2012-04-01T11:44:32Z</time>
      </trkpt>
      <trkpt lat="47.31203" lon="5.02018">
        <ele>247</ele>
        <time>2012-04-01T11:44:37Z</time>
      </trkpt>
      <trkpt lat="47.31355" lon="5.02292">
        <ele>245</ele>
        <time>2012-04-01T11:45:27Z</time>
      </trkpt>
      <trkpt lat="47.31367" lon="5.02313">
        <ele>245</ele>
        <time>2012-04-01T11:45:31Z</time>
      </trkpt>
      <trkpt lat="47.31373" lon="5.02337">
        <ele>243</ele>
        <time>2012-04-01T11:45:38Z</time>
      </trkpt>
      <trkpt lat="47.31378" lon="5.02358">
        <ele>247</ele>
        <time>2012-04-01T11:45:42Z</time>
      </trkpt>
      <trkpt lat="47.31382" lon="5.02378">
        <ele>251</ele>
        <time>2012-04-01T11:45:47Z</time>
      </trkpt>
      <trkpt lat="47.3139" lon="5.024">
        <ele>253</ele>
        <time>2012-04-01T11:45:51Z</time>
      </trkpt>
      <trkpt lat="47.31405" lon="5.02428">
        <ele>255</ele>
        <time>2012-04-01T11:45:58Z</time>
      </trkpt>
      <trkpt lat="47.31417" lon="5.02457">
        <ele>256</ele>
        <time>2012-04-01T11:46:05Z</time>
      </trkpt>
      <trkpt lat="47.31417" lon="5.02482">
        <ele>255</ele>
        <time>2012-04-01T11:46:10Z</time>
      </trkpt>
      <trkpt lat="47.31418" lon="5.02528">
        <ele>255</ele>
        <time>2012-04-01T11:46:16Z</time>
      </trkpt>
      <trkpt lat="47.31425" lon="5.02547">
        <ele>259</ele>
        <time>2012-04-01T11:46:20Z</time>
      </trkpt>
      <trkpt lat="47.31433" lon="5.02578">
        <ele>262</ele>
        <time>2012-04-01T11:46:27Z</time>
      </trkpt>
      <trkpt lat="47.31422" lon="5.02595">
        <ele>261</ele>
        <time>2012-04-01T11:46:31Z</time>
      </trkpt>
      <trkpt lat="47.314" lon="5.02608">
        <ele>260</ele>
        <time>2012-04-01T11:46:36Z</time>
      </trkpt>
      <trkpt lat="47.31372" lon="5.02628">
        <ele>260</ele>
        <time>2012-04-01T11:46:43Z</time>
      </trkpt>
      <trkpt lat="47.31328" lon="5.02657">
        <ele>257</ele>
        <time>2012-04-01T11:46:52Z</time>
      </trkpt>
      <trkpt lat="47.31292" lon="5.02675">
        <ele>252</ele>
        <time>2012-04-01T11:46:58Z</time>
      </trkpt>
      <trkpt lat="47.31257" lon="5.02693">
        <ele>250</ele>
        <time>2012-04-01T11:47:05Z</time>
      </trkpt>
      <trkpt lat="47.31227" lon="5.0271">
        <ele>249</ele>
        <time>2012-04-01T11:47:12Z</time>
      </trkpt>
      <trkpt lat="47.31212" lon="5.02722">
        <ele>250</ele>
        <time>2012-04-01T11:47:18Z</time>
      </trkpt>
      <trkpt lat="47.31218" lon="5.02742">
        <ele>250</ele>
        <time>2012-04-01T11:47:25Z</time>
      </trkpt>
      <trkpt lat="47.3121" lon="5.0276">
        <ele>248</ele>
        <time>2012-04-01T11:47:29Z</time>
      </trkpt>
      <trkpt lat="47.31188" lon="5.02772">
        <ele>245</ele>
        <time>2012-04-01T11:47:33Z</time>
      </trkpt>
      <trkpt lat="47.31167" lon="5.02778">
        <ele>244</ele>
        <time>2012-04-01T11:47:38Z</time>
      </trkpt>
      <trkpt lat="47.31152" lon="5.02787">
        <ele>244</ele>
        <time>2012-04-01T11:47:40Z</time>
      </trkpt>
      <trkpt lat="47.31022" lon="5.02863">
        <ele>241</ele>
        <time>2012-04-01T11:48:05Z</time>
      </trkpt>
      <trkpt lat="47.30887" lon="5.02943">
        <ele>238</ele>
        <time>2012-04-01T11:48:30Z</time>
      </trkpt>
      <trkpt lat="47.30793" lon="5.02995">
        <ele>241</ele>
        <time>2012-04-01T11:48:51Z</time>
      </trkpt>
      <trkpt lat="47.3076" lon="5.03012">
        <ele>244</ele>
        <time>2012-04-01T11:48:58Z</time>
      </trkpt>
      <trkpt lat="47.30738" lon="5.0302">
        <ele>247</ele>
        <time>2012-04-01T11:49:02Z</time>
      </trkpt>
      <trkpt lat="47.30718" lon="5.03018">
        <ele>248</ele>
        <time>2012-04-01T11:49:07Z</time>
      </trkpt>
      <trkpt lat="47.30697" lon="5.0304">
        <ele>242</ele>
        <time>2012-04-01T11:49:11Z</time>
      </trkpt>
      <trkpt lat="47.30675" lon="5.03055">
        <ele>242</ele>
        <time>2012-04-01T11:49:16Z</time>
      </trkpt>
      <trkpt lat="47.30657" lon="5.03052">
        <ele>249</ele>
        <time>2012-04-01T11:49:20Z</time>
      </trkpt>
      <trkpt lat="47.30567" lon="5.0298">
        <ele>235</ele>
        <time>2012-04-01T11:49:26Z</time>
      </trkpt>
      <trkpt lat="47.30577" lon="5.03043">
        <ele>253</ele>
        <time>2012-04-01T11:49:29Z</time>
      </trkpt>
      <trkpt lat="47.30583" lon="5.03085">
        <ele>251</ele>
        <time>2012-04-01T11:49:31Z</time>
      </trkpt>
      <trkpt lat="47.30567" lon="5.03108">
        <ele>246</ele>
        <time>2012-04-01T11:49:35Z</time>
      </trkpt>
      <trkpt lat="47.30545" lon="5.03122">
        <ele>246</ele>
        <time>2012-04-01T11:49:40Z</time>
      </trkpt>
      <trkpt lat="47.30523" lon="5.03137">
        <ele>247</ele>
        <time>2012-04-01T11:49:44Z</time>
      </trkpt>
      <trkpt lat="47.30495" lon="5.03162">
        <ele>244</ele>
        <time>2012-04-01T11:49:51Z</time>
      </trkpt>
      <trkpt lat="47.30467" lon="5.03182">
        <ele>240</ele>
        <time>2012-04-01T11:49:55Z</time>
      </trkpt>
      <trkpt lat="47.30428" lon="5.03207">
        <ele>238</ele>
        <time>2012-04-01T11:50:02Z</time>
      </trkpt>
      <trkpt lat="47.30325" lon="5.03267">
        <ele>237</ele>
        <time>2012-04-01T11:50:21Z</time>
      </trkpt>
      <trkpt lat="47.303" lon="5.03282">
        <ele>239</ele>
        <time>2012-04-01T11:50:26Z</time>
      </trkpt>
      <trkpt lat="47.30153" lon="5.03372">
        <ele>241</ele>
        <time>2012-04-01T11:50:57Z</time>
      </trkpt>
      <trkpt lat="47.3013" lon="5.03385">
        <ele>241</ele>
        <time>2012-04-01T11:51:01Z</time>
      </trkpt>
      <trkpt lat="47.3011" lon="5.03397">
        <ele>241</ele>
        <time>2012-04-01T11:51:06Z</time>
      </trkpt>
      <trkpt lat="47.3009" lon="5.03408">
        <ele>240</ele>
        <time>2012-04-01T11:51:10Z</time>
      </trkpt>
      <trkpt lat="47.29937" lon="5.03498">
        <ele>237</ele>
        <time>2012-04-01T11:51:40Z</time>
      </trkpt>
      <trkpt lat="47.29805" lon="5.03578">
        <ele>238</ele>
        <time>2012-04-01T11:52:03Z</time>
      </trkpt>
      <trkpt lat="47.29783" lon="5.03595">
        <ele>238</ele>
        <time>2012-04-01T11:52:08Z</time>
      </trkpt>
      <trkpt lat="47.2976" lon="5.0362">
        <ele>238</ele>
        <time>2012-04-01T11:52:12Z</time>
      </trkpt>
      <trkpt lat="47.29738" lon="5.03645">
        <ele>238</ele>
        <time>2012-04-01T11:52:17Z</time>
      </trkpt>
      <trkpt lat="47.29722" lon="5.03667">
        <ele>238</ele>
        <time>2012-04-01T11:52:22Z</time>
      </trkpt>
      <trkpt lat="47.29708" lon="5.03682">
        <ele>238</ele>
        <time>2012-04-01T11:52:24Z</time>
      </trkpt>
      <trkpt lat="47.29692" lon="5.03703">
        <ele>238</ele>
        <time>2012-04-01T11:52:29Z</time>
      </trkpt>
      <trkpt lat="47.29672" lon="5.0373">
        <ele>238</ele>
        <time>2012-04-01T11:52:33Z</time>
      </trkpt>
      <trkpt lat="47.29642" lon="5.03768">
        <ele>240</ele>
        <time>2012-04-01T11:52:40Z</time>
      </trkpt>
      <trkpt lat="47.29502" lon="5.0394">
        <ele>245</ele>
        <time>2012-04-01T11:53:13Z</time>
      </trkpt>
      <trkpt lat="47.2947" lon="5.0398">
        <ele>243</ele>
        <time>2012-04-01T11:53:20Z</time>
      </trkpt>
      <trkpt lat="47.2944" lon="5.04023">
        <ele>238</ele>
        <time>2012-04-01T11:53:27Z</time>
      </trkpt>
      <trkpt lat="47.29423" lon="5.04042">
        <ele>237</ele>
        <time>2012-04-01T11:53:32Z</time>
      </trkpt>
      <trkpt lat="47.29405" lon="5.0406">
        <ele>237</ele>
        <time>2012-04-01T11:53:39Z</time>
      </trkpt>
      <trkpt lat="47.29388" lon="5.04075">
        <ele>235</ele>
        <time>2012-04-01T11:53:43Z</time>
      </trkpt>
      <trkpt lat="47.29372" lon="5.04097">
        <ele>243</ele>
        <time>2012-04-01T11:53:47Z</time>
      </trkpt>
      <trkpt lat="47.29287" lon="5.04213">
        <ele>240</ele>
        <time>2012-04-01T11:54:10Z</time>
      </trkpt>
      <trkpt lat="47.29278" lon="5.04243">
        <ele>240</ele>
        <time>2012-04-01T11:54:14Z</time>
      </trkpt>
      <trkpt lat="47.29265" lon="5.04265">
        <ele>240</ele>
        <time>2012-04-01T11:54:18Z</time>
      </trkpt>
      <trkpt lat="47.29253" lon="5.04288">
        <ele>241</ele>
        <time>2012-04-01T11:54:23Z</time>
      </trkpt>
      <trkpt lat="47.29247" lon="5.0431">
        <ele>240</ele>
        <time>2012-04-01T11:54:25Z</time>
      </trkpt>
      <trkpt lat="47.29242" lon="5.04342">
        <ele>237</ele>
        <time>2012-04-01T11:54:30Z</time>
      </trkpt>
      <trkpt lat="47.29232" lon="5.04378">
        <ele>235</ele>
        <time>2012-04-01T11:54:34Z</time>
      </trkpt>
      <trkpt lat="47.2923" lon="5.04408">
        <ele>234</ele>
        <time>2012-04-01T11:54:39Z</time>
      </trkpt>
      <trkpt lat="47.29227" lon="5.04443">
        <ele>234</ele>
        <time>2012-04-01T11:54:43Z</time>
      </trkpt>
      <trkpt lat="47.29227" lon="5.04468">
        <ele>234</ele>
        <time>2012-04-01T11:54:48Z</time>
      </trkpt>
      <trkpt lat="47.2922" lon="5.04495">
        <ele>234</ele>
        <time>2012-04-01T11:54:52Z</time>
      </trkpt>
      <trkpt lat="47.29207" lon="5.04513">
        <ele>235</ele>
        <time>2012-04-01T11:54:56Z</time>
      </trkpt>
      <trkpt lat="47.29195" lon="5.04538">
        <ele>235</ele>
        <time>2012-04-01T11:55:01Z</time>
      </trkpt>
      <trkpt lat="47.2919" lon="5.04568">
        <ele>234</ele>
        <time>2012-04-01T11:55:05Z</time>
      </trkpt>
      <trkpt lat="47.29188" lon="5.0459">
        <ele>233</ele>
        <time>2012-04-01T11:55:07Z</time>
      </trkpt>
      <trkpt lat="47.29182" lon="5.0467">
        <ele>232</ele>
        <time>2012-04-01T11:55:17Z</time>
      </trkpt>
      <trkpt lat="47.29178" lon="5.04712">
        <ele>232</ele>
        <time>2012-04-01T11:55:22Z</time>
      </trkpt>
      <trkpt lat="47.29177" lon="5.04785">
        <ele>234</ele>
        <time>2012-04-01T11:55:30Z</time>
      </trkpt>
      <trkpt lat="47.29172" lon="5.04855">
        <ele>236</ele>
        <time>2012-04-01T11:55:39Z</time>
      </trkpt>
      <trkpt lat="47.29162" lon="5.04907">
        <ele>234</ele>
        <time>2012-04-01T11:55:46Z</time>
      </trkpt>
      <trkpt lat="47.29153" lon="5.04935">
        <ele>233</ele>
        <time>2012-04-01T11:55:51Z</time>
      </trkpt>
      <trkpt lat="47.2914" lon="5.0497">
        <ele>232</ele>
        <time>2012-04-01T11:55:56Z</time>
      </trkpt>
      <trkpt lat="47.2912" lon="5.05015">
        <ele>234</ele>
        <time>2012-04-01T11:56:03Z</time>
      </trkpt>
      <trkpt lat="47.29112" lon="5.05032">
        <ele>235</ele>
        <time>2012-04-01T11:56:05Z</time>
      </trkpt>
      <trkpt lat="47.2906" lon="5.05133">
        <ele>240</ele>
        <time>2012-04-01T11:56:23Z</time>
      </trkpt>
      <trkpt lat="47.29045" lon="5.05157">
        <ele>244</ele>
        <time>2012-04-01T11:56:28Z</time>
      </trkpt>
      <trkpt lat="47.29033" lon="5.0518">
        <ele>245</ele>
        <time>2012-04-01T11:56:32Z</time>
      </trkpt>
      <trkpt lat="47.2902" lon="5.052">
        <ele>242</ele>
        <time>2012-04-01T11:56:37Z</time>
      </trkpt>
      <trkpt lat="47.28995" lon="5.05235">
        <ele>241</ele>
        <time>2012-04-01T11:56:43Z</time>
      </trkpt>
      <trkpt lat="47.28977" lon="5.05248">
        <ele>241</ele>
        <time>2012-04-01T11:56:48Z</time>
      </trkpt>
      <trkpt lat="47.28963" lon="5.05263">
        <ele>239</ele>
        <time>2012-04-01T11:56:52Z</time>
      </trkpt>
      <trkpt lat="47.28973" lon="5.05282">
        <ele>238</ele>
        <time>2012-04-01T11:56:57Z</time>
      </trkpt>
      <trkpt lat="47.28995" lon="5.05297">
        <ele>237</ele>
        <time>2012-04-01T11:57:06Z</time>
      </trkpt>
      <trkpt lat="47.28992" lon="5.05318">
        <ele>240</ele>
        <time>2012-04-01T11:57:13Z</time>
      </trkpt>
      <trkpt lat="47.28978" lon="5.05332">
        <ele>243</ele>
        <time>2012-04-01T11:57:15Z</time>
      </trkpt>
      <trkpt lat="47.28965" lon="5.05352">
        <ele>245</ele>
        <time>2012-04-01T11:57:19Z</time>
      </trkpt>
      <trkpt lat="47.28945" lon="5.0538">
        <ele>247</ele>
        <time>2012-04-01T11:57:24Z</time>
      </trkpt>
      <trkpt lat="47.28932" lon="5.05405">
        <ele>248</ele>
        <time>2012-04-01T11:57:28Z</time>
      </trkpt>
      <trkpt lat="47.28907" lon="5.05445">
        <ele>246</ele>
        <time>2012-04-01T11:57:35Z</time>
      </trkpt>
      <trkpt lat="47.28893" lon="5.05467">
        <ele>243</ele>
        <time>2012-04-01T11:57:39Z</time>
      </trkpt>
      <trkpt lat="47.28885" lon="5.05485">
        <ele>240</ele>
        <time>2012-04-01T11:57:44Z</time>
      </trkpt>
      <trkpt lat="47.28895" lon="5.05503">
        <ele>237</ele>
        <time>2012-04-01T11:57:48Z</time>
      </trkpt>
      <trkpt lat="47.28903" lon="5.05522">
        <ele>235</ele>
        <time>2012-04-01T11:57:53Z</time>
      </trkpt>
      <trkpt lat="47.2889" lon="5.05547">
        <ele>236</ele>
        <time>2012-04-01T11:57:57Z</time>
      </trkpt>
      <trkpt lat="47.28865" lon="5.056">
        <ele>241</ele>
        <time>2012-04-01T11:58:06Z</time>
      </trkpt>
      <trkpt lat="47.2885" lon="5.0563">
        <ele>240</ele>
        <time>2012-04-01T11:58:11Z</time>
      </trkpt>
      <trkpt lat="47.2884" lon="5.05655">
        <ele>239</ele>
        <time>2012-04-01T11:58:16Z</time>
      </trkpt>
      <trkpt lat="47.2883" lon="5.05668">
        <ele>243</ele>
        <time>2012-04-01T11:58:20Z</time>
      </trkpt>
      <trkpt lat="47.28793" lon="5.0566">
        <ele>242</ele>
        <time>2012-04-01T11:58:27Z</time>
      </trkpt>
      <trkpt lat="47.28787" lon="5.05705">
        <ele>250</ele>
        <time>2012-04-01T11:58:32Z</time>
      </trkpt>
      <trkpt lat="47.28782" lon="5.05738">
        <ele>248</ele>
        <time>2012-04-01T11:58:34Z</time>
      </trkpt>
      <trkpt lat="47.2877" lon="5.05768">
        <ele>244</ele>
        <time>2012-04-01T11:58:39Z</time>
      </trkpt>
      <trkpt lat="47.28762" lon="5.05787">
        <ele>240</ele>
        <time>2012-04-01T11:58:41Z</time>
      </trkpt>
      <trkpt lat="47.28753" lon="5.05815">
        <ele>236</ele>
        <time>2012-04-01T11:58:46Z</time>
      </trkpt>
      <trkpt lat="47.28747" lon="5.05835">
        <ele>234</ele>
        <time>2012-04-01T11:58:48Z</time>
      </trkpt>
      <trkpt lat="47.28737" lon="5.05857">
        <ele>232</ele>
        <time>2012-04-01T11:58:53Z</time>
      </trkpt>
    </trkseg>
  </trk>
</gpx>